[[{"header":{"parameterUnit":"m.s-1","parameterCategory":1,"la1":30.6,"la2":28.766,"lo1":-90.7593,"lo2":-88.6598,"dy":0.0162,"dx":0.0183,"nx":116,"ny":114,"refTime":"2023-05-18T12:00:00:Z","depth":0,"parameterNumber":2,"parameterNumberName":"U-component_of_WINDS"},"data":[0.0,0.0,0.0,0.0,0.0,0.0,0.0,0.0,0.0,0.0,0.0,0.0,0.0,0.0,0.0,0.0,0.0,0.0,0.0,0.0,0.0,0.0,0.0,0.0,0.0,0.0,0.0,0.0,0.0,0.0,0.0,0.0,0.0,0.0,0.0,0.0,0.0,0.0,0.0,0.0,0.0,0.0,0.0,0.0,0.0,0.0,0.0,0.0,0.0,0.0,0.0,0.0,0.0,0.0,0.0,0.0,0.0,0.0,0.0,0.0,0.0,0.0,0.0,0.0,0.0,0.0,0.0,0.0,0.0,0.0,0.0,0.0,0.0,0.0,0.0,0.0,0.0,0.0,0.0,0.0,0.0,0.0,0.0,0.0,0.0,0.0,0.0,0.0,0.0,0.0,0.0,0.0,0.0,0.0,0.0,0.0,0.0,0.0,0.0,0.0,0.0,0.0,0.0,0.0,0.0,0.0,0.0,0.0,0.0,0.0,0.0,0.0,0.0,0.0,0.0,0.0,0.0,0.0,0.0,0.0,0.0,0.0,0.0,0.0,0.0,0.0,0.0,0.0,0.0,0.0,0.0,0.0,0.0,0.0,0.0,0.0,0.0,0.0,0.0,0.0,0.0,0.0,0.0,0.0,0.0,0.0,0.0,0.0,0.0,0.0,0.0,0.0,0.0,0.0,0.0,0.0,0.0,0.0,0.0,0.0,0.0,0.0,0.0,0.0,0.0,0.0,0.0,0.0,0.0,0.0,0.0,0.0,0.0,0.0,0.0,0.0,0.0,0.0,0.0,0.0,0.0,0.0,0.0,0.0,0.0,0.0,0.0,0.0,0.0,0.0,0.0,0.0,0.0,0.0,0.0,0.0,0.0,0.0,0.0,0.0,0.0,0.0,0.0,0.0,0.0,0.0,0.0,0.0,0.0,0.0,0.0,0.0,0.0,0.0,0.0,0.0,0.0,0.0,0.0,0.0,0.0,0.0,0.0,0.0,0.0,0.0,0.0,0.0,0.0,0.0,0.0,0.0,0.0,0.0,0.0,0.0,0.0,0.0,0.0,0.0,0.0,0.0,0.0,0.0,0.0,0.0,0.0,0.0,0.0,0.0,0.0,0.0,0.0,0.0,0.0,0.0,0.0,0.0,0.0,0.0,0.0,0.0,0.0,0.0,0.0,0.0,0.0,0.0,0.0,0.0,0.0,0.0,0.0,0.0,0.0,0.0,0.0,0.0,0.0,0.0,0.0,0.0,0.0,0.0,0.0,0.0,0.0,0.0,0.0,0.0,0.0,0.0,0.0,0.0,0.0,0.0,0.0,0.0,0.0,0.0,0.0,0.0,0.0,0.0,0.0,0.0,0.0,0.0,0.0,0.0,0.0,0.0,0.0,0.0,0.0,0.0,0.0,0.0,0.0,0.0,0.0,0.0,0.0,0.0,0.0,0.0,0.0,0.0,0.0,0.0,0.0,0.0,0.0,0.0,0.0,0.0,0.0,0.0,0.0,0.0,0.0,0.0,0.0,0.0,0.0,0.0,0.0,0.0,0.0,0.0,0.0,0.0,0.0,0.0,0.0,0.0,0.0,0.0,0.0,0.0,0.0,0.0,0.0,0.0,0.0,0.0,0.0,0.0,0.0,0.0,0.0,0.0,0.0,0.0,0.0,0.0,0.0,0.0,0.0,0.0,0.0,0.0,0.0,0.0,0.0,0.0,0.0,0.0,0.0,0.0,0.0,0.0,0.0,0.0,0.0,0.0,0.0,0.0,0.0,0.0,0.0,0.0,0.0,0.0,0.0,0.0,0.0,0.0,0.0,0.0,0.0,0.0,0.0,0.0,0.0,0.0,0.0,0.0,0.0,0.0,0.0,0.0,0.0,0.0,0.0,0.0,0.0,0.0,0.0,0.0,0.0,0.0,0.0,0.0,0.0,0.0,0.0,0.0,0.0,0.0,0.0,0.0,0.0,0.0,0.0,0.0,0.0,0.0,0.0,0.0,0.0,0.0,0.0,0.0,0.0,0.0,0.0,0.0,0.0,0.0,0.0,0.0,0.0,0.0,0.0,0.0,0.0,0.0,0.0,0.0,0.0,0.0,0.0,0.0,0.0,0.0,0.0,0.0,0.0,0.0,0.0,0.0,0.0,0.0,0.0,0.0,0.0,0.0,0.0,0.0,0.0,0.0,0.0,0.0,0.0,0.0,0.0,0.0,0.0,0.0,0.0,0.0,0.0,0.0,0.0,0.0,0.0,0.0,0.0,0.0,0.0,0.0,0.0,0.0,0.0,0.0,0.0,0.0,0.0,0.0,0.0,0.0,0.0,0.0,0.0,0.0,0.0,0.0,0.0,0.0,0.0,0.0,0.0,0.0,0.0,0.0,0.0,0.0,0.0,0.0,0.0,0.0,0.0,0.0,0.0,0.0,0.0,0.0,0.0,0.0,0.0,0.0,0.0,0.0,0.0,0.0,0.0,0.0,0.0,0.0,0.0,0.0,0.0,0.0,0.0,0.0,0.0,0.0,0.0,0.0,0.0,0.0,0.0,0.0,0.0,0.0,0.0,0.0,0.0,0.0,0.0,0.0,0.0,0.0,0.0,0.0,0.0,0.0,0.0,0.0,0.0,0.0,0.0,0.0,0.0,0.0,0.0,0.0,0.0,0.0,0.0,0.0,0.0,0.0,0.0,0.0,0.0,0.0,0.0,0.0,0.0,0.0,0.0,0.0,0.0,0.0,0.0,0.0,0.0,0.0,0.0,0.0,0.0,0.0,0.0,0.0,0.0,0.0,0.0,0.0,0.0,0.0,0.0,0.0,0.0,0.0,0.0,0.0,0.0,0.0,0.0,0.0,0.0,0.0,0.0,0.0,0.0,0.0,0.0,0.0,0.0,0.0,0.0,0.0,0.0,0.0,0.0,0.0,0.0,0.0,0.0,0.0,0.0,0.0,0.0,0.0,0.0,0.0,0.0,0.0,0.0,0.0,0.0,0.0,0.0,0.0,0.0,0.0,0.0,0.0,0.0,0.0,0.0,0.0,0.0,0.0,0.0,0.0,0.0,0.0,0.0,0.0,0.0,0.0,0.0,0.0,0.0,0.0,0.0,0.0,0.0,0.0,0.0,0.0,0.0,0.0,0.0,0.0,0.0,0.0,0.0,0.0,0.0,0.0,0.0,0.0,0.0,0.0,0.0,0.0,0.0,0.0,0.0,0.0,0.0,0.0,0.0,0.0,0.0,0.0,0.0,0.0,0.0,0.0,0.0,0.0,0.0,0.0,0.0,0.0,0.0,0.0,0.0,0.0,0.0,0.0,0.0,0.0,0.0,0.0,0.0,0.0,0.0,0.0,0.0,0.0,0.0,0.0,0.0,0.0,0.0,0.0,0.0,0.0,0.0,0.0,0.0,0.0,0.0,0.0,0.0,0.0,0.0,0.0,0.0,0.0,0.0,0.0,0.0,0.0,0.0,0.0,0.0,0.0,0.0,0.0,0.0,0.0,0.0,0.0,0.0,0.0,0.0,0.0,0.0,0.0,0.0,0.0,0.0,0.0,0.0,0.0,0.0,0.0,0.0,0.0,0.0,0.0,0.0,0.0,0.0,0.0,0.0,0.0,0.0,0.0,0.0,0.0,0.0,0.0,0.0,0.0,0.0,0.0,0.0,0.0,0.0,0.0,0.0,0.0,0.0,0.0,0.0,0.0,0.0,0.0,0.0,0.0,0.0,0.0,0.0,0.0,0.0,0.0,0.0,0.0,0.0,0.0,0.0,0.0,0.0,0.0,0.0,0.0,0.0,0.0,0.0,0.0,0.0,0.0,0.0,0.0,0.0,0.0,0.0,0.0,0.0,0.0,0.0,0.0,0.0,0.0,0.0,0.0,0.0,0.0,0.0,0.0,0.0,0.0,0.0,0.0,0.0,0.0,0.0,0.0,0.0,0.0,0.0,0.0,0.0,0.0,0.0,0.0,0.0,0.0,0.0,0.0,0.0,0.0,0.0,0.0,0.0,0.0,0.0,0.0,0.0,0.0,0.0,0.0,0.0,0.0,0.0,0.0,0.0,0.0,0.0,0.0,0.0,0.0,0.0,0.0,0.0,0.0,0.0,0.0,0.0,0.0,0.0,0.0,0.0,0.0,0.0,0.0,0.0,0.0,0.0,0.0,0.0,0.0,0.0,0.0,0.0,0.0,0.0,0.0,0.0,0.0,0.0,0.0,0.0,0.0,0.0,0.0,0.0,0.0,0.0,0.0,0.0,0.0,0.0,0.0,0.0,0.0,0.0,0.0,0.0,0.0,0.0,0.0,0.0,0.0,0.0,0.0,0.0,0.0,0.0,0.0,0.0,0.0,0.0,0.0,0.0,0.0,0.0,0.0,0.0,0.0,0.0,0.0,0.0,0.0,0.0,0.0,0.0,0.0,0.0,0.0,0.0,0.0,0.0,0.0,0.0,0.0,0.0,0.0,0.0,0.0,0.0,0.0,0.0,0.0,0.0,0.0,0.0,0.0,0.0,0.0,0.0,0.0,0.0,0.0,0.0,0.0,0.0,0.0,0.0,0.0,0.0,0.0,0.0,0.0,0.0,0.0,0.0,0.0,0.0,0.0,0.0,0.0,0.0,0.0,0.0,0.0,0.0,0.0,0.0,0.0,0.0,0.0,0.0,0.0,0.0,0.0,0.0,0.0,0.0,0.0,0.0,0.0,0.0,0.0,0.0,0.0,0.0,0.0,0.0,0.0,0.0,0.0,0.0,0.0,0.0,0.0,0.0,0.0,0.0,0.0,0.0,0.0,0.0,0.0,0.0,0.0,0.0,0.0,0.0,0.0,0.0,0.0,0.0,0.0,0.0,0.0,0.0,0.0,0.0,0.0,0.0,0.0,0.0,0.0,0.0,0.0,0.0,0.0,0.0,0.0,0.0,0.0,0.0,0.0,0.0,0.0,0.0,0.0,0.0,0.0,0.0,0.0,0.0,0.0,0.0,0.0,0.0,0.0,0.0,0.0,0.0,0.0,0.0,0.0,0.0,0.0,0.0,0.0,0.0,0.0,0.0,0.0,0.0,0.0,0.0,0.0,0.0,0.0,0.0,0.0,0.0,0.0,0.0,0.0,0.0,0.0,0.0,0.0,0.0,0.0,0.0,0.0,0.0,0.0,0.0,0.0,0.0,0.0,0.0,0.0,0.0,0.0,0.0,0.0,0.0,0.0,0.0,0.0,0.0,0.0,0.0,0.0,0.0,0.0,0.0,0.0,0.0,0.0,0.0,0.0,0.0,0.0,0.0,0.0,0.0,0.0,0.0,0.0,0.0,0.0,0.0,0.0,0.0,0.0,0.0,0.0,0.0,0.0,0.0,0.0,0.0,0.0,0.0,0.0,0.0,0.0,0.0,0.0,0.0,0.0,0.0,0.0,0.0,0.0,0.0,0.0,0.0,0.0,0.0,0.0,0.0,0.0,0.0,0.0,0.0,0.0,0.0,0.0,0.0,0.0,0.0,0.0,0.0,0.0,0.0,0.0,0.0,0.0,0.0,0.0,0.0,0.0,0.0,0.0,0.0,0.0,0.0,0.0,0.0,0.0,0.0,0.0,0.0,0.0,0.0,0.0,0.0,0.0,0.0,0.0,0.0,0.0,0.0,0.0,0.0,0.0,0.0,0.0,0.0,0.0,0.0,0.0,0.0,0.0,0.0,0.0,0.0,0.0,0.0,0.0,0.0,0.0,0.0,0.0,0.0,0.0,0.0,0.0,0.0,0.0,0.0,0.0,0.0,0.0,0.0,0.0,0.0,0.0,0.0,0.0,0.0,0.0,0.0,0.0,0.0,0.0,0.0,0.0,0.0,0.0,0.0,0.0,0.0,0.0,0.0,0.0,0.0,0.0,0.0,0.0,0.0,0.0,0.0,0.0,0.0,0.0,0.0,0.0,0.0,0.0,0.0,0.0,0.0,0.0,0.0,0.0,0.0,0.0,0.0,0.0,0.0,0.0,0.0,0.0,0.0,0.0,0.0,0.0,0.0,0.0,0.0,0.0,0.0,0.0,0.0,0.0,0.0,0.0,0.0,0.0,0.0,0.0,0.0,0.0,0.0,0.0,0.0,0.0,0.0,0.0,0.0,0.0,2.5778,0.0,0.0,0.0,0.0,0.0,0.0,0.0,0.0,0.0,0.0,0.0,0.0,0.0,0.0,0.0,0.0,0.0,0.0,0.0,0.0,0.0,0.0,0.0,0.0,0.0,0.0,0.0,0.0,0.0,0.0,0.0,0.0,0.0,0.0,0.0,0.0,0.0,0.0,0.0,0.0,0.0,0.0,0.0,0.0,0.0,0.0,0.0,0.0,0.0,0.0,0.0,0.0,0.0,0.0,0.0,0.0,0.0,0.0,0.0,0.0,0.0,0.0,0.0,0.0,0.0,0.0,0.0,0.0,0.0,0.0,0.0,0.0,0.0,0.0,0.0,0.0,0.0,0.0,0.0,0.0,0.0,0.0,0.0,0.0,0.0,0.0,0.0,0.0,0.0,0.0,0.0,0.0,0.0,0.0,0.0,0.0,0.0,0.0,0.0,0.0,0.0,0.0,0.0,0.0,0.0,0.0,0.0,0.0,0.0,0.0,0.0,0.0,0.0,0.0,0.0,0.0,2.6083,0.0,0.0,0.0,0.0,0.0,0.0,0.0,0.0,0.0,0.0,0.0,0.0,0.0,0.0,0.0,0.0,0.0,0.0,0.0,0.0,0.0,0.0,0.0,0.0,0.0,0.0,0.0,0.0,0.0,0.0,0.0,0.0,0.0,0.0,0.0,0.0,0.0,0.0,0.0,0.0,0.0,0.0,0.0,0.0,0.0,0.0,0.0,0.0,0.0,0.0,0.0,0.0,0.0,0.0,0.0,0.0,0.0,0.0,0.0,0.0,0.0,0.0,0.0,0.0,0.0,0.0,0.0,0.0,0.0,0.0,0.0,0.0,0.0,0.0,0.0,0.0,0.0,0.0,0.0,0.0,0.0,0.0,0.0,0.0,0.0,0.0,0.0,0.0,0.0,0.0,0.0,0.0,0.0,0.0,0.0,0.0,0.0,0.0,0.0,0.0,0.0,0.0,0.0,0.0,0.0,0.0,0.0,0.0,3.1197,3.1913,3.3102,3.3091,3.3158,3.31,2.9525,2.773,2.7323,0.0,0.0,0.0,0.0,0.0,0.0,0.0,0.0,0.0,0.0,0.0,0.0,0.0,0.0,0.0,0.0,0.0,0.0,0.0,0.0,0.0,0.0,0.0,2.5703,2.5703,2.5703,2.5703,0.0,0.0,0.0,0.0,0.0,0.0,0.0,0.0,0.0,0.0,0.0,0.0,2.9277,2.9901,3.0218,3.0085,2.7046,0.0,0.0,0.0,0.0,0.0,0.0,0.0,0.0,0.0,0.0,0.0,0.0,0.0,0.0,0.0,0.0,0.0,0.0,0.0,0.0,0.0,0.0,0.0,0.0,0.0,0.0,0.0,0.0,0.0,0.0,0.0,0.0,0.0,0.0,0.0,0.0,0.0,0.0,0.0,0.0,0.0,0.0,0.0,2.9012,2.9108,0.0,0.0,0.0,0.0,0.0,0.0,0.0,0.0,0.0,0.0,0.0,0.0,0.0,0.0,3.112,3.2628,3.317,3.2773,3.3538,3.3615,3.3102,3.2976,3.3333,3.4026,3.3325,0.0,2.985,2.9037,0.0,0.0,0.0,0.0,0.0,0.0,0.0,0.0,0.0,0.0,0.0,0.0,0.0,0.0,0.0,0.0,0.0,0.0,0.0,0.0,0.0,2.6133,2.623,2.5738,2.7031,2.7266,0.0,0.0,0.0,0.0,0.0,0.0,0.0,0.0,0.0,0.0,2.9606,3.1131,3.2461,3.2363,3.2578,3.2951,3.0923,2.9656,2.8973,2.8213,0.0,0.0,0.0,0.0,0.0,0.0,0.0,0.0,0.0,0.0,0.0,0.0,0.0,0.0,0.0,0.0,0.0,0.0,0.0,0.0,0.0,0.0,0.0,0.0,0.0,0.0,0.0,0.0,0.0,0.0,0.0,0.0,0.0,0.0,0.0,0.0,0.0,0.0,0.0,2.8934,2.9843,2.936,2.8954,2.8393,0.0,0.0,0.0,0.0,0.0,0.0,0.0,0.0,0.0,3.1515,3.2319,3.3102,3.3862,3.5083,3.5939,3.643,3.6883,3.7154,3.725,3.7198,3.7376,3.7728,3.7529,3.6277,3.4236,3.1517,2.9417,2.7873,0.0,0.0,0.0,0.0,2.6883,2.723,0.0,0.0,0.0,0.0,0.0,0.0,0.0,0.0,0.0,0.0,0.0,0.0,2.6016,2.7012,2.7402,2.675,2.8474,2.8671,2.6504,0.0,0.0,0.0,0.0,0.0,0.0,0.0,0.0,3.0562,3.2497,3.4215,3.5681,3.5232,3.5271,3.5681,3.5232,3.3495,3.086,3.0214,2.9301,0.0,0.0,0.0,0.0,0.0,0.0,0.0,0.0,0.0,0.0,0.0,0.0,0.0,0.0,0.0,0.0,0.0,0.0,0.0,0.0,0.0,0.0,0.0,0.0,0.0,0.0,0.0,0.0,0.0,0.0,0.0,0.0,0.0,0.0,0.0,0.0,0.0,0.0,3.0017,3.0849,2.9766,3.0017,2.9766,0.0,0.0,0.0,0.0,0.0,0.0,3.2213,3.3016,3.3897,3.4874,3.5631,3.6408,3.7153,3.797,3.896,4.0095,4.0177,4.0534,4.1151,4.0857,4.0729,4.071,4.0253,3.9223,3.7623,3.4146,3.1713,3.0117,2.9027,2.8706,2.876,2.8521,2.8913,2.9515,0.0,0.0,0.0,0.0,0.0,0.0,0.0,0.0,0.0,0.0,0.0,2.6016,2.6836,2.8457,2.9453,2.9414,2.9527,2.9192,2.8223,2.67,2.5782,0.0,0.0,0.0,0.0,0.0,0.0,3.3214,3.5773,3.7513,3.8417,3.9136,3.9097,3.8436,3.9156,3.7594,3.4295,3.1858,3.1233,3.1643,0.0,0.0,0.0,0.0,0.0,0.0,0.0,0.0,0.0,0.0,0.0,0.0,0.0,0.0,0.0,0.0,0.0,0.0,0.0,0.0,0.0,0.0,0.0,0.0,0.0,0.0,0.0,0.0,0.0,0.0,0.0,0.0,0.0,0.0,0.0,0.0,0.0,0.0,0.0,3.0733,3.1952,0.0,0.0,0.0,0.0,3.1704,3.3994,3.5786,3.672,3.7471,3.831,3.9257,4.0064,4.0848,4.168,4.2518,4.3001,4.3079,4.2965,4.2922,4.2941,4.1857,4.136,4.1283,4.0338,3.9418,3.851,3.669,3.5001,3.3394,3.1756,3.1502,3.1953,3.1053,3.1089,3.1529,0.0,0.0,0.0,0.0,0.0,0.0,0.0,0.0,0.0,2.5703,2.6191,2.707,2.8516,3.0234,3.1269,3.1211,3.1718,3.0974,2.8451,2.7683,2.6811,0.0,0.0,0.0,0.0,0.0,3.3492,3.6752,3.9328,4.103,4.1888,4.2181,4.2162,4.1888,4.2181,4.1322,3.9449,3.6345,3.3886,3.2012,3.1114,2.9752,0.0,0.0,0.0,0.0,0.0,0.0,0.0,0.0,0.0,0.0,0.0,0.0,0.0,0.0,0.0,0.0,0.0,0.0,0.0,0.0,0.0,0.0,0.0,0.0,0.0,0.0,0.0,0.0,0.0,0.0,0.0,0.0,0.0,0.0,0.0,0.0,0.0,3.3754,3.5239,0.0,0.0,3.4778,3.5389,3.597,3.7434,3.8656,3.9498,4.0285,4.1136,4.2082,4.2853,4.3289,4.3416,4.4234,4.4286,4.3559,4.3599,4.3331,4.2757,4.2353,4.1893,4.1339,4.0336,3.974,3.9399,3.8262,3.6843,3.523,3.4072,3.3658,3.3669,3.3346,3.3564,3.3994,0.0,0.0,0.0,0.0,0.0,0.0,0.0,0.0,0.0,2.5703,2.6719,2.8105,2.9844,3.2109,3.3457,3.3418,3.341,3.219,2.9329,2.7995,2.6792,0.0,2.6378,0.0,0.0,3.3442,3.6635,3.9886,4.2165,4.357,4.4145,4.4145,4.3974,4.3706,4.4013,4.3657,4.2681,4.0427,3.7458,3.4217,3.3319,3.2148,3.0804,0.0,0.0,0.0,0.0,0.0,0.0,0.0,0.0,0.0,0.0,0.0,0.0,0.0,0.0,0.0,0.0,0.0,0.0,0.0,0.0,0.0,0.0,0.0,0.0,0.0,0.0,0.0,0.0,0.0,0.0,0.0,0.0,0.0,0.0,0.0,3.5818,3.62,3.8001,3.8666,3.7288,3.8009,3.8684,3.898,4.037,4.1451,4.2028,4.2796,4.3504,4.415,4.4622,4.4787,4.461,4.5131,4.5014,4.4265,4.4331,4.4048,4.3476,4.3126,4.2533,4.1675,4.0751,3.9981,3.9328,3.8779,3.7718,3.6349,3.6111,3.5953,3.5845,3.5566,3.5814,3.6203,0.0,0.0,0.0,0.0,0.0,0.0,0.0,0.0,2.5703,2.5703,2.7246,2.9004,3.0742,3.3965,3.5996,3.5996,3.4384,3.2617,3.0867,2.7521,2.5595,0.0,0.0,0.0,3.2213,3.6403,3.9862,4.2475,4.4201,4.5046,4.5037,4.5037,4.459,4.382,4.4668,4.4569,4.3788,4.3776,4.1852,3.8573,3.5916,3.531,3.5547,0.0,0.0,0.0,0.0,0.0,0.0,0.0,0.0,0.0,0.0,0.0,0.0,0.0,0.0,0.0,0.0,0.0,0.0,0.0,0.0,0.0,0.0,0.0,0.0,0.0,0.0,0.0,0.0,0.0,0.0,0.0,0.0,0.0,3.4125,3.6993,3.8776,3.7991,4.0152,4.0727,3.8183,4.0229,4.1393,4.0633,4.279,4.4207,4.4318,4.5012,4.5438,4.549,4.5438,4.54,4.54,4.54,4.54,4.5381,4.5258,4.5192,4.5173,4.4174,4.3227,4.2332,4.1499,4.0061,3.8291,3.8249,3.7641,3.6782,3.7772,3.8319,3.8456,3.7686,3.7708,3.8032,0.0,0.0,0.0,0.0,0.0,0.0,0.0,2.5677,2.5703,2.5703,2.7773,2.9902,3.1641,3.4336,3.5996,3.5996,3.3873,3.1767,2.9959,2.7186,2.6125,0.0,0.0,0.0,3.564,3.8688,4.154,4.4204,4.5324,4.5863,4.5876,4.5876,4.5738,4.552,4.5758,4.5739,4.5505,4.5507,4.4628,4.2964,3.971,3.7438,3.5876,0.0,0.0,0.0,0.0,0.0,0.0,0.0,0.0,0.0,0.0,0.0,0.0,0.0,0.0,0.0,0.0,0.0,0.0,0.0,0.0,0.0,0.0,0.0,0.0,0.0,0.0,0.0,0.0,0.0,0.0,0.0,0.0,3.7452,3.7488,3.9279,4.0992,4.2066,4.3386,4.3962,4.3349,4.4014,4.4393,4.4107,4.4773,4.5175,4.5158,4.5357,4.5455,4.5438,4.54,4.5341,4.5277,4.5237,4.5194,4.5042,4.4991,4.4967,4.4948,4.4085,4.3113,4.2015,4.0602,3.9214,3.7958,3.7317,3.6771,3.639,3.6905,3.7367,3.7698,3.7477,3.7475,3.7524,0.0,0.0,0.0,0.0,0.0,0.0,0.0,2.5628,2.5679,2.5703,2.7949,3.0098,3.1504,3.3594,3.492,3.4911,3.2558,3.0474,2.9059,2.7489,2.7373,0.0,0.0,3.4988,3.8612,4.1228,4.3493,4.5448,4.5913,4.6171,4.6212,4.6563,4.6557,4.6214,4.6577,4.6544,4.6192,4.6202,4.5935,4.5332,4.33,4.1167,3.9073,3.7595,3.6875,3.6464,3.5213,3.5527,3.6132,3.374,0.0,0.0,0.0,0.0,0.0,0.0,0.0,0.0,0.0,0.0,0.0,0.0,0.0,0.0,0.0,0.0,0.0,0.0,0.0,0.0,0.0,0.0,0.0,0.0,3.8364,4.0549,4.1271,4.2155,4.3407,4.5152,4.5807,4.6138,4.6247,4.6007,4.5838,4.5799,4.5495,4.5285,4.5244,4.5263,4.5222,4.5178,4.5197,4.5154,4.508,4.5061,4.5033,4.4895,4.4895,4.4724,4.4383,4.3775,4.2762,0.0,4.0319,3.9024,3.7655,3.7128,3.637,0.0,0.0,0.0,0.0,0.0,3.6371,3.6164,0.0,0.0,0.0,0.0,0.0,0.0,0.0,2.5588,2.5609,2.5675,2.7831,2.9668,3.0525,3.2107,3.306,3.297,3.0739,2.9026,2.8242,2.817,2.9066,3.1096,3.5088,3.8511,4.1117,4.3635,4.5312,4.617,4.6108,4.6162,4.6348,4.7108,4.7131,4.6527,4.7293,4.7216,4.6494,4.6482,4.6493,4.6493,4.6493,4.5367,4.3359,4.0266,3.992,4.0886,3.9232,3.8332,3.7747,3.6585,0.0,0.0,0.0,0.0,0.0,0.0,0.0,0.0,0.0,0.0,0.0,0.0,0.0,0.0,0.0,0.0,0.0,0.0,0.0,0.0,0.0,0.0,0.0,0.0,4.1037,4.3188,4.4966,4.5193,4.5748,4.7226,4.7371,4.7371,4.7397,4.6682,4.6202,4.6133,4.5388,4.4871,4.4777,0.0,0.0,0.0,0.0,4.4777,4.4777,4.4777,4.4777,4.4777,4.4777,4.4399,4.3718,4.3318,4.2246,4.0739,4.0393,3.9143,3.7344,3.7253,3.6103,3.4503,3.5531,3.58,3.558,3.5359,3.4996,3.453,0.0,0.0,0.0,0.0,0.0,0.0,0.0,2.553,2.5534,2.5609,2.7279,2.8545,2.8779,3.029,3.1015,3.0316,2.9154,2.8357,2.8133,2.8741,3.081,3.4555,3.7483,4.0243,4.2864,4.4686,4.5711,4.5956,4.5947,4.6328,4.7097,4.7317,4.7696,4.8232,4.8456,4.8451,4.8295,4.8308,4.8293,4.8298,4.8307,4.644,4.3628,4.2941,4.2039,4.096,3.991,4.0791,4.2,3.9,3.9298,4.0223,3.6352,0.0,0.0,0.0,0.0,0.0,0.0,0.0,0.0,0.0,0.0,0.0,0.0,0.0,0.0,0.0,0.0,0.0,0.0,0.0,0.0,4.086,4.2604,4.4419,4.6762,4.7098,4.7154,4.7363,4.72,4.7173,4.7371,4.6788,4.6188,4.582,4.5346,4.4773,4.4132,4.4095,0.0,4.4095,4.4095,4.4095,4.4095,4.4095,4.4095,4.4095,0.0,0.0,4.3852,4.3111,4.2106,4.0892,4.0191,3.8816,3.7053,3.6386,3.4948,3.3212,3.4096,3.4368,3.4449,3.5331,3.4993,3.4116,0.0,0.0,0.0,0.0,0.0,0.0,0.0,2.5511,2.5511,2.555,2.6685,2.7514,2.7593,2.8345,2.8677,2.8237,2.7776,2.7847,2.8644,3.0704,3.3615,3.7425,4.005,4.2414,4.4548,4.5394,4.5822,4.5905,4.6332,4.6826,4.7359,4.8244,4.869,4.8775,4.9208,4.9177,4.8806,4.8806,4.8801,4.8802,4.8801,4.7782,4.6201,4.5772,4.5065,4.4187,4.3329,4.3563,4.3977,4.1783,4.1622,4.1827,3.88,3.7258,3.6203,0.0,0.0,0.0,0.0,0.0,0.0,0.0,0.0,0.0,0.0,0.0,0.0,0.0,0.0,3.676,0.0,0.0,4.1073,4.317,4.4774,4.6164,4.7441,4.7961,4.8189,4.8096,4.7978,4.7947,4.8089,4.7074,4.6294,4.6078,4.5103,4.4308,4.3931,4.3912,4.3912,4.3912,4.3912,4.3912,4.3912,4.3912,4.3912,4.3912,4.3912,4.3677,4.3287,4.2704,4.1696,4.0359,3.9849,3.8712,3.718,3.6183,3.4923,3.3687,3.3512,3.3196,3.2932,3.3522,3.3477,3.3059,0.0,0.0,0.0,0.0,0.0,0.0,0.0,0.0,0.0,2.5511,2.6113,2.6562,2.6646,2.6632,2.6635,2.6626,2.6718,2.7638,2.965,3.2841,3.6245,3.9823,4.228,4.4253,4.5761,4.5974,4.6079,4.6125,4.7004,4.7571,4.7894,4.9265,4.9663,4.9298,4.9956,4.9898,4.9294,4.9294,4.9294,4.9294,4.9294,4.9294,4.9177,4.8144,4.7657,4.7365,4.6313,4.528,4.4306,4.378,4.3006,4.2038,4.0675,3.9636,3.851,3.6493,3.5049,0.0,0.0,0.0,0.0,0.0,0.0,0.0,0.0,0.0,3.6326,3.7327,3.8437,3.9616,4.0969,4.2333,4.3707,4.5201,4.6681,4.7607,4.7607,4.8161,4.8512,4.8382,4.8547,4.8711,4.8781,4.7509,4.6607,4.6561,4.5086,4.4096,4.3929,4.3781,4.3721,4.3721,4.3721,4.3721,4.3721,4.3721,4.3721,4.3721,4.3721,4.3324,4.258,4.2328,4.1371,3.9849,3.9336,3.8474,3.7268,3.6253,3.5273,3.4379,3.3412,3.2479,3.1713,3.1788,3.193,3.1967,0.0,0.0,0.0,0.0,0.0,0.0,0.0,0.0,0.0,2.5511,2.5577,2.5669,2.5735,2.5696,2.5669,2.5666,2.6304,2.8075,3.1313,3.404,3.7406,4.1545,4.3479,4.4871,4.578,4.6554,4.696,4.6975,4.7845,4.8701,4.9537,4.9773,5.0275,5.0948,5.1089,5.1106,5.1028,5.1028,5.1028,5.1028,5.1028,5.1028,5.0852,4.9255,4.8164,4.7287,4.5631,4.3994,4.2689,4.3371,4.2949,4.2092,4.1898,4.1147,3.9862,3.7334,0.0,3.2974,3.2603,3.2596,3.3238,3.5346,3.5512,3.6449,0.0,0.0,4.0491,4.2018,4.2771,4.3219,4.3404,4.4549,4.5755,4.6636,4.7302,4.7679,4.7679,4.7752,4.7552,4.6826,4.7693,4.8458,4.8781,4.8027,4.7405,4.704,4.586,4.481,4.414,4.3413,4.3014,4.3014,4.3014,4.3014,4.3014,4.3014,4.3014,4.3014,4.3014,4.2772,4.2257,4.2217,4.1492,4.0176,3.8742,3.7681,3.6843,3.6429,3.5376,3.4054,3.3748,3.2779,3.1666,3.2097,3.1884,3.1407,0.0,0.0,0.0,0.0,0.0,0.0,0.0,0.0,0.0,0.0,2.5376,2.5412,2.5522,2.5459,2.5412,2.5484,2.6213,2.8328,3.229,3.4969,3.8295,4.257,4.4388,4.5452,4.578,4.6651,4.7096,4.7096,4.8488,4.9384,4.9802,5.0363,5.0809,5.1191,5.1256,5.13,5.13,5.13,5.13,5.13,5.13,5.0945,5.0286,4.908,4.7116,4.4841,4.3731,4.2469,0.0,4.0664,4.05,4.0527,4.0527,4.0231,3.9482,3.7275,3.6257,0.0,3.5613,3.5581,0.0,0.0,3.8594,3.9916,4.2229,4.3058,4.3498,4.414,4.5364,4.6211,4.5751,4.634,4.7037,0.0,4.7547,4.7717,4.7717,4.7053,4.6313,4.554,4.5641,4.6013,4.6705,4.647,4.6241,4.6075,4.5155,4.444,4.4114,4.3335,4.275,4.2498,4.2498,4.236,4.2098,4.2098,4.2098,4.2098,4.2098,4.1973,4.1803,4.1803,4.1004,3.9578,3.8241,3.721,3.6433,3.5732,3.4796,3.3799,3.3406,3.2572,3.1567,3.1396,3.1405,3.1378,0.0,0.0,0.0,0.0,0.0,0.0,0.0,0.0,0.0,0.0,0.0,0.0,0.0,2.5331,2.5303,2.5415,2.614,2.8135,3.1786,3.4649,3.7909,4.1738,4.3962,4.522,4.5452,4.6535,4.7096,4.7096,4.8604,4.9384,4.9453,5.0086,5.0417,5.049,5.08,5.0934,5.0953,5.1195,5.1164,5.095,5.095,5.0198,4.8971,4.763,4.5184,4.2357,4.1936,4.0557,3.8794,3.781,3.768,3.802,3.8484,3.8614,3.8356,3.7179,3.7089,3.7273,3.6938,0.0,0.0,3.965,4.1558,4.3288,4.4102,4.5221,4.612,4.6308,4.7261,4.7837,4.6994,4.7384,0.0,4.7198,4.7399,4.7437,4.7006,4.5998,4.5018,4.4252,4.3642,4.3545,4.4181,4.4659,4.4928,4.4928,4.4191,4.3724,4.3724,4.3126,4.2553,4.2032,4.2186,4.2058,4.1481,4.1481,4.1481,4.1481,4.1481,4.1437,4.1303,4.0958,4.0127,3.8866,3.758,3.6638,3.5915,3.4977,3.4264,3.374,3.3144,3.243,3.1612,3.0941,3.1052,3.1339,0.0,0.0,0.0,0.0,0.0,0.0,0.0,0.0,0.0,0.0,0.0,0.0,0.0,0.0,2.5192,2.5222,2.6063,2.7364,2.9205,3.2559,3.5646,3.8237,4.1583,4.3769,4.462,4.6245,4.7096,4.7096,4.8005,4.8474,4.8554,4.8574,4.8611,4.8708,4.9625,5.0033,5.0091,5.0934,5.0813,5.0034,5.0034,4.898,4.7096,4.4598,4.2327,4.0496,4.0681,3.8048,3.4631,3.5405,3.5051,3.4548,3.6181,3.6591,0.0,3.7281,3.6744,3.5784,0.0,0.0,3.8871,4.2061,4.4063,4.6078,4.9412,4.9136,4.8457,4.9304,4.8547,4.7464,4.6649,4.7409,4.7597,4.5998,4.6643,4.6762,4.5268,4.4437,4.3645,4.2871,4.2132,4.1675,0.0,4.3012,4.3955,4.3955,4.3188,4.273,4.273,4.2668,4.2271,4.1543,4.2219,4.2254,4.1499,4.1481,4.1481,4.1481,4.1481,4.1276,4.0767,3.962,3.8773,3.8151,3.6671,3.5712,3.5078,3.4361,3.402,3.3937,3.3271,3.2583,3.1883,3.1106,3.1036,3.1232,0.0,0.0,0.0,0.0,0.0,0.0,0.0,0.0,0.0,0.0,0.0,0.0,0.0,0.0,0.0,0.0,0.0,0.0,2.904,3.1339,3.3785,3.6439,3.9823,4.2028,4.286,4.4562,4.5993,4.7096,4.7386,4.7845,4.8435,4.849,4.8509,4.8553,4.8902,4.907,4.9079,4.9279,5.0169,5.1153,4.8237,4.7337,4.7246,4.3028,3.9542,3.6793,0.0,3.4745,3.3044,3.2215,3.2077,3.2313,3.2752,3.3237,3.4055,3.5949,3.5703,3.5652,0.0,0.0,4.2818,4.6202,4.7601,4.8584,5.0213,5.0052,4.9323,4.8516,4.7343,4.609,4.4761,4.4537,4.4403,4.3854,4.4888,4.5444,4.439,4.3738,4.2919,4.1632,4.0957,0.0,0.0,0.0,0.0,4.3089,4.3335,4.343,4.343,4.3366,4.3086,4.2528,4.2267,4.1881,4.1317,4.082,4.0563,4.0563,4.0186,3.9698,3.909,3.8253,3.7518,3.6816,3.582,3.5017,3.4309,3.371,3.3407,3.3251,3.2195,3.157,3.1106,3.0412,3.0161,2.9988,0.0,0.0,0.0,0.0,0.0,0.0,0.0,0.0,0.0,0.0,0.0,0.0,0.0,0.0,0.0,0.0,0.0,0.0,2.7616,2.9363,3.1199,3.3222,3.6335,3.8395,3.9226,4.0662,4.2086,4.346,4.346,4.3904,4.4755,4.4809,4.4989,4.5299,4.5642,4.5986,4.6266,4.6189,4.6888,4.7791,4.4659,4.3586,4.3423,3.9615,3.6444,0.0,3.26,3.1826,3.1258,3.0284,3.03,3.0758,3.0902,3.207,3.3719,3.5318,3.6048,3.7347,4.2165,4.4023,4.5367,4.875,4.9895,5.0395,5.0908,5.0326,4.9137,4.7127,4.5612,4.4031,4.1991,4.1488,4.1331,4.1313,4.2195,4.2888,4.294,4.2181,4.1405,4.0745,4.0138,0.0,0.0,0.0,0.0,4.1764,4.2037,4.215,4.215,4.2649,4.2381,4.1338,4.1562,4.1202,4.0171,3.9704,3.9454,3.9454,3.9082,3.8553,3.7945,3.7232,3.6411,3.5487,3.4574,3.3805,3.3145,3.2524,3.2195,3.2028,3.1057,3.06,3.0389,2.9889,2.9456,2.9066,0.0,0.0,0.0,0.0,0.0,0.0,0.0,0.0,0.0,0.0,0.0,0.0,0.0,0.0,0.0,0.0,0.0,0.0,2.5101,2.6737,2.8073,2.8833,3.1426,3.3284,3.4152,3.5079,3.5963,3.6814,3.6775,3.724,3.8129,3.8129,3.8593,3.9456,4.0281,4.1108,4.1873,4.1884,4.1466,4.0718,3.9615,3.8163,3.6492,3.4644,3.3179,3.1902,3.0246,2.9513,2.9353,2.9645,0.0,0.0,3.0732,3.3011,3.5465,3.559,3.7701,4.0565,4.3155,4.4839,4.6585,4.9719,5.0944,5.1409,5.1504,5.0083,4.794,4.5258,4.3315,4.1306,0.0,0.0,3.857,3.8491,3.8819,3.9581,4.0897,3.9952,3.9446,0.0,0.0,0.0,0.0,0.0,0.0,4.007,0.0,3.9251,3.9251,4.0591,4.0499,3.8545,4.0334,4.0351,3.8359,3.8311,3.8278,3.8222,3.8222,3.7866,3.7187,3.6422,3.5444,3.4195,3.2975,3.2145,3.1597,3.0837,3.0524,3.0389,2.995,2.9766,2.9704,2.9546,2.9044,2.8465,0.0,0.0,0.0,0.0,0.0,0.0,0.0,0.0,0.0,0.0,0.0,0.0,0.0,0.0,0.0,0.0,0.0,0.0,2.5101,2.6142,2.6871,2.7121,2.9605,3.1398,3.2275,3.3154,3.4334,3.5791,3.5123,3.5586,3.7088,3.7088,3.7516,3.8325,3.8546,3.8758,3.897,3.8862,3.9758,4.0952,3.7462,3.6806,3.748,3.3299,3.1393,3.0777,2.9601,0.0,0.0,0.0,0.0,0.0,0.0,3.4211,3.6109,3.8166,3.9997,4.2245,4.6103,4.8078,4.9501,5.1544,5.1673,5.1167,5.0595,4.8267,4.5445,4.2789,4.0196,3.7708,0.0,0.0,0.0,3.6662,3.8904,0.0,3.9893,4.0369,0.0,0.0,0.0,3.9924,3.9806,3.9968,0.0,0.0,4.0172,4.0114,4.0114,4.0945,4.1195,4.0718,4.017,3.9634,3.9145,3.8553,3.8067,3.7637,3.7637,3.7112,3.6045,3.4937,3.4271,3.3922,3.2168,3.1442,3.1436,3.0773,3.0269,2.9889,2.9282,2.8967,2.883,2.8705,2.8279,2.7749,0.0,0.0,0.0,0.0,0.0,0.0,0.0,0.0,0.0,0.0,0.0,0.0,0.0,0.0,0.0,0.0,0.0,0.0,0.0,2.543,2.5748,2.5843,2.7242,2.8255,2.8734,2.9262,3.017,3.1488,3.0996,3.1456,3.2795,3.2795,3.3434,3.4567,3.4567,3.4971,3.5628,3.5146,3.5749,0.0,0.0,3.3353,3.4231,3.1311,3.0044,2.9776,0.0,0.0,0.0,0.0,0.0,3.4403,3.5356,3.6912,3.8824,4.115,0.0,4.4704,4.8239,4.9919,5.0859,5.1509,5.1074,4.9919,4.7868,4.5495,4.2673,3.8933,3.6608,0.0,0.0,0.0,0.0,0.0,0.0,0.0,3.9169,3.9709,4.0107,0.0,4.0382,0.0,3.9534,3.9787,3.9708,0.0,3.9626,3.995,3.9934,4.0363,4.0366,3.9769,3.9249,3.8615,3.7757,3.7663,3.7171,3.6275,3.6275,3.573,3.4599,3.3639,3.296,3.2425,0.0,3.0362,3.0401,2.9749,2.9449,2.9352,2.8531,2.829,2.8363,2.8049,2.7761,2.7475,0.0,0.0,0.0,0.0,0.0,0.0,0.0,0.0,0.0,0.0,0.0,0.0,0.0,0.0,0.0,0.0,0.0,0.0,0.0,0.0,0.0,2.4964,2.5025,2.5076,2.5088,2.5134,2.5543,2.6301,2.6301,2.6742,2.7585,2.7585,2.8478,3.0088,3.0088,3.095,3.2354,3.1516,3.115,3.1077,2.9981,2.9533,2.9513,0.0,0.0,0.0,0.0,0.0,0.0,0.0,3.4502,3.5871,3.7969,4.0347,4.2647,4.4189,4.5667,4.7343,4.9513,5.0642,5.1099,5.0508,4.9692,4.8063,4.464,4.2344,3.9575,3.4853,0.0,3.2015,3.0192,0.0,3.1238,3.3217,0.0,3.5412,3.8717,3.8707,3.8914,4.0339,4.0431,3.995,3.8897,3.9241,3.9062,3.7963,3.8774,3.9264,3.9045,3.9109,3.8527,3.7177,3.7732,3.7235,3.5623,3.618,3.5917,3.481,3.481,3.4236,3.3258,3.2594,3.1797,3.0793,0.0,0.0,2.9292,2.8542,2.8451,2.8752,2.7864,2.7742,2.8097,2.7631,2.7471,2.7422,0.0,0.0,0.0,0.0,0.0,0.0,0.0,0.0,0.0,0.0,2.3855,2.4018,0.0,0.0,0.0,0.0,0.0,0.0,0.0,0.0,0.0,0.0,2.4856,2.4898,2.5004,0.0,0.0,0.0,0.0,2.5671,2.6488,2.6488,2.7381,2.8981,2.8981,2.9513,3.0386,3.0052,2.9906,2.9888,2.9511,2.9251,2.9097,0.0,0.0,0.0,0.0,0.0,0.0,0.0,3.683,3.8912,4.0564,4.3208,4.5753,4.6237,4.7482,4.8853,4.9442,5.0188,5.0629,4.9924,4.8232,4.6081,4.3585,3.9834,0.0,0.0,0.0,3.0074,2.8843,3.034,0.0,3.3045,0.0,0.0,0.0,0.0,3.9575,0.0,0.0,0.0,0.0,0.0,0.0,0.0,0.0,0.0,3.7321,3.7261,3.6671,3.5413,3.5434,3.5374,3.5008,3.5126,3.4913,3.438,3.438,3.3916,3.2961,3.233,3.1735,3.1144,0.0,0.0,2.9671,2.8978,2.8563,2.8367,2.7715,2.7471,2.7619,2.7912,2.7789,2.7396,0.0,0.0,0.0,0.0,0.0,0.0,0.0,2.3544,2.3494,2.3494,2.3634,2.3725,2.3725,2.3725,2.3771,0.0,0.0,0.0,0.0,0.0,0.0,0.0,0.0,0.0,0.0,0.0,0.0,0.0,0.0,0.0,0.0,0.0,0.0,0.0,0.0,0.0,0.0,2.9475,2.9436,0.0,0.0,0.0,0.0,0.0,0.0,0.0,0.0,0.0,0.0,0.0,3.5021,3.7685,4.1666,4.4389,4.6245,4.714,4.8063,4.8968,4.989,5.0417,5.0363,4.8922,4.6568,4.3885,4.0943,0.0,0.0,0.0,0.0,2.813,2.801,0.0,0.0,0.0,0.0,0.0,0.0,0.0,0.0,0.0,0.0,0.0,0.0,0.0,0.0,0.0,0.0,0.0,3.7352,3.652,3.5575,3.4624,3.4753,3.4481,3.3837,3.4249,3.3804,3.2678,3.2678,3.2177,3.1228,3.0633,3.0092,2.9654,2.9014,0.0,2.8554,2.8205,2.8161,2.8201,2.7588,2.7541,2.783,2.7691,2.7553,2.7297,0.0,0.0,0.0,0.0,0.0,0.0,0.0,2.3494,2.3494,2.3494,2.3494,2.3494,2.3494,2.3494,2.3544,0.0,0.0,0.0,0.0,0.0,0.0,0.0,0.0,0.0,0.0,0.0,0.0,0.0,0.0,0.0,0.0,0.0,0.0,0.0,0.0,0.0,0.0,0.0,0.0,0.0,0.0,0.0,0.0,0.0,0.0,0.0,0.0,0.0,0.0,0.0,3.2541,3.4995,4.0396,4.3494,4.533,4.64,4.7424,4.8487,4.9759,5.0209,4.9802,4.7696,4.4973,4.1864,3.8328,3.437,0.0,0.0,2.7899,2.7009,2.746,0.0,0.0,0.0,0.0,0.0,0.0,0.0,0.0,0.0,0.0,0.0,0.0,0.0,0.0,0.0,0.0,0.0,3.6925,3.5467,3.4337,3.3685,3.3832,3.3421,3.2349,3.2914,3.2388,3.0882,3.0882,3.043,2.9537,2.9074,2.8597,2.8194,2.7887,0.0,0.0,2.7553,2.7858,2.8159,2.7537,2.7561,2.7938,2.7383,2.7149,2.6974,0.0,0.0,0.0,0.0,0.0,0.0,0.0,2.3494,2.3494,2.3494,2.3494,2.3494,2.3494,2.3494,2.3499,0.0,0.0,0.0,0.0,0.0,0.0,0.0,0.0,0.0,0.0,0.0,0.0,0.0,0.0,0.0,0.0,0.0,0.0,0.0,0.0,0.0,0.0,0.0,0.0,0.0,0.0,0.0,0.0,0.0,0.0,0.0,0.0,0.0,0.0,0.0,0.0,3.2082,3.4801,3.9098,4.3075,4.2688,0.0,0.0,4.8048,4.8659,4.8642,4.6428,4.363,4.0476,3.7052,0.0,0.0,2.8258,2.787,2.7715,2.7146,2.7489,0.0,0.0,0.0,0.0,0.0,0.0,0.0,0.0,0.0,0.0,0.0,0.0,0.0,0.0,0.0,0.0,0.0,3.3069,3.2082,3.1536,3.1516,3.122,3.0568,3.062,3.033,2.9845,2.9845,2.9626,2.916,2.911,2.8737,2.8231,2.875,0.0,0.0,2.8138,2.814,2.8096,2.7476,2.7267,2.7301,2.7231,2.6962,2.6528,0.0,0.0,0.0,0.0,0.0,0.0,2.3494,2.3494,2.3494,2.3494,2.3494,2.3494,2.3494,2.3494,2.3494,2.3494,0.0,0.0,0.0,0.0,0.0,0.0,0.0,0.0,0.0,0.0,0.0,0.0,0.0,0.0,0.0,0.0,0.0,0.0,0.0,0.0,0.0,0.0,0.0,0.0,0.0,0.0,0.0,0.0,0.0,0.0,0.0,0.0,0.0,0.0,0.0,0.0,2.9416,3.2117,0.0,0.0,4.2104,4.4255,4.659,4.7446,4.7254,4.5561,4.2292,3.876,3.6153,0.0,0.0,2.8515,2.7199,2.6182,2.6719,2.6684,2.671,0.0,0.0,0.0,0.0,0.0,0.0,0.0,0.0,0.0,0.0,0.0,0.0,0.0,0.0,0.0,0.0,3.1151,3.0532,3.0291,3.0063,2.9833,2.9601,2.9601,2.9303,2.8791,2.8791,2.8474,2.7926,2.7926,2.7808,2.7631,2.7832,0.0,0.0,2.7614,2.7626,2.7545,2.6951,2.6787,2.6715,2.6479,2.603,2.54,0.0,0.0,0.0,0.0,0.0,2.336,2.3289,2.3247,2.3247,2.3247,2.3247,2.3247,2.3206,2.3247,2.3247,2.3206,2.3295,0.0,0.0,0.0,0.0,0.0,0.0,0.0,0.0,0.0,0.0,0.0,0.0,0.0,0.0,0.0,0.0,0.0,0.0,0.0,0.0,0.0,0.0,0.0,0.0,0.0,0.0,0.0,0.0,0.0,0.0,0.0,0.0,0.0,0.0,0.0,0.0,0.0,0.0,0.0,3.8398,4.0715,4.3602,4.5003,4.5184,4.3657,4.0459,3.7048,0.0,0.0,2.7585,2.7876,2.6502,2.5533,2.6262,2.5981,2.5649,2.5649,0.0,2.6428,0.0,0.0,0.0,0.0,0.0,0.0,0.0,0.0,0.0,0.0,0.0,0.0,0.0,2.9511,2.9081,2.925,2.9015,2.8779,2.8542,2.8542,2.8315,2.7938,2.7592,2.7267,2.6787,2.6539,2.6373,2.6373,0.0,0.0,0.0,2.629,2.6279,2.6279,2.583,2.5746,2.5663,2.5348,2.4819,2.4286,0.0,0.0,0.0,0.0,0.0,0.0,2.2756,2.2703,2.2703,2.2703,2.2703,2.266,2.2529,2.2643,2.2643,2.2529,2.2867,0.0,0.0,0.0,0.0,0.0,0.0,0.0,0.0,0.0,2.2712,2.2712,2.2712,0.0,0.0,0.0,0.0,0.0,0.0,0.0,0.0,0.0,0.0,0.0,0.0,0.0,0.0,0.0,0.0,0.0,0.0,0.0,0.0,0.0,0.0,0.0,0.0,0.0,0.0,0.0,3.3615,3.7693,3.8498,4.0652,4.2219,4.0089,3.7942,3.5376,0.0,0.0,2.7888,2.5711,2.6009,2.646,2.5836,2.5668,2.5605,2.5605,2.5752,0.0,0.0,0.0,0.0,0.0,0.0,0.0,0.0,0.0,0.0,0.0,0.0,0.0,0.0,2.8186,2.7545,2.8167,2.8179,2.7857,2.7231,2.7231,2.7231,2.7231,2.6268,2.583,2.583,2.4914,2.4498,0.0,0.0,0.0,0.0,2.4221,2.4135,2.4135,2.3932,2.3836,2.3836,2.3836,2.3511,2.3096,0.0,0.0,0.0,0.0,0.0,0.0,0.0,2.2703,2.266,2.2573,2.2573,2.2546,2.2449,2.2466,2.2412,2.2248,2.259,0.0,0.0,0.0,0.0,0.0,0.0,0.0,0.0,0.0,2.2703,2.2703,2.317,2.3384,2.3374,0.0,0.0,0.0,0.0,0.0,0.0,0.0,0.0,0.0,0.0,0.0,0.0,0.0,0.0,0.0,0.0,0.0,0.0,0.0,0.0,0.0,0.0,0.0,0.0,2.5501,0.0,0.0,3.4866,3.6027,3.6346,3.5063,3.3092,3.096,2.8879,0.0,2.612,2.5678,2.5611,2.5593,2.5607,2.5205,2.4986,2.5418,2.5354,0.0,0.0,0.0,0.0,0.0,0.0,0.0,0.0,0.0,0.0,0.0,0.0,0.0,0.0,2.6981,2.6517,2.7464,2.7545,2.7115,2.6257,2.6257,2.5924,2.5348,2.5084,2.4914,2.4914,2.4659,0.0,0.0,0.0,0.0,0.0,2.3932,2.3846,2.3846,2.3511,2.3347,2.325,2.2999,2.2482,2.1961,0.0,0.0,0.0,0.0,0.0,0.0,0.0,2.2281,2.2254,2.2181,2.2164,2.2136,2.2034,2.2079,2.2039,2.1836,2.2141,0.0,0.0,0.0,0.0,0.0,0.0,0.0,0.0,2.2364,2.2364,2.2364,2.3068,2.3338,2.3173,2.3655,2.3667,0.0,0.0,0.0,0.0,0.0,0.0,0.0,0.0,0.0,2.5465,0.0,0.0,0.0,0.0,0.0,0.0,0.0,0.0,0.0,0.0,0.0,0.0,0.0,2.5148,2.7745,0.0,3.1576,3.1974,3.1106,2.9666,0.0,0.0,0.0,2.4998,2.4839,2.4713,2.4668,2.4869,2.431,2.3916,2.4292,2.4368,0.0,0.0,0.0,0.0,0.0,0.0,0.0,0.0,0.0,0.0,0.0,0.0,0.0,0.0,0.0,2.5147,2.5924,2.5924,2.5652,2.5041,2.5041,2.4798,2.4221,2.3877,2.3704,2.3714,2.3357,0.0,0.0,0.0,0.0,0.0,2.2639,2.2639,2.2551,2.2217,2.2041,2.2041,2.1695,2.1347,2.1006,0.0,0.0,0.0,0.0,0.0,0.0,0.0,2.1634,2.1589,2.1589,2.1589,2.1542,2.1417,2.1495,2.1542,2.1417,0.0,0.0,0.0,0.0,0.0,0.0,0.0,0.0,0.0,2.1738,2.1738,2.1738,2.2514,2.2703,2.2359,2.3457,2.344,2.2423,2.2815,2.2389,0.0,0.0,0.0,0.0,0.0,0.0,0.0,0.0,0.0,0.0,0.0,0.0,0.0,0.0,0.0,0.0,0.0,0.0,0.0,0.0,0.0,0.0,0.0,2.7336,0.0,0.0,0.0,0.0,0.0,0.0,0.0,2.3295,2.3461,2.3754,2.3793,2.3113,2.2616,2.2702,0.0,0.0,0.0,0.0,0.0,0.0,0.0,0.0,0.0,0.0,0.0,0.0,0.0,0.0,0.0,0.0,2.3664,2.3664,2.3577,2.3577,2.3664,2.3664,2.3664,2.3577,2.2736,2.2306,2.2306,2.1436,0.0,0.0,0.0,0.0,0.0,2.0736,2.0654,2.0654,2.0382,2.0292,2.0292,2.0292,2.0292,2.0292,0.0,0.0,0.0,0.0,0.0,0.0,0.0,0.0,0.0,0.0,2.1464,2.1433,2.134,2.134,2.1371,0.0,0.0,0.0,0.0,0.0,0.0,0.0,0.0,0.0,0.0,2.1055,2.1055,2.1055,2.2237,2.2793,2.2702,2.3474,2.3713,2.3428,2.298,2.2611,2.241,2.307,0.0,0.0,0.0,0.0,0.0,0.0,0.0,0.0,2.2756,2.2801,0.0,0.0,0.0,0.0,0.0,0.0,0.0,0.0,2.1888,2.178,2.2401,0.0,2.3519,2.2757,2.2619,0.0,0.0,0.0,0.0,0.0,0.0,2.3334,2.348,2.301,2.2874,0.0,0.0,0.0,0.0,0.0,0.0,0.0,0.0,0.0,0.0,0.0,0.0,0.0,0.0,0.0,0.0,0.0,2.2296,2.1952,2.1427,2.1596,2.2736,2.2736,2.2385,2.1686,2.1427,2.1347,2.1347,2.1078,0.0,0.0,0.0,0.0,2.0464,2.0382,2.0382,2.0382,2.0292,2.0292,2.0292,2.0292,2.0292,2.0292,0.0,0.0,0.0,0.0,0.0,0.0,0.0,0.0,0.0,0.0,0.0,0.0,0.0,0.0,0.0,0.0,0.0,0.0,0.0,0.0,0.0,0.0,0.0,0.0,2.0794,2.0794,2.0794,2.0794,2.2153,2.2723,2.2571,2.3538,2.3701,2.3124,2.1904,2.1515,2.1741,2.2052,2.2481,2.2909,2.2863,0.0,0.0,0.0,0.0,0.0,2.2095,2.2189,0.0,2.1846,2.1908,2.2002,0.0,0.0,0.0,0.0,2.0809,2.0472,2.0472,2.1156,2.1704,2.1305,2.109,2.1003,0.0,0.0,0.0,0.0,0.0,2.258,2.2698,0.0,0.0,0.0,0.0,0.0,0.0,0.0,0.0,0.0,0.0,0.0,0.0,0.0,0.0,0.0,0.0,0.0,0.0,0.0,2.1078,2.0916,2.0473,2.0645,2.1427,2.1436,2.1168,2.0645,2.0645,2.0645,2.0645,2.0645,2.0645,0.0,0.0,0.0,2.0292,2.0292,2.0292,2.0292,2.0292,2.0201,2.0011,2.0011,1.9828,1.9563,0.0,0.0,0.0,0.0,0.0,0.0,0.0,0.0,0.0,0.0,0.0,0.0,0.0,0.0,0.0,0.0,0.0,0.0,0.0,0.0,0.0,0.0,0.0,2.0679,2.0613,2.0613,2.0675,2.0785,2.1952,2.2399,2.2169,2.334,2.3348,2.2275,2.0831,2.0393,2.0809,2.0641,2.1096,2.1945,2.1978,0.0,0.0,0.0,0.0,0.0,0.0,0.0,0.0,2.0993,2.0957,2.1166,2.0472,0.0,0.0,0.0,0.0,0.0,1.9519,2.0444,2.1394,2.1316,2.0932,2.0677,2.1064,0.0,0.0,0.0,0.0,0.0,0.0,0.0,0.0,0.0,0.0,0.0,0.0,0.0,0.0,0.0,0.0,0.0,0.0,0.0,0.0,0.0,0.0,0.0,0.0,0.0,0.0,2.0201,2.0201,2.011,1.992,2.0201,2.0201,2.0102,2.0102,2.0011,1.982,1.982,1.982,0.0,0.0,0.0,1.982,1.982,1.982,1.982,1.982,1.9538,1.9171,1.9171,1.8812,1.845,0.0,0.0,0.0,0.0,0.0,0.0,0.0,0.0,0.0,0.0,0.0,0.0,0.0,0.0,0.0,0.0,0.0,0.0,0.0,0.0,0.0,0.0,2.0227,2.0154,1.9869,1.9869,2.0156,2.0707,2.1025,2.1457,2.1929,2.2275,2.2335,2.2144,2.1868,2.1784,2.1889,2.1851,2.1903,2.2048,2.1657,0.0,0.0,0.0,0.0,0.0,0.0,0.0,0.0,2.0194,1.9952,1.972,1.9565,0.0,0.0,0.0,0.0,0.0,1.9974,2.0256,2.0366,1.992,2.0305,2.077,0.0,0.0,0.0,0.0,0.0,0.0,0.0,0.0,0.0,0.0,0.0,0.0,0.0,0.0,0.0,0.0,0.0,0.0,0.0,0.0,0.0,0.0,0.0,0.0,0.0,0.0,0.0,1.9737,1.9729,1.9171,1.8156,1.9546,1.9911,1.9072,1.9072,1.8603,1.7762,1.7762,1.7762,0.0,0.0,1.7762,1.7762,1.7762,1.7662,1.7461,1.7461,1.7282,1.7008,1.7008,1.6915,1.6828,0.0,0.0,0.0,0.0,0.0,0.0,0.0,0.0,0.0,0.0,0.0,0.0,0.0,0.0,0.0,0.0,0.0,0.0,0.0,0.0,0.0,1.9588,1.9696,1.969,1.9545,2.0012,2.0228,2.0216,2.1032,2.1485,2.1524,2.1676,2.1411,2.0874,2.0874,2.0838,2.0735,2.0832,2.1002,2.1156,0.0,0.0,0.0,0.0,0.0,0.0,0.0,0.0,0.0,0.0,1.9356,1.9368,1.9158,0.0,0.0,0.0,0.0,0.0,1.9017,1.9289,1.9528,1.9587,2.0147,2.0653,0.0,0.0,0.0,0.0,0.0,0.0,0.0,0.0,0.0,0.0,0.0,0.0,0.0,0.0,0.0,0.0,0.0,0.0,0.0,0.0,0.0,0.0,0.0,0.0,0.0,0.0,0.0,0.0,1.8041,1.7669,1.7016,1.7855,1.8033,1.7569,1.7569,1.7289,1.6915,1.6915,1.6915,1.6915,0.0,1.6915,1.6915,1.6915,1.6821,1.672,1.672,1.6438,1.6075,1.5792,1.5704,1.5704,0.0,0.0,0.0,0.0,0.0,0.0,0.0,0.0,0.0,0.0,0.0,0.0,0.0,0.0,0.0,0.0,0.0,0.0,0.0,0.0,1.9479,1.9139,1.9302,1.9376,1.9413,2.0085,2.0289,1.9981,2.0984,2.1358,2.107,2.1158,2.0758,2.0009,2.0009,1.9938,1.9865,1.9956,2.0127,2.0306,0.0,0.0,0.0,0.0,0.0,0.0,0.0,0.0,0.0,0.0,0.0,0.0,0.0,0.0,0.0,1.8637,1.8356,1.8107,1.8068,1.8486,1.8988,1.9522,0.0,0.0,0.0,0.0,0.0,0.0,0.0,0.0,0.0,0.0,0.0,0.0,0.0,0.0,0.0,0.0,0.0,0.0,0.0,0.0,0.0,0.0,0.0,0.0,0.0,0.0,0.0,0.0,0.0,0.0,1.6445,1.6163,1.588,1.588,1.5974,1.6163,1.6163,1.6075,1.5792,1.5792,1.5792,1.5792,1.5792,1.5792,1.5792,1.5792,1.5792,1.569,1.569,1.5412,1.4848,1.4376,1.4184,1.4088,0.0,0.0,0.0,0.0,0.0,0.0,0.0,0.0,0.0,0.0,0.0,0.0,0.0,0.0,0.0,0.0,0.0,0.0,0.0,0.0,1.8974,1.8577,1.9026,1.9339,1.9413,1.9594,1.9957,2.0542,2.0402,2.0454,2.0733,2.0636,2.0586,2.0646,2.0646,2.062,2.0631,2.062,2.0421,2.0042,2.0029,0.0,0.0,0.0,0.0,0.0,0.0,0.0,0.0,0.0,0.0,0.0,0.0,0.0,1.8139,1.8139,1.8139,1.8077,1.8021,1.8452,1.9011,1.9432,1.9947,0.0,2.1134,2.1048,0.0,2.1114,0.0,0.0,0.0,0.0,0.0,0.0,0.0,0.0,0.0,0.0,0.0,0.0,0.0,0.0,0.0,0.0,0.0,0.0,0.0,0.0,0.0,0.0,0.0,0.0,0.0,1.5324,1.4094,1.4094,1.4472,1.5134,1.5134,1.4669,1.3727,1.3727,1.3727,1.3727,1.3727,1.3727,1.3727,1.3727,1.3534,1.3335,1.3335,1.2948,1.217,1.1678,1.1482,1.1487,0.0,0.0,0.0,0.0,0.0,0.0,0.0,0.0,0.0,0.0,0.0,0.0,0.0,0.0,0.0,0.0,0.0,0.0,0.0,0.0,1.8669,1.85,1.8422,1.8383,1.8383,1.9608,2.002,1.9605,2.0017,2.0265,2.0385,2.0347,2.0398,2.0562,2.0562,2.0612,2.0699,2.0699,2.0435,1.9991,1.9991,1.9604,0.0,0.0,0.0,0.0,0.0,0.0,0.0,0.0,1.8259,1.8084,1.7931,1.7877,1.7822,1.7656,1.7468,1.7267,1.7102,1.7243,1.7556,1.7967,1.8396,0.0,0.0,2.0976,2.099,2.1004,0.0,0.0,0.0,0.0,0.0,0.0,0.0,0.0,0.0,0.0,0.0,0.0,0.0,0.0,0.0,0.0,0.0,0.0,0.0,0.0,0.0,0.0,0.0,0.0,0.0,1.3715,1.3238,1.3238,1.3335,1.3619,1.3619,1.3431,1.3055,1.3055,1.3055,1.3055,1.3055,1.3055,1.3055,1.3055,1.2856,1.2365,1.2073,1.178,1.1487,1.1292,1.1194,1.1194,0.0,0.0,0.0,0.0,0.0,0.0,0.0,0.0,0.0,0.0,0.0,0.0,0.0,0.0,0.0,0.0,0.0,0.0,1.8898,1.8669,1.8383,1.8108,1.7908,1.7666,1.738,1.8974,1.9503,1.8943,1.9718,2.0131,2.0182,2.0182,2.0296,2.0511,2.0562,2.0612,2.0699,2.0662,2.0385,1.9901,1.967,1.9162,0.0,0.0,0.0,0.0,0.0,0.0,0.0,0.0,1.792,1.781,1.7601,1.7545,1.749,1.7145,1.6899,1.6595,1.613,1.6181,1.6437,1.6782,0.0,0.0,2.0001,2.0461,2.0592,0.0,0.0,0.0,0.0,0.0,0.0,0.0,0.0,0.0,0.0,0.0,0.0,0.0,0.0,0.0,0.0,0.0,0.0,0.0,0.0,0.0,0.0,0.0,0.0,0.0,1.2861,1.2764,1.2565,1.2565,1.2467,1.2273,1.2273,1.2467,1.2764,1.2764,1.2662,1.2565,1.2565,1.2467,1.2273,1.2273,1.2078,1.1678,1.1123,1.0844,1.09,1.0801,1.0708,1.0609,0.0,0.0,0.0,0.0,0.0,0.0,0.0,0.0,0.0,0.0,0.0,0.0,0.0,0.0,0.0,0.0,0.0,0.0,1.85,1.85,1.8108,1.724,1.7598,1.738,1.6522,1.7501,1.8247,1.8773,1.9458,1.9952,2.0169,2.0169,2.0296,2.0511,2.0649,2.0712,2.0712,2.0562,2.0246,1.9747,1.8992,1.8459,1.8038,0.0,0.0,0.0,0.0,0.0,0.0,0.0,1.7479,1.719,1.7267,1.7278,1.7155,1.6673,1.6492,1.6255,1.5196,1.5323,1.5841,0.0,0.0,0.0,1.9065,1.9371,1.9707,0.0,0.0,0.0,0.0,0.0,0.0,0.0,0.0,0.0,0.0,0.0,0.0,0.0,0.0,0.0,0.0,0.0,0.0,0.0,0.0,0.0,0.0,0.0,0.0,0.0,1.2764,1.2565,1.1975,1.198,1.1683,1.1194,1.1194,1.178,1.2759,1.2759,1.2467,1.198,1.198,1.1688,1.1194,1.1194,1.1194,1.1077,1.0386,1.0237,1.0314,0.9821,0.9628,0.9628,0.0,0.0,0.0,0.0,0.0,0.0,0.0,0.0,0.0,0.0,0.0,0.0,0.0,0.0,0.0,0.0,0.0,0.0,1.8028,1.776,1.7475,1.7199,1.6976,1.6765,1.6522,1.7207,1.7822,1.838,1.8956,1.9258,1.9371,1.9371,1.9623,2.0144,2.0195,2.0246,2.0334,2.0283,1.9798,1.8992,1.8768,1.819,1.7457,0.0,0.0,0.0,0.0,0.0,0.0,0.0,0.0,0.0,1.6987,1.6694,1.641,1.6066,1.5526,1.4991,1.4529,1.476,0.0,0.0,0.0,0.0,0.0,1.9359,0.0,0.0,0.0,0.0,0.0,0.0,0.0,0.0,0.0,0.0,0.0,0.0,0.0,0.0,0.0,0.0,0.0,0.0,0.0,0.0,0.0,0.0,0.0,0.0,0.0,0.0,1.1722,1.1355,1.1259,1.141,1.1312,1.0972,1.1123,1.1389,1.1683,1.1683,1.1585,1.1487,1.1487,1.1389,1.1194,1.0801,1.0609,1.06,0.9955,0.9772,0.9821,0.943,0.9331,0.9331,0.0,0.0,0.0,0.0,0.0,0.0,0.0,0.0,0.0,0.0,0.0,0.0,0.0,0.0,0.0,0.0,0.0,0.0,0.0,1.7323,1.7115,1.6947,1.665,1.6522,1.6522,1.7087,1.7438,1.7539,1.8317,1.8819,1.8983,1.9069,1.9422,1.999,2.0042,2.0029,1.9862,1.9811,1.9319,1.8501,1.8232,1.7754,1.7179,0.0,0.0,0.0,0.0,0.0,0.0,0.0,0.0,0.0,1.6705,1.6296,1.5894,1.5488,1.4902,1.4336,1.4196,0.0,0.0,0.0,0.0,0.0,0.0,0.0,0.0,0.0,0.0,0.0,0.0,0.0,0.0,0.0,0.0,0.0,0.0,0.0,0.0,0.0,0.0,0.0,0.0,0.0,0.0,0.0,0.0,0.0,0.0,0.0,0.0,0.0,1.1014,1.0754,1.0472,1.06,1.0541,1.0305,1.043,1.0529,1.0609,1.0998,1.1049,1.0775,1.0586,1.0533,1.0498,1.0056,0.9888,0.9908,0.9466,0.9259,0.9237,0.9106,0.8992,0.8935,0.0,0.0,0.0,0.0,0.0,0.0,0.0,0.0,0.0,0.0,0.0,0.0,0.0,0.0,0.0,0.0,0.0,0.0,0.0,0.0,1.6947,1.6522,1.6522,1.6522,1.6522,1.7036,1.7049,1.6522,1.7601,1.8405,1.8908,1.9043,1.9408,1.999,2.008,1.9811,1.9319,1.9174,1.8738,1.8124,1.7468,1.7146,1.7045,1.6591,0.0,0.0,0.0,0.0,0.0,0.0,0.0,0.0,1.6327,1.6029,1.5498,1.501,1.4478,1.415,1.4072,0.0,0.0,0.0,0.0,0.0,0.0,0.0,0.0,0.0,0.0,0.0,0.0,0.0,0.0,0.0,0.0,0.0,0.0,0.0,0.0,0.0,0.0,0.0,0.0,0.0,0.0,0.0,0.0,0.0,0.0,0.0,0.0,0.0,1.056,1.0274,0.9811,0.9828,0.9635,0.0,0.9324,0.9417,0.9579,1.0574,1.066,0.9992,0.9536,0.9437,0.9453,0.9135,0.9096,0.9056,0.8835,0.8619,0.8586,0.8728,0.8691,0.8568,0.0,0.0,0.0,0.0,0.0,0.0,0.0,0.0,0.0,0.0,0.0,0.0,0.0,0.0,0.0,0.0,0.0,0.0,0.0,0.0,1.6607,1.6522,1.6522,1.6522,1.6522,1.6635,1.6635,1.6522,1.7225,1.784,1.838,1.838,1.8943,1.9811,1.9448,1.9198,1.9028,1.8536,1.7972,1.7413,1.7246,1.6944,1.6534,1.6431,1.6384,0.0,0.0,0.0,0.0,0.0,0.0,0.0,1.5972,1.5488,1.4961,1.4488,1.4001,1.3649,0.0,0.0,0.0,0.0,0.0,0.0,0.0,0.0,0.0,0.0,0.0,0.0,0.0,0.0,0.0,0.0,0.0,0.0,0.0,0.0,0.0,0.0,0.0,0.0,0.0,0.0,0.0,0.0,0.0,0.0,0.0,0.0,0.0,1.0111,0.9505,0.915,0.9063,0.9208,0.9132,0.0,0.9084,0.9075,0.8918,0.9536,0.9602,0.9345,0.9104,0.9013,0.891,0.8652,0.8573,0.8536,0.846,0.8457,0.84,0.8244,0.8142,0.8117,0.0,0.0,0.0,0.0,0.0,0.0,0.0,0.0,0.0,0.0,0.0,0.0,0.0,0.0,0.0,0.0,0.0,0.0,0.0,0.0,1.6362,1.6362,1.6362,1.6392,1.6436,1.6436,1.6479,1.6522,1.7099,1.7664,1.8204,1.8204,1.8635,1.9396,1.9146,1.8655,1.8081,1.7571,1.7126,1.6821,1.6597,1.6437,1.6384,1.6384,1.6384,1.6384,1.6384,0.0,0.0,0.0,0.0,0.0,0.0,0.0,1.4478,1.4061,1.3752,1.3484,0.0,0.0,0.0,0.0,0.0,0.0,0.0,0.0,0.0,0.0,0.0,0.0,0.0,0.0,0.0,0.0,0.0,0.0,0.0,0.0,0.0,0.0,0.0,0.0,0.0,0.0,0.0,0.0,0.0,0.0,0.0,0.9547,0.9276,0.9293,0.8931,0.8698,0.8698,0.8701,0.8651,0.8643,0.8647,0.8506,0.8413,0.8687,0.882,0.8718,0.8633,0.8535,0.852,0.8351,0.8273,0.8243,0.8069,0.8088,0.7969,0.7879,0.7688,0.7584,0.0,0.0,0.0,0.0,0.0,0.0,0.0,0.0,0.0,0.0,0.0,0.0,0.0,0.0,0.0,0.0,0.0,0.0,0.0,0.0,0.0,1.62,1.62,1.6231,1.6362,1.6392,1.6485,1.6616,1.7105,1.7668,0.0,1.8342,1.8573,1.8987,1.8881,1.8221,1.706,1.658,1.6275,1.6105,1.5732,1.5846,1.626,1.626,1.6312,1.6384,1.6384,1.6384,1.6384,1.6384,0.0,0.0,0.0,0.0,1.4121,1.3631,1.339,1.3275,0.0,0.0,0.0,0.0,0.0,0.0,0.0,0.0,0.0,0.0,0.0,0.0,0.0,0.0,0.0,0.0,0.0,0.0,0.0,0.0,0.0,0.0,0.0,0.0,0.0,0.0,0.0,0.0,0.0,0.0,0.9192,0.8877,0.8714,0.8572,0.8564,0.8564,0.8564,0.8292,0.8275,0.8419,0.8151,0.797,0.797,0.797,0.804,0.8344,0.8147,0.8162,0.8247,0.8026,0.7865,0.7784,0.765,0.7499,0.7429,0.7426,0.7237,0.7028,0.0,0.0,0.0,0.0,0.0,0.0,0.0,0.0,0.0,0.0,0.0,0.0,0.0,0.0,0.0,0.0,0.0,0.0,0.0,0.0,0.0,1.62,1.62,1.62,1.6244,1.6362,1.6629,1.7102,1.7215,0.0,0.0,0.0,0.0,1.8999,1.8429,1.7583,1.6547,1.6028,1.5548,1.5183,1.5121,1.537,1.5784,1.5784,1.6032,1.6384,1.6384,1.6384,1.6384,1.6384,1.6249,0.0,0.0,0.0,1.3974,1.2964,1.2666,1.2613,0.0,0.0,0.0,0.0,0.0,0.0,0.0,0.0,0.0,0.0,0.0,0.0,0.0,0.0,0.0,0.0,0.0,0.0,0.0,0.0,0.0,0.0,0.0,0.0,0.0,0.0,0.0,0.0,0.0,0.0,0.8656,0.8677,0.8593,0.8568,0.838,0.8288,0.8288,0.8028,0.7955,0.7974,0.7712,0.7539,0.7539,0.7351,0.7539,0.7927,0.7865,0.7761,0.7563,0.7358,0.7272,0.72,0.7005,0.6923,0.685,0.6665,0.6573,0.648,0.0,0.0,0.0,0.0,0.0,0.0,0.0,0.0,0.0,0.0,0.0,0.0,0.0,0.0,0.0,0.0,0.0,0.0,0.0,0.0,0.0,1.5981,1.5981,1.6013,1.61,1.6132,1.6342,1.6633,0.0,0.0,0.0,1.8554,1.8706,0.0,0.0,0.0,1.6433,1.5904,1.5722,1.5753,1.5484,1.5659,1.6073,1.6073,1.6208,1.6384,1.6384,1.6316,1.6249,1.6249,1.5941,1.5468,1.4579,0.0,0.0,0.0,0.0,0.0,0.0,0.0,0.0,0.0,0.0,0.0,0.0,0.0,0.0,0.0,0.0,0.0,0.0,0.0,0.0,0.0,0.0,0.0,0.0,0.0,0.0,0.0,0.0,0.0,0.0,0.0,0.0,0.0,0.0,0.8524,0.8418,0.8328,0.8285,0.838,0.802,0.7884,0.7884,0.772,0.7591,0.7408,0.7323,0.7234,0.7234,0.7058,0.7143,0.7411,0.7303,0.7207,0.7061,0.6789,0.6697,0.6697,0.6612,0.6662,0.6722,0.6459,0.6391,0.6358,0.0,0.0,0.0,0.0,0.0,0.0,0.0,0.0,0.0,0.0,0.0,0.0,0.0,0.0,0.0,0.0,0.0,0.0,0.0,0.0,0.0,1.5792,1.5792,1.5897,1.6151,1.6061,1.6178,1.6549,0.0,0.0,1.7223,1.796,1.8032,0.0,1.7776,1.7269,0.0,0.0,0.0,1.6001,1.5649,1.5784,1.6208,1.6198,1.6213,1.6316,1.6316,1.6192,1.6066,1.6066,1.571,1.5177,1.4323,1.3795,0.0,0.0,0.0,0.0,0.0,0.0,0.0,0.0,0.0,0.0,0.0,0.0,0.0,0.0,0.0,0.0,0.0,0.0,0.0,0.0,0.0,0.0,0.0,0.0,0.0,0.0,0.0,0.0,0.0,0.0,0.0,0.0,0.0,0.8283,0.8143,0.7974,0.7862,0.7982,0.7688,0.7455,0.7455,0.7325,0.7229,0.7088,0.6997,0.7017,0.7054,0.6792,0.6789,0.6874,0.6789,0.6704,0.6704,0.652,0.6428,0.6428,0.6343,0.6406,0.6485,0.6293,0.6233,0.6125,0.0,0.0,0.0,0.0,0.0,0.0,0.0,0.0,0.0,0.0,0.0,0.0,0.0,1.5792,1.5792,1.5792,0.0,0.0,0.0,0.0,0.0,1.5792,1.5792,0.0,1.657,1.6211,1.6487,0.0,0.0,0.0,1.7484,1.7062,1.683,1.6684,1.7045,1.6697,1.5722,0.0,0.0,0.0,1.5038,1.5308,1.5722,1.5536,1.5736,0.0,0.0,0.0,1.5914,1.5914,1.5798,1.543,1.4136,1.3606,1.3268,0.0,0.0,0.0,0.0,0.0,0.0,0.0,0.0,0.0,0.0,0.0,0.0,0.0,0.0,0.0,0.0,0.0,0.0,0.0,0.0,0.0,0.0,0.0,0.0,0.0,0.0,0.0,0.0,0.0,0.0,0.0,0.0,0.7714,0.7702,0.7544,0.7465,0.7477,0.7213,0.7123,0.7123,0.6885,0.6797,0.6939,0.6675,0.666,0.6792,0.6523,0.6432,0.6428,0.6432,0.6432,0.6432,0.6428,0.6428,0.6343,0.6169,0.6086,0.6091,0.5822,0.5738,0.5744,0.0,0.0,0.0,0.0,0.0,0.0,0.0,0.0,0.0,0.0,0.0,0.0,0.0,1.5792,1.5792,1.5792,1.5792,0.0,0.0,0.0,0.0,1.5792,1.6116,1.638,1.6618,1.6149,0.0,0.0,0.0,1.5637,1.594,1.6138,1.6174,1.6192,1.6786,1.6634,1.6002,1.6069,0.0,0.0,0.0,0.0,0.0,0.0,0.0,0.0,0.0,0.0,0.0,1.5798,1.5371,1.4765,1.3855,1.3252,1.2704,0.0,0.0,0.0,0.0,0.0,0.0,0.0,0.0,0.0,0.0,0.0,0.0,0.0,0.0,0.0,0.0,0.0,0.0,0.0,0.0,0.0,0.0,0.0,0.0,0.0,0.0,0.0,0.0,0.0,0.0,0.0,0.0,0.0,0.7288,0.7127,0.7093,0.7191,0.6848,0.6763,0.6864,0.6525,0.647,0.6609,0.6452,0.6439,0.6489,0.631,0.6169,0.6169,0.6002,0.6088,0.6169,0.5994,0.5997,0.5905,0.5908,0.5819,0.5822,0.5733,0.5733,0.5552,0.0,0.0,0.0,0.0,0.0,0.0,0.0,0.0,0.0,0.0,0.0,0.0,0.0,0.0,1.5792,1.5792,1.5792,1.5792,1.5792,1.5792,1.5792,1.5792,1.6128,1.6429,1.6575,1.6279,0.0,0.0,0.0,0.0,0.0,1.5388,1.5573,1.572,1.612,1.6198,0.0,0.0,0.0,1.6202,0.0,0.0,1.6009,0.0,0.0,0.0,0.0,0.0,0.0,0.0,0.0,0.0,0.0,0.0,0.0,0.0,0.0,0.0,0.0,0.0,0.0,0.0,0.0,0.0,0.0,0.0,0.0,0.0,0.0,0.0,0.0,0.0,0.0,0.0,0.0,0.0,0.0,0.0,0.0,0.0,0.0,0.0,0.0,0.0,0.0,0.0,0.0,0.0,0.6961,0.672,0.669,0.6789,0.6451,0.6368,0.6468,0.6134,0.6077,0.621,0.6145,0.6135,0.6181,0.6054,0.594,0.5946,0.5816,0.583,0.5908,0.5738,0.5738,0.5733,0.5735,0.5646,0.5644,0.5644,0.5371,0.4921,0.0,0.0,0.0,0.0,0.0,0.0,0.0,0.0,0.0,1.5792,0.0,0.0,0.0,0.0,0.0,1.584,1.584,1.584,1.584,1.584,1.5828,1.5816,0.0,0.0,0.0,0.0,0.0,0.0,0.0,0.0,0.0,0.0,1.5,1.5391,1.515,1.5322,1.5914,0.0,1.5904,1.5914,0.0,1.5914,1.5856,0.0,0.0,0.0,1.5498,1.5439,0.0,0.0,0.0,0.0,0.0,0.0,0.0,0.0,0.0,0.0,0.0,0.0,0.0,0.0,0.0,0.0,0.0,0.0,0.0,0.0,0.0,0.0,0.0,0.0,0.0,0.0,0.0,0.0,0.0,0.0,0.0,0.0,0.0,0.0,0.0,0.0,0.0,0.0,0.0,0.6563,0.6563,0.6409,0.6254,0.6254,0.6015,0.5857,0.5857,0.5712,0.5701,0.5907,0.5767,0.5758,0.588,0.5675,0.5656,0.5673,0.5606,0.5557,0.5555,0.5573,0.557,0.5555,0.5563,0.5471,0.5282,0.5282,0.4563,0.3578,0.0,0.0,0.0,0.0,0.0,0.0,0.0,0.0,1.5792,0.0,0.0,0.0,1.632,1.6703,1.6979,1.6979,1.6979,1.6979,1.6979,1.6979,1.6763,1.638,1.6727,1.6693,1.6061,0.0,0.0,0.0,0.0,0.0,0.0,0.0,0.0,0.0,1.5027,1.5133,1.5517,1.5495,0.0,0.0,1.5798,1.574,0.0,0.0,0.0,0.0,0.0,1.6094,0.0,0.0,1.5263,1.4653,0.0,0.0,0.0,0.0,0.0,0.0,1.1185,0.0,0.0,0.0,0.0,0.0,0.0,0.0,0.0,0.0,0.0,0.0,0.0,0.0,0.0,0.0,0.0,0.0,0.0,0.0,0.0,0.0,0.0,0.0,0.0,0.0,0.0,0.0,0.6641,0.6563,0.6412,0.6073,0.5937,0.5937,0.5714,0.5645,0.5651,0.552,0.5511,0.5714,0.5328,0.4568,0.344,0.3606,0.4453,0.5583,0.3851,0.2914,0.2679,0.358,0.34,0.259,0.2949,0.3038,0.3037,0.3037,0.2769,0.2412,0.0,0.0,0.0,0.0,0.0,0.0,1.5513,1.5525,1.557,0.0,0.0,0.0,1.6895,1.6978,1.7107,1.7363,1.7412,1.7412,1.7412,1.7014,1.661,1.6303,1.6382,1.6098,1.5527,1.5774,0.0,0.0,0.0,0.0,0.0,0.0,0.0,0.0,0.0,0.0,0.0,0.0,0.0,0.0,1.5753,0.0,0.0,1.5336,1.542,0.0,0.0,0.0,1.5991,1.5145,1.4487,0.0,0.0,0.0,0.0,0.0,0.0,0.0,0.0,0.0,0.0,0.0,0.0,0.0,0.0,1.0938,0.0,0.0,0.0,0.0,0.0,0.0,0.0,0.0,0.0,0.0,0.0,0.0,0.0,0.0,0.0,0.0,0.0,0.0,0.0,0.6388,0.6451,0.6412,0.618,0.5809,0.5732,0.5813,0.5532,0.5464,0.5607,0.4678,0.419,0.4318,0.4785,0.4008,0.224,0.1654,0.203,0.3005,0.2183,0.1233,0.0353,0.106,0.1509,0.1696,0.1697,0.1787,0.1967,0.1967,0.1699,0.1163,0.0,0.0,0.0,1.5445,1.5402,1.5404,1.5279,1.5234,1.5417,0.0,1.6428,1.6979,1.7448,1.7038,1.6962,1.7531,1.7592,1.7592,1.7543,1.6713,1.618,1.6122,1.553,1.511,1.4966,1.5711,1.5673,0.0,0.0,0.0,0.0,0.0,0.0,0.0,0.0,0.0,0.0,0.0,0.0,1.5332,1.5559,1.5661,0.0,0.0,1.4876,0.0,1.4214,1.4569,1.5177,1.4288,1.3336,0.0,0.0,0.0,0.0,0.0,1.1497,0.0,0.0,0.0,0.0,0.0,0.0,0.0,1.0678,1.0672,1.0675,0.0,0.0,0.0,0.0,0.0,0.0,0.0,0.0,0.0,0.0,0.0,0.0,0.0,0.0,0.0,0.0,0.6145,0.6148,0.6003,0.6132,0.613,0.5816,0.5613,0.5547,0.5709,0.5152,0.5079,0.5423,0.3703,0.2525,0.2104,0.3608,0.3379,0.157,-0.0,-0.0752,-0.0673,0.0523,0.0176,-0.1302,-0.1388,-0.0175,0.1603,0.098,0.0982,0.1432,0.1432,0.0806,-0.0179,0.0,0.0,1.5957,1.5736,1.6037,1.6323,1.6323,1.6241,1.6448,1.7003,1.7568,1.7941,1.8037,1.8319,1.857,1.8686,1.8686,1.8634,1.8541,1.8341,1.7989,1.7451,1.6854,1.614,1.5216,1.539,1.5134,1.4402,0.0,0.0,0.0,0.0,0.0,0.0,0.0,0.0,0.0,0.0,0.0,1.4594,1.4541,0.0,1.4817,1.4001,1.4073,1.4587,1.4443,1.477,1.5116,0.0,1.3515,1.2401,0.0,0.0,0.0,0.0,0.0,0.0,0.0,0.0,0.0,0.0,0.0,0.0,1.0962,1.0909,1.0725,0.0,0.0,0.0,0.0,0.0,0.0,0.0,0.0,0.0,0.0,0.0,0.0,0.0,0.0,0.0,0.0,0.5899,0.5916,0.5844,0.5732,0.5603,0.5453,0.5191,0.5053,0.5059,0.3536,0.3327,0.4577,0.4556,0.2786,-0.0533,-0.0233,-0.0078,-0.0157,-0.0872,-0.1207,-0.1148,-0.091,-0.1004,-0.1272,-0.1272,-0.1116,-0.07,-0.0874,-0.0883,-0.0807,-0.0807,-0.0896,-0.1169,0.0,0.0,1.5108,1.5034,1.5233,1.5586,1.6138,1.618,1.6339,1.6898,1.7139,1.7647,1.8514,1.8513,1.8614,1.8987,1.8602,1.8333,1.8356,1.7497,1.6851,1.6503,1.59,1.5372,1.4824,1.491,1.4916,1.4658,0.0,0.0,0.0,0.0,0.0,0.0,0.0,0.0,0.0,0.0,1.5018,1.4994,1.4622,0.0,1.437,1.3684,1.3685,1.3987,1.3562,1.3517,1.3757,1.3847,1.312,0.0,0.0,1.1901,1.1594,0.0,1.172,1.1677,0.0,0.0,0.0,1.165,0.0,0.0,0.0,1.0725,1.0305,0.0,0.0,0.0,0.0,0.0,0.0,0.0,0.0,0.0,0.0,0.0,0.0,0.0,0.0,0.0,0.0,0.565,0.5654,0.5656,0.5378,0.5234,0.5162,0.483,0.4415,0.3711,0.3367,0.2894,0.2146,0.1932,0.0761,-0.1312,-0.1328,-0.1178,-0.0943,-0.1193,-0.1288,-0.1303,-0.1318,-0.1325,-0.1325,-0.1325,-0.1335,-0.1351,-0.1379,-0.1399,-0.1414,-0.1429,-0.1436,-0.1438,1.4709,0.0,0.0,1.4654,1.4618,1.4961,1.5921,1.6,1.6055,1.6519,1.6841,1.7515,1.8935,0.0,0.0,1.8951,1.8225,1.7778,0.0,0.0,0.0,1.5507,1.4963,1.4592,1.4516,1.4664,1.4784,1.4921,0.0,0.0,0.0,0.0,0.0,0.0,0.0,0.0,0.0,0.0,0.0,1.5149,0.0,1.4513,1.4393,1.3693,1.3404,1.339,1.2592,1.2305,1.2338,1.2878,0.0,1.1911,1.167,1.1527,0.0,0.0,0.0,0.0,0.0,0.0,0.0,0.0,0.0,1.1378,0.0,0.0,0.0,0.919,0.0,0.0,0.0,0.0,0.0,0.0,0.0,0.0,0.0,0.0,0.0,0.0,0.0,0.0,0.0,0.5474,0.5458,0.5361,0.5086,0.4873,0.4876,0.4641,0.382,0.2498,0.3084,0.2283,-0.0215,-0.0948,-0.1272,-0.1317,-0.133,-0.1335,-0.1336,-0.1283,-0.1294,-0.1295,-0.132,-0.1316,-0.1294,-0.1294,-0.1294,-0.13,-0.1358,-0.1385,-0.1394,-0.1424,-0.1436,-0.1436,1.5415,1.5591,0.0,0.0,1.6216,1.6392,1.7035,1.6602,1.6437,1.6894,1.8258,0.0,0.0,0.0,0.0,0.0,0.0,0.0,1.7735,0.0,0.0,1.6722,1.6128,1.5663,1.5293,1.4923,1.4666,1.4575,1.4666,0.0,0.0,0.0,0.0,0.0,1.446,0.0,0.0,0.0,1.4232,0.0,1.3603,1.4229,0.0,1.3638,1.3206,1.339,1.2592,1.2157,1.207,0.0,1.2251,1.2024,0.0,1.2058,0.0,0.0,0.0,0.0,0.0,0.0,0.0,0.0,1.171,0.0,0.0,0.0,0.9364,0.77,0.0,0.6863,0.628,0.0,0.0,0.0,0.0,0.0,0.0,0.0,0.0,0.0,0.0,0.0,0.0,0.0,0.5055,0.4873,0.4739,0.4537,0.4408,0.4336,0.365,0.2225,0.1035,-0.0,-0.0953,-0.1167,-0.1271,-0.1177,-0.1308,-0.1335,-0.1335,-0.1261,-0.1262,-0.1262,-0.1266,-0.1266,-0.1262,-0.1262,-0.1262,-0.1269,-0.1329,-0.1368,-0.1394,-0.1424,-0.1436,-0.1439,1.4178,1.4475,0.0,0.0,1.531,1.5886,1.7081,1.7143,1.7111,1.7226,0.0,0.0,0.0,0.0,0.0,0.0,0.0,0.0,0.0,0.0,0.0,0.0,0.0,0.0,1.52,1.525,1.5136,1.4854,1.4906,1.4906,0.0,0.0,0.0,0.0,1.4623,0.0,1.4101,0.0,0.0,0.0,0.0,0.0,0.0,1.3171,1.2403,1.2439,1.2077,1.1929,1.1855,0.0,1.2003,0.0,0.0,0.0,0.0,0.0,0.0,0.0,0.0,0.0,0.0,0.0,0.0,0.0,0.0,0.0,0.836,0.0,0.0,0.0,0.0,0.0,0.0,0.0,0.0,0.0,0.0,0.0,0.0,0.0,0.0,0.0,0.0,0.0,0.0,0.0,0.0,0.4259,0.4202,0.4273,0.3567,0.1882,0.0204,-0.0692,-0.0776,-0.1094,-0.1272,-0.1296,-0.1322,-0.1335,-0.1335,-0.1335,-0.1336,-0.1493,-0.1493,-0.1572,-0.165,-0.165,-0.165,-0.1656,-0.163,-0.1506,-0.1369,-0.1573,-0.1598,-0.1617,1.3451,0.0,0.0,0.0,0.0,0.0,1.643,1.6985,0.0,0.0,0.0,0.0,1.9033,1.9277,0.0,0.0,0.0,1.8291,0.0,0.0,1.7012,0.0,0.0,0.0,0.0,0.0,1.5551,1.5258,1.5258,1.5258,0.0,0.0,0.0,0.0,0.0,1.4602,1.3911,0.0,0.0,1.4162,1.4162,1.4291,1.4227,1.2792,1.2003,1.1706,1.1706,1.1632,1.1632,1.1706,1.1781,0.0,1.1706,0.0,0.0,0.0,0.0,0.0,1.1727,0.0,0.0,0.0,0.0,0.0,0.0,0.0,0.0,0.0,0.0,0.0,0.0,0.0,0.5456,0.0,0.0,0.0,0.0,0.0,0.0,0.0,0.0,0.0,0.0,0.0,0.0,0.0,0.0,0.0,0.4129,0.3682,0.2867,0.1614,-0.0203,-0.0972,-0.0721,-0.1097,-0.1276,-0.1245,-0.1254,-0.1335,-0.1335,-0.1336,-0.1493,-0.1572,-0.165,-0.1729,-0.1887,-0.1887,-0.1887,-0.1891,-0.1933,-0.1731,-0.1519,-0.181,-0.185,-0.1974,1.418,1.4814,0.0,0.0,0.0,0.0,0.0,0.0,0.0,0.0,0.0,0.0,0.0,0.0,0.0,0.0,0.0,1.6932,1.7001,0.0,1.7485,0.0,0.0,0.0,0.0,0.0,0.0,1.567,0.0,0.0,0.0,0.0,0.0,0.0,0.0,1.5136,1.4262,1.4345,1.3549,1.2346,1.2346,1.2024,1.1626,0.0,1.2358,1.1706,1.1706,0.0,0.0,1.1632,1.1558,0.0,0.0,0.0,0.0,0.0,0.0,0.0,0.0,0.0,0.0,1.1449,0.0,0.0,0.0,0.0,0.6982,0.0,0.0,0.0,0.0,0.53,0.5138,0.4672,0.0,0.0,0.0,0.0,0.0,0.0,0.0,0.0,0.0,0.0,0.0,0.0,0.0,0.0,0.4124,0.2251,0.1303,0.1613,-0.0207,-0.1191,-0.1053,-0.1255,-0.1287,-0.1213,-0.1243,-0.1335,-0.1335,-0.1493,-0.1572,-0.1572,-0.1808,-0.1887,-0.1887,-0.1887,-0.1887,-0.1891,-0.1933,-0.1977,-0.2023,-0.2069,-0.2115,-0.2154,0.0,0.0,0.0,0.0,0.0,0.0,0.0,1.6249,0.0,0.0,0.0,0.0,0.0,0.0,1.9453,0.0,0.0,1.8537,1.8327,1.8104,0.0,0.0,0.0,1.6775,0.0,0.0,0.0,0.0,0.0,0.0,0.0,0.0,0.0,0.0,0.0,1.4799,0.0,0.0,0.0,0.0,0.0,1.1972,1.126,0.0,0.0,1.1335,1.1335,1.126,0.0,1.126,1.1335,1.144,1.1557,1.1564,1.1596,1.1563,1.1407,0.0,0.0,0.0,1.0911,1.1006,0.0,0.0,0.0,0.0,0.0,0.0,0.0,0.0,0.0,0.0,0.4934,0.4776,0.4558,0.0,0.0,0.0,0.0,0.0,0.0,0.0,0.0,0.0,0.0,0.0,0.0,0.0,0.0,0.1655,0.0718,-0.0135,-0.0829,-0.1131,-0.1151,-0.1191,-0.1222,-0.1242,-0.1252,-0.1336,-0.1493,-0.1572,-0.1728,-0.204,-0.2041,-0.2198,-0.2276,-0.2276,-0.2276,-0.2282,-0.2336,-0.2391,-0.2446,-0.2415,-0.238,-0.2424,1.535,0.0,0.0,0.0,0.0,0.0,0.0,0.0,0.0,0.0,1.7812,0.0,1.9165,0.0,1.9419,0.0,1.9114,1.8834,1.8839,1.8478,0.0,1.8037,1.7653,0.0,0.0,0.0,0.0,0.0,0.0,1.6165,0.0,0.0,0.0,0.0,0.0,0.0,0.0,0.0,1.352,0.0,0.0,1.1694,0.0,0.0,1.1037,1.1111,0.0,1.1111,1.1111,1.1037,1.1178,1.1292,1.1319,1.1473,1.1667,1.1456,1.1396,1.128,1.1071,1.0808,0.0,1.047,0.9352,0.0,0.8161,0.0,0.0,0.0,0.0,0.0,0.0,0.0,0.0,0.4704,0.4486,0.427,0.0,0.3928,0.0,0.0,0.0,0.0,0.0,0.0,0.0,0.3418,0.3405,0.0,0.0,0.0,0.0457,-0.1078,-0.1117,-0.1147,-0.1166,-0.1207,-0.1238,-0.1335,-0.1335,-0.1415,-0.1572,-0.165,-0.1885,-0.2196,-0.2275,-0.2353,-0.2511,-0.2511,-0.2511,-0.2519,-0.2601,-0.2658,-0.27,-0.2588,-0.2644,-0.2694,0.0,0.0,0.0,0.0,1.5214,0.0,0.0,0.0,1.6963,0.0,1.7678,1.8397,1.9107,1.861,1.8462,1.9151,1.8206,0.0,1.8531,1.8601,0.0,0.0,1.8368,1.8105,1.7252,0.0,0.0,0.0,0.0,0.0,0.0,0.0,0.0,0.0,1.6202,0.0,1.3673,1.3673,1.2652,1.1111,1.1111,1.1111,1.1037,1.0887,1.0887,1.1037,1.1037,1.1049,1.1055,1.0818,1.0995,1.1146,1.1008,1.1242,1.1508,1.1289,1.1192,1.1198,1.1278,1.0818,1.0268,0.9792,0.0,0.0,0.0,0.0,0.586,0.0,0.0,0.0,0.0,0.0,0.0,0.4557,0.427,0.4077,0.3899,0.0,0.0,0.0,0.0,0.0,0.0,0.0,0.2517,0.3246,0.3287,0.2799,0.0,0.0,0.0458,-0.108,-0.1137,-0.1167,-0.1168,-0.1304,-0.1335,-0.1335,-0.1335,-0.1415,-0.165,-0.1808,-0.2042,-0.2196,-0.2431,-0.2511,-0.2511,-0.2511,-0.2511,-0.2522,-0.2644,-0.2696,-0.2709,-0.2766,-0.2824,-0.2875,1.5895,1.5787,1.5734,0.0,1.6002,1.6234,0.0,0.0,0.0,0.0,1.8864,1.9077,1.9223,1.9068,1.8957,1.8805,1.8534,0.0,0.0,0.0,0.0,1.7861,1.7825,1.7667,1.7445,1.7044,0.0,1.6909,0.0,0.0,1.6132,0.0,0.0,0.0,0.0,0.0,1.3528,1.2879,1.1996,1.0887,1.0887,1.0812,0.0,0.0,1.0588,1.0663,1.0663,1.0796,1.0935,1.0657,1.0766,1.1025,1.113,1.1107,1.1157,1.1444,1.1249,1.0924,1.0835,1.0071,0.9316,0.9219,0.8047,0.7019,0.0,0.0,0.0,0.0,0.0,0.0,0.0,0.0,0.0,0.0,0.0,0.0,0.0,0.0,0.0,0.0,0.0,0.0,0.0,0.0,0.2014,0.235,0.2366,0.1965,0.0,0.0,0.0,-0.1039,-0.1147,-0.1177,-0.12,-0.1238,-0.1335,-0.1335,-0.1415,-0.165,-0.1808,-0.2042,-0.2198,-0.2431,-0.251,-0.2511,-0.2511,-0.2511,-0.2511,-0.2522,-0.2644,-0.2748,-0.283,-0.2845,-0.2861,-0.288,1.6179,0.0,0.0,1.656,0.0,0.0,1.7669,0.0,0.0,1.972,1.9783,0.0,2.0089,1.9641,1.9283,1.9246,1.8848,0.0,0.0,0.0,0.0,1.8082,1.789,1.7693,1.7626,1.7137,0.0,1.6889,0.0,0.0,1.5929,0.0,0.0,0.0,0.0,1.3673,0.0,1.2003,1.1335,1.0812,1.0663,0.0,0.0,1.0363,1.0368,1.0368,1.0293,1.0464,1.0735,1.0548,1.0638,1.0819,1.1087,1.1103,1.1151,1.1366,1.0964,1.0343,1.0105,0.9233,0.8232,0.7851,0.7088,0.6402,0.6247,0.5786,0.5479,0.0,0.0,0.0,0.0,0.0,0.0,0.0,0.0,0.0,0.0,0.0,0.0,0.0,0.0,0.0,0.0,0.0,0.1745,0.1599,0.1828,0.152,0.0,0.0,0.0,-0.1049,-0.1164,-0.1194,-0.1212,-0.1255,-0.135,-0.1415,-0.1572,-0.1728,-0.2042,-0.2118,-0.2275,-0.2511,-0.2511,-0.2511,-0.2511,-0.2511,-0.2511,-0.2522,-0.2644,-0.2767,-0.2875,-0.2875,-0.2875,-0.2879,0.0,0.0,0.0,0.0,0.0,0.0,0.0,1.9279,0.0,2.0508,0.0,2.0651,2.0902,1.9897,1.9423,1.9743,0.0,1.872,1.9383,1.8625,1.8231,1.8453,1.8195,1.8021,1.7796,1.7301,0.0,0.0,0.0,0.0,0.0,0.0,0.0,0.0,0.0,0.0,0.0,1.1241,1.079,0.0,1.057,1.0472,1.0363,1.0218,1.0143,1.0143,0.9997,1.0165,1.0453,1.0529,1.0545,1.0644,1.0892,1.11,1.1227,1.1102,1.0335,0.9585,0.9266,0.8269,0.7157,0.6395,0.6086,0.5935,0.5398,0.5243,0.5243,0.5243,0.5243,0.5165,0.0,0.0,0.0,0.0,0.0,0.0,0.0,0.0,0.0,0.0,0.0,0.0,0.0,0.0,0.1368,0.0997,0.1392,0.1123,0.0,0.0,0.0,-0.105,-0.1176,0.0,-0.1217,0.0,-0.1446,-0.1658,-0.1652,-0.1885,-0.2196,-0.2196,-0.2353,-0.2511,-0.2511,-0.2511,-0.2511,-0.2511,-0.2519,-0.2545,-0.2651,-0.2767,-0.2875,-0.2875,-0.2875,-0.2876,0.0,0.0,0.0,0.0,0.0,1.9213,1.9344,1.9943,2.0501,2.0873,2.0791,0.0,1.9962,1.9516,1.9137,1.8896,1.8754,0.0,0.0,0.0,0.0,1.8391,1.8143,1.8017,1.7937,1.7579,1.7226,0.0,0.0,0.0,0.0,0.0,0.0,0.0,0.0,0.0,1.1378,1.123,0.0,1.0612,1.0612,1.0335,0.9997,0.9997,0.9916,0.9916,0.9922,1.0051,1.0312,1.0361,1.0496,1.0589,1.067,1.0697,1.0621,0.9906,0.9489,0.9058,0.8263,0.7238,0.6395,0.624,0.5705,0.5168,0.5093,0.5015,0.5015,0.5015,0.4935,0.4779,0.4779,0.0,0.0,0.0,0.0,0.0,0.0,0.0,0.0,0.0,0.0,0.0,0.0,0.0,0.0,0.0,0.0,0.0,0.0,0.0,0.0,0.0,-0.1155,0.0,0.0,0.0,-0.1673,-0.1938,-0.2058,-0.2118,-0.2196,-0.2353,-0.2431,-0.2511,-0.2511,-0.2511,-0.2511,-0.2511,-0.257,-0.2662,-0.2684,-0.2767,-0.2875,-0.2875,-0.2875,-0.288,0.0,0.0,0.0,0.0,0.0,0.0,0.0,2.0323,0.0,2.1239,2.109,2.0798,2.0624,1.9814,1.9185,1.9295,1.8841,1.8523,1.8523,1.8282,1.8193,1.8193,1.804,0.0,1.804,1.7663,1.7381,1.7201,0.0,0.0,0.0,0.0,0.0,0.0,0.0,1.1419,0.0,0.0,0.0,1.0778,1.0499,1.0301,1.01,0.997,0.9922,0.9922,0.9922,0.9997,1.0137,1.0385,1.0466,1.0525,1.0891,1.0496,0.9912,0.9693,0.8761,0.7732,0.7259,0.6356,0.5553,0.5473,0.5165,0.4859,0.4859,0.4779,0.4701,0.4857,0.4701,0.4543,0.4543,0.4336,0.0,0.0,0.0,0.0,0.0,0.0,0.0,0.0,0.0,0.0,0.0,0.0,0.0,0.0,0.0,0.0,0.0,0.0,0.0,0.0,0.0,0.0,0.0,0.0,0.0,-0.2074,-0.2208,-0.2275,-0.2353,-0.2431,-0.2511,-0.2511,-0.2511,-0.2511,-0.2514,-0.2545,-0.261,-0.2695,-0.2728,-0.2794,-0.2875,-0.2875,-0.2875,-0.2879,0.0,1.8318,0.0,0.0,1.9255,0.0,1.9848,2.0474,2.106,2.1438,2.1117,2.0865,2.1114,1.991,1.9182,1.9419,1.8711,1.8273,1.8273,1.8121,1.804,1.804,1.804,1.804,1.804,1.774,1.7552,0.0,0.0,0.0,0.0,0.0,0.0,0.0,0.0,0.0,0.0,0.0,1.0781,1.0854,1.0594,1.0385,1.0277,1.0078,0.9965,0.9922,0.9922,0.9922,0.9986,1.0417,1.0444,1.039,1.0695,1.0103,0.9266,0.9064,0.7817,0.6489,0.6255,0.555,0.4859,0.4701,0.4621,0.4621,0.4621,0.454,0.4462,0.4621,0.4465,0.4307,0.4307,0.4225,0.0,0.0,0.0,0.0,0.0,0.0,0.0,0.0,0.0,0.0,0.0,0.0,0.0,0.0,0.0,0.0,0.0,0.0,0.0,0.0,0.0,-0.1591,-0.1667,0.0,-0.2082,0.0,-0.228,-0.2353,-0.2511,-0.2523,-0.253,-0.253,-0.2544,-0.2549,-0.2552,-0.2587,-0.2644,-0.2715,-0.2764,-0.282,-0.2875,-0.2875,-0.2875,-0.2875,0.0,0.0,0.0,0.0,0.0,0.0,0.0,2.0473,2.0817,2.1033,2.0527,2.0079,1.9753,1.9089,1.8551,1.8168,1.8074,1.804,1.804,1.8031,1.804,1.804,1.804,1.804,1.804,1.8006,1.7817,0.0,0.0,0.0,0.0,0.0,0.0,0.0,0.0,0.0,0.0,1.125,1.1178,1.095,1.0929,1.067,1.0293,1.0266,1.0121,0.9922,0.9922,0.9922,0.996,1.0234,1.0309,1.0147,0.9478,0.9226,0.876,0.704,0.6359,0.6028,0.5101,0.4784,0.4698,0.4462,0.4462,0.4462,0.4462,0.4384,0.4384,0.4462,0.4231,0.4157,0.4157,0.3842,0.3699,0.0,0.0,0.0,0.0,0.0,0.0,0.0,0.0,0.0,0.0,0.0,0.0,0.0,0.0,0.0,0.0,0.0,0.0,-0.1283,0.0,-0.1894,-0.2122,-0.2176,-0.2304,-0.2593,-0.2537,-0.251,-0.2512,-0.2568,-0.2593,-0.2595,-0.2651,-0.2676,-0.2672,-0.2621,-0.267,-0.2775,-0.2781,-0.282,-0.2875,-0.2875,-0.2875,-0.2875,0.0,0.0,0.0,0.0,0.0,0.0,0.0,2.0378,2.0387,2.0251,2.0007,1.9772,1.9617,1.9041,1.8528,1.8382,1.8168,1.804,1.804,1.804,1.804,1.804,1.804,1.804,1.804,1.7797,1.756,0.0,0.0,0.0,0.0,0.0,0.0,0.0,0.0,1.1252,1.1311,1.1149,1.1153,1.1192,1.1042,1.0869,1.0692,1.0552,1.0353,1.0143,1.0143,1.0046,0.9862,0.9734,0.9622,0.9513,0.9232,0.8302,0.7243,0.6311,0.5605,0.5004,0.4618,0.454,0.4465,0.4231,0.4233,0.4233,0.4233,0.4153,0.4075,0.4231,0.4077,0.3921,0.3921,0.3812,0.3691,0.0,0.0,0.0,0.0,0.0,0.0,0.0,0.0,0.0,0.0,0.0,0.0,0.0,0.0,0.0,0.0,0.0,0.0,-0.148,0.0,-0.2001,-0.2149,-0.231,-0.2443,-0.2546,-0.2522,-0.2529,-0.2565,-0.259,-0.2621,-0.2657,-0.2681,-0.2692,-0.2694,-0.2706,-0.2738,-0.2786,-0.2824,-0.2853,-0.2875,-0.2875,-0.2875,-0.2875,2.0004,0.0,1.9648,0.0,1.9948,1.9772,2.0215,2.0292,2.0163,1.9795,1.9641,1.953,1.9418,1.8819,1.8425,1.8425,1.8186,1.804,1.804,1.804,1.804,1.804,1.7878,0.0,1.7797,1.7392,1.7229,1.7229,1.671,0.0,0.0,0.0,0.0,0.0,1.1172,1.1183,1.1259,1.1174,1.1192,1.1251,1.116,1.1047,1.0966,1.0799,1.0471,1.0131,1.0131,0.9741,0.9236,0.8937,0.849,0.8068,0.828,0.7278,0.6,0.5601,0.4988,0.4384,0.4307,0.4309,0.4231,0.4077,0.3999,0.3999,0.3999,0.3921,0.3841,0.3999,0.3921,0.3763,0.3763,0.3763,0.3742,0.3677,0.0,0.0,0.0,0.0,0.0,0.0,0.0,-0.0342,-0.1078,0.0,0.0,0.0,0.0,0.0,0.0,0.0,0.0,0.0,0.0,0.0,0.0,-0.2382,-0.2519,-0.2537,-0.2519,-0.2552,-0.2628,-0.2647,-0.2688,-0.2745,-0.2726,-0.2729,-0.2748,-0.2773,-0.2794,-0.2813,-0.2857,-0.2875,-0.2875,-0.2875,-0.2875,-0.2875,2.0341,2.0254,2.0201,2.0584,2.0464,2.0283,2.0292,2.0292,2.0163,1.9795,1.9418,1.9033,1.8648,1.8263,1.804,1.804,1.7959,1.804,1.804,1.804,1.804,0.0,0.0,1.74,1.74,1.6984,1.6738,1.6738,0.0,0.0,1.4391,0.0,1.1946,1.1693,1.1693,1.1516,1.1257,1.1257,1.1262,1.1262,1.1262,1.1203,1.0982,1.0982,1.0442,0.9729,0.9729,0.8878,0.7859,0.7783,0.6857,0.578,0.6314,0.6086,0.547,0.4618,0.4384,0.4384,0.4155,0.4079,0.4079,0.3843,0.3841,0.3841,0.3841,0.3763,0.3763,0.3841,0.3763,0.3763,0.3763,0.3763,0.3763,0.3763,0.0,0.0,0.0,0.0,0.0,0.0,-0.0072,-0.0499,-0.1217,0.0,0.0,0.0,0.0,0.0,0.0,0.0,0.0,-0.1963,-0.2283,0.0,-0.2418,-0.248,-0.2541,-0.26,-0.254,-0.2574,-0.2694,-0.2753,-0.2813,-0.2868,-0.2808,-0.2816,-0.2867,-0.2808,-0.2819,-0.2873,-0.2875,-0.2875,-0.2875,-0.2875,-0.2875,-0.2875,2.0355,2.0292,2.0245,2.0365,2.0382,2.0292,2.0292,2.0292,2.0163,1.9795,1.9641,1.9316,1.8656,1.8254,1.804,0.0,1.804,1.804,0.0,1.804,1.7878,1.7635,1.7473,1.7229,1.6902,1.6492,1.6072,1.5643,0.0,0.0,0.0,1.2283,1.1699,1.144,1.144,1.1354,1.1262,1.1262,1.1262,1.1262,1.1262,1.1037,1.0701,1.0701,1.0273,0.9591,0.9032,0.8449,0.7787,0.6968,0.616,0.5386,0.5315,0.4929,0.4465,0.4075,0.3997,0.3997,0.3919,0.3921,0.3843,0.3841,0.3763,0.3763,0.3763,0.3763,0.3763,0.3763,0.3763,0.3763,0.3763,0.3763,0.3763,0.3763,0.3738,0.0,0.0,0.0,0.0,0.0,0.0,0.0144,0.0,-0.1604,0.0,0.0,0.0,0.0,0.0,0.0,0.0,0.0,-0.2285,0.0,-0.242,-0.252,-0.2582,-0.2601,-0.2624,-0.2676,-0.2756,-0.2818,-0.2856,-0.2873,-0.2854,-0.2856,-0.2873,-0.2853,-0.2857,-0.2875,-0.2875,-0.2875,-0.2875,-0.2875,-0.2875,-0.2875,2.0292,2.0292,2.0292,2.0292,2.0292,2.0292,2.0292,2.0292,2.0163,1.9795,1.9744,1.9453,1.8674,1.8382,0.0,1.8049,1.804,1.7959,1.7797,1.7797,1.7554,1.7147,1.6984,1.6656,1.6147,0.0,0.0,1.4475,1.4216,1.3451,1.2351,1.1774,1.144,1.1262,1.1262,1.1262,1.1262,1.1262,1.1262,1.1262,1.1084,1.0901,1.0549,1.0467,0.999,0.9274,0.8487,0.7728,0.7073,0.598,0.5234,0.4691,0.4462,0.4155,0.3999,0.3841,0.3763,0.3763,0.3763,0.3763,0.3763,0.3763,0.3763,0.3763,0.3763,0.3763,0.3763,0.3763,0.3763,0.3763,0.3763,0.3763,0.3763,0.3763,0.3684,0.3511,0.3457,0.0,0.0,0.0,0.0,0.0,0.0,-0.1794,0.0,0.0,0.0,0.0,0.0,0.0,0.0,-0.2309,-0.2382,0.0,-0.2488,-0.2564,-0.2624,-0.267,-0.2732,-0.2768,-0.2785,-0.2846,-0.2875,-0.2875,-0.2875,-0.2875,-0.2875,-0.2875,-0.2875,-0.2875,-0.2875,-0.2875,-0.2875,-0.2875,-0.2875,-0.2875,2.0292,2.0292,0.0,0.0,2.0292,0.0,2.0292,2.0292,2.0163,1.9795,1.9744,1.9453,1.8708,1.8596,1.8368,1.7946,0.0,0.0,0.0,1.731,1.7147,1.6656,1.6245,1.5741,1.5054,1.4559,1.3977,1.3307,1.2625,1.194,1.1262,1.1262,1.1262,1.1262,1.1262,1.1262,1.1262,1.1262,1.1262,1.1262,1.0814,1.0549,1.0549,1.012,0.9484,0.878,0.8006,0.6933,0.5743,0.4907,0.4238,0.3763,0.3763,0.3767,0.3771,0.3765,0.3763,0.3763,0.3763,0.3763,0.3763,0.3763,0.3763,0.3763,0.3763,0.3769,0.3771,0.3765,0.3769,0.3771,0.3765,0.3763,0.3763,0.3765,0.3374,0.3062,0.3062,0.0,0.0,0.0,0.0,0.0,0.0,-0.2239,-0.2372,0.0,0.0,0.0,0.0,0.0,-0.2369,-0.2418,-0.2424,-0.248,-0.2594,-0.2604,-0.2669,-0.279,-0.2847,-0.2845,-0.2792,-0.2849,-0.2875,-0.2875,-0.2875,-0.2875,-0.2875,-0.2875,-0.2875,-0.2875,-0.2875,-0.2875,-0.2875,-0.2875,-0.2875,-0.2875,0.0,0.0,2.0292,2.0292,2.0292,2.0292,2.0292,2.0292,2.0163,1.9795,1.9744,1.938,1.8554,1.8246,1.7879,1.7395,1.7466,1.7392,1.6902,1.6902,1.6656,1.6252,1.565,1.5061,1.4559,1.3977,1.3307,1.2619,1.194,1.1435,1.1262,1.1262,1.1262,1.1262,1.1262,1.1262,1.1262,1.1262,1.1262,1.1262,1.0814,1.0376,1.0125,0.9607,0.8786,0.7759,0.6912,0.6092,0.5139,0.4382,0.398,0.3763,0.3763,0.3812,0.3852,0.3785,0.3763,0.3763,0.3763,0.3763,0.3763,0.3763,0.3763,0.3763,0.3763,0.3816,0.3846,0.3777,0.3818,0.3846,0.3775,0.3763,0.3686,0.3295,0.3141,0.2982,0.2668,0.2589,0.0,0.0,0.0312,-0.0465,-0.1506,-0.2112,-0.239,0.0,0.0,0.0,0.0,-0.2436,-0.2454,-0.242,-0.2465,-0.2503,-0.2531,-0.2624,-0.2732,-0.2853,-0.2867,-0.2867,-0.2853,-0.2868,-0.2875,-0.2875,-0.2875,-0.2875,-0.2875,-0.2875,-0.2875,-0.2875,-0.2875,-0.2875,-0.2875,-0.2875,-0.2875,-0.2875,2.0292,2.0292,2.0292,2.0292,2.0292,2.0292,2.0292,2.011,1.9943,1.965,1.9454,1.8978,1.8167,1.794,1.7528,1.6805,1.6932,1.6902,1.6409,1.6409,1.6079,1.5325,1.4977,1.4391,1.3464,1.313,1.2625,1.194,1.1521,1.1262,1.1262,1.1262,1.1262,1.1262,1.1262,1.1262,1.1262,1.1262,1.1262,1.1262,1.0559,1.0207,0.9951,0.9262,0.8376,0.7379,0.6618,0.5803,0.5015,0.4172,0.3838,0.3771,0.3812,0.3859,0.3889,0.384,0.3826,0.3816,0.3775,0.3763,0.3763,0.3763,0.3763,0.3763,0.3763,0.3834,0.3885,0.3836,0.3865,0.3885,0.3834,0.3634,0.3374,0.3141,0.2826,0.251,0.2275,0.1804,0.0,0.0314,-0.0313,-0.1092,-0.1849,-0.2231,-0.2437,-0.2377,0.0,0.0,-0.2421,-0.2477,-0.2508,-0.2503,-0.2535,-0.2579,-0.2634,-0.2729,-0.2808,-0.2875,-0.2875,-0.2875,-0.2875,-0.2875,-0.2875,-0.2875,-0.2875,-0.2875,-0.2875,-0.2875,-0.2875,-0.2875,-0.2875,-0.2875,-0.2875,-0.2875,-0.2875,-0.2873,2.0292,2.0292,2.0292,2.0292,2.0201,2.0201,2.0201,1.9828,1.9438,1.9389,1.8967,1.8438,1.7747,1.7589,1.7149,1.6126,1.6358,1.6327,1.6004,1.5922,1.5409,1.4482,1.423,1.3548,1.2448,1.2277,1.194,1.1262,1.1262,1.1262,1.1262,1.1262,1.1262,1.1262,1.1262,1.1262,1.1262,1.1262,1.1176,1.1084,1.0217,0.9864,0.9777,0.8823,0.7937,0.7207,0.6471,0.5661,0.4873,0.4112,0.3869,0.3816,0.3879,0.3918,0.3938,0.3924,0.392,0.3897,0.3791,0.3763,0.3763,0.3763,0.3763,0.3767,0.3781,0.3854,0.392,0.392,0.3838,0.3834,0.382,0.3349,0.2982,0.2904,0.2353,0.1882,0.1803,0.0,0.0157,-0.055,-0.1099,-0.1725,-0.2431,-0.2511,-0.2489,-0.2437,-0.2481,-0.2488,-0.2436,-0.2491,-0.2552,-0.2613,-0.2606,-0.2659,-0.2782,-0.2834,-0.2865,-0.2875,-0.2875,-0.2875,-0.2875,-0.2875,-0.2875,-0.2875,-0.2875,-0.2875,-0.2875,-0.2875,-0.2875,-0.2875,-0.2784,-0.2694,-0.2694,-0.2604,-0.2603,-0.2513,2.0292,2.0292,2.0292,2.0292,2.0011,1.9729,1.9729,1.9279,1.8808,1.8505,1.8209,1.7722,1.7182,1.6668,1.6232,1.5996,1.5752,1.559,1.5514,1.4992,1.4559,1.4398,1.3294,1.2619,1.2363,1.1774,1.1435,1.1262,1.1262,1.1262,1.1262,1.1262,1.1262,1.1262,1.1262,1.1262,1.1262,1.0906,1.0722,1.0641,0.9781,0.9432,0.9257,0.8109,0.7224,0.6517,0.5791,0.5012,0.4308,0.4046,0.4006,0.3983,0.392,0.4006,0.4116,0.4036,0.4014,0.3977,0.381,0.3763,0.3763,0.3763,0.3763,0.3783,0.3861,0.3948,0.4014,0.4014,0.3678,0.3488,0.3422,0.2948,0.251,0.2117,0.196,0.1803,0.1414,0.0,0.0707,-0.0471,-0.0707,-0.1177,-0.2354,-0.2511,-0.2506,-0.2497,-0.2504,-0.2506,-0.2497,-0.2553,-0.2616,-0.2676,-0.2628,-0.2659,-0.2782,-0.2792,-0.2823,-0.2875,-0.2875,-0.2875,-0.2875,-0.2875,-0.2875,-0.2875,-0.2875,-0.2875,-0.2875,-0.2875,-0.2875,-0.2873,-0.2243,-0.1974,-0.1885,-0.1256,-0.1076,-0.0987,1.992,1.9646,1.9471,1.9471,1.9279,1.9188,1.9188,1.8727,1.8403,1.824,1.7643,1.7189,1.675,1.6309,1.5757,1.5128,1.4909,1.4741,1.4328,1.4398,1.4055,1.3379,1.2699,1.2198,1.186,1.1435,1.1262,1.1262,1.1262,1.1262,1.1262,1.1262,1.1262,1.1262,1.1084,1.0906,1.0906,1.0467,1.0294,1.0207,0.9607,0.9262,0.917,0.7929,0.7048,0.6343,0.5636,0.4863,0.4167,0.4124,0.4044,0.3963,0.3971,0.403,0.4091,0.4048,0.4036,0.4006,0.3873,0.3873,0.391,0.391,0.3873,0.3848,0.3889,0.3932,0.3892,0.3688,0.3494,0.3301,0.3062,0.2572,0.2117,0.196,0.1726,0.0,0.0,0.1021,0.055,-0.0079,-0.0706,-0.1333,-0.196,-0.2275,-0.2523,-0.2556,-0.2529,-0.2525,-0.2557,-0.2586,-0.2629,-0.2691,-0.2729,-0.2775,-0.2831,-0.2832,-0.2846,-0.2875,-0.2875,-0.2875,-0.2875,-0.2875,-0.2875,-0.2875,-0.2875,-0.2875,-0.2875,-0.2875,-0.2694,-0.2244,-0.1974,-0.1525,-0.1166,-0.0807,-0.0718,-0.0628,1.9363,1.9096,1.8827,1.8827,1.8735,1.8643,1.8643,1.8272,1.7893,1.7893,1.7331,1.6733,1.6404,1.6162,1.5684,1.4685,1.4544,1.422,1.3483,1.3724,1.3464,1.2448,1.2283,1.1854,1.1354,1.1262,1.1262,1.1262,1.1262,1.1262,1.1262,1.1262,1.1262,1.1084,1.0727,1.0549,1.0467,1.0038,0.9868,0.9781,0.9345,0.8999,0.8727,0.7665,0.6782,0.6077,0.5369,0.4789,0.42,0.4179,0.4093,0.3997,0.4026,0.405,0.4067,0.4067,0.4067,0.4046,0.3957,0.3983,0.4036,0.4036,0.3967,0.3903,0.3763,0.3751,0.3683,0.3281,0.3063,0.2944,0.2596,0.2115,0.1737,0.1727,0.0,0.0,0.0,0.0864,0.0393,0.0157,-0.0784,-0.149,-0.1803,-0.2207,-0.255,-0.2598,-0.2571,-0.2574,-0.262,-0.2635,-0.2672,-0.2733,-0.2826,-0.2875,-0.2875,-0.2875,-0.2875,-0.2875,-0.2875,-0.2875,-0.2875,-0.2875,-0.2875,-0.2875,-0.2875,-0.2792,-0.2622,-0.2609,-0.225,-0.1535,-0.1348,-0.0899,-0.0451,-0.0269,-0.018,-0.009,1.8827,1.8827,1.8827,1.8827,1.8458,1.8179,1.8179,1.7707,1.7333,1.7333,1.7055,1.6733,1.6404,1.6345,1.6089,1.5398,1.5,1.4441,1.3496,1.2875,1.2534,1.2363,1.1774,1.1348,1.1262,1.1262,1.1262,1.1262,1.1262,1.1262,1.1262,1.1262,1.1084,1.0636,1.0636,1.0381,1.0038,0.9519,0.9349,0.9349,0.8828,0.8204,0.7577,0.6782,0.6077,0.5371,0.4656,0.4385,0.4277,0.42,0.4216,0.4242,0.4085,0.4093,0.4163,0.4163,0.4163,0.4142,0.405,0.403,0.4036,0.4036,0.3967,0.3838,0.3503,0.3379,0.3287,0.2918,0.2428,0.2127,0.2177,0.1733,0.137,0.1341,0.0,0.0,0.1261,0.1257,0.0786,-0.0393,-0.0628,-0.1099,-0.2353,-0.2561,-0.2597,-0.2601,-0.265,-0.2681,-0.2685,-0.2738,-0.2798,-0.2858,-0.2869,-0.2875,-0.2875,-0.2875,-0.2875,-0.2875,-0.2875,-0.2875,-0.2875,-0.2875,-0.2875,-0.2875,-0.2875,-0.2451,-0.1752,-0.1899,-0.1452,-0.0737,-0.0,0.0272,0.0368,0.0994,0.1271,0.1381,1.8365,1.8079,1.7893,1.7893,1.7707,1.7613,1.7613,1.7419,1.7326,1.7326,1.7055,1.6733,1.6404,1.5917,1.5223,1.4206,1.3806,1.3157,1.2135,1.186,1.1688,1.1688,1.1435,1.1262,1.1262,1.1262,1.1262,1.1262,1.1262,1.1262,1.1262,1.1262,1.1084,1.0549,1.0381,0.9951,0.9519,0.9087,0.8828,0.8828,0.8656,0.8116,0.7401,0.6694,0.5988,0.5282,0.4567,0.43,0.4293,0.4263,0.4238,0.42,0.4075,0.4061,0.4002,0.3746,0.3744,0.3654,0.3621,0.3906,0.4122,0.4122,0.3882,0.356,0.3376,0.307,0.2727,0.2318,0.2055,0.1874,0.1646,0.1474,0.1292,0.1262,0.0,0.1292,0.1262,0.1273,0.1125,0.0643,0.0238,-0.0237,-0.0641,-0.1515,-0.2011,-0.207,-0.2396,-0.2669,-0.2745,-0.2771,-0.2811,-0.2872,-0.2875,-0.2875,-0.2875,-0.2875,-0.2875,-0.2875,-0.2875,-0.2875,-0.2875,-0.2875,-0.2694,-0.2243,-0.2243,-0.1803,-0.1088,-0.108,-0.0721,-0.0,0.0274,0.0643,0.1109,0.1376,0.1471,0.1476,1.7893,1.752,1.7326,1.7326,1.7326,1.7326,1.7326,1.7138,1.6951,1.6951,1.6494,1.6084,1.5775,1.528,1.4619,1.3534,1.3106,1.2545,1.171,1.1435,1.1262,1.1262,1.1262,1.1262,1.1262,1.1262,1.1262,1.1262,1.1262,1.1262,1.1084,1.1084,1.0733,1.0207,0.9864,0.9519,0.9087,0.874,0.8568,0.8568,0.8568,0.8028,0.7136,0.6605,0.5811,0.5015,0.4478,0.43,0.43,0.43,0.4261,0.4197,0.4108,0.3992,0.3812,0.3421,0.3258,0.3193,0.3193,0.3486,0.3787,0.4044,0.374,0.334,0.3102,0.2711,0.2211,0.1779,0.1707,0.163,0.1315,0.1317,0.1307,0.1277,0.1297,0.1306,0.1276,0.1289,0.1221,0.1058,0.0642,0.0239,0.008,-0.097,-0.1637,-0.1678,-0.2351,-0.2723,-0.2807,-0.2812,-0.2831,-0.2873,-0.2875,-0.2784,-0.2513,-0.2784,-0.2875,-0.2875,-0.2694,-0.2513,-0.2513,-0.2334,-0.1974,-0.1436,-0.1436,-0.108,-0.0362,-0.0362,0.0091,0.0726,0.0741,0.1024,0.1482,0.1491,0.1489,0.1478,1.7326,1.7326,1.7326,1.7326,1.7326,1.7326,1.7232,1.6662,1.619,1.619,1.5278,1.4536,1.425,1.4472,1.4307,1.3468,1.3276,1.2998,1.2398,1.1688,1.1262,1.1262,1.1262,1.1262,1.1262,1.1262,1.1262,1.1262,1.1262,1.1084,1.0636,1.0636,1.012,0.9262,0.9262,0.8999,0.8568,0.8568,0.8568,0.8568,0.8568,0.7676,0.6428,0.6428,0.5542,0.43,0.43,0.43,0.43,0.43,0.43,0.4283,0.42,0.3909,0.3444,0.329,0.2973,0.2692,0.2692,0.2692,0.2944,0.3785,0.3699,0.3258,0.2696,0.2234,0.1817,0.1377,0.1303,0.1312,0.1258,0.1264,0.1338,0.1308,0.1328,0.1338,0.1307,0.1303,0.1058,0.0489,0.0407,0.0161,-0.0551,-0.1254,-0.1722,-0.1684,-0.2454,-0.2875,-0.2873,-0.2875,-0.2875,-0.2875,-0.2875,-0.2513,-0.1795,-0.2513,-0.2875,-0.2873,-0.2154,-0.1794,-0.1794,-0.1076,-0.0718,-0.0718,-0.0718,-0.0272,0.037,0.037,0.0833,0.1484,0.1514,0.1508,0.1485,0.1515,0.1507,0.1481,1.7326,1.7326,1.7138,1.6662,1.6567,1.6379,1.5812,1.5527,1.5432,1.5432,1.5171,1.4746,1.4269,1.4179,1.3773,1.2789,1.2572,1.2204,1.1635,1.1435,1.1262,1.1262,1.1262,1.1262,1.1262,1.1262,1.117,1.0814,1.0814,1.0554,1.0207,1.0207,0.9864,0.9262,0.9262,0.8999,0.8568,0.8568,0.8568,0.8564,0.8025,0.7228,0.634,0.5899,0.5102,0.43,0.43,0.43,0.43,0.43,0.43,0.4194,0.3847,0.3523,0.3206,0.254,0.2229,0.2179,0.2144,0.2185,0.2401,0.2956,0.2807,0.246,0.2167,0.178,0.1481,0.1305,0.1335,0.1361,0.135,0.1364,0.1368,0.1339,0.1358,0.1367,0.1339,0.1334,0.1258,0.1106,0.1078,0.0986,0.0842,0.0169,-0.0426,-0.1031,-0.2209,-0.2424,-0.1436,-0.1884,-0.2154,-0.2154,-0.1615,-0.1446,-0.1743,-0.1989,-0.1884,-0.1345,-0.1166,-0.0987,-0.0987,-0.0807,-0.0448,0.009,0.009,0.0454,0.1203,0.1203,0.1306,0.1513,0.1523,0.1534,0.1543,0.153,0.1521,0.1509,1.7326,1.7044,1.6756,1.6285,1.6001,1.5582,1.4999,1.4703,1.4514,1.4514,1.4139,1.3758,1.3441,1.3229,1.29,1.2014,1.1872,1.1561,1.11,1.0997,1.0911,1.0824,1.0824,1.0824,1.0997,1.0911,1.0646,1.0381,1.0381,1.012,0.9694,0.9694,0.9432,0.8999,0.8999,0.8828,0.8568,0.8568,0.8568,0.8568,0.7757,0.7048,0.634,0.5636,0.4924,0.43,0.43,0.43,0.43,0.43,0.43,0.42,0.3708,0.3399,0.3004,0.2184,0.1854,0.1784,0.1676,0.1788,0.1905,0.2137,0.2152,0.206,0.1959,0.1568,0.1259,0.1324,0.1357,0.1384,0.1367,0.1378,0.1384,0.1367,0.1379,0.1384,0.1367,0.1365,0.1371,0.1388,0.1358,0.1346,0.1371,0.0775,0.0087,-0.0703,-0.1514,-0.1615,-0.0718,-0.1166,-0.1345,-0.1345,-0.0904,-0.0731,-0.0833,-0.0921,-0.0827,-0.0643,-0.0365,-0.0272,-0.0272,-0.0,0.0359,0.0807,0.0807,0.1089,0.1482,0.1493,0.1509,0.1527,0.1539,0.154,0.1535,0.1528,0.151,0.1489,1.7138,1.6567,1.6096,1.6001,1.5406,1.4836,1.4589,1.3882,1.3496,1.3496,1.2646,1.2129,1.2113,1.2129,1.186,1.1392,1.1262,1.1084,1.0549,1.0549,1.0376,1.0038,0.9951,1.012,1.0463,1.0207,0.9951,0.9951,0.9951,0.9694,0.9262,0.9262,0.8999,0.8568,0.8568,0.8568,0.8568,0.8568,0.8564,0.8476,0.7669,0.6959,0.6254,0.5547,0.4924,0.43,0.43,0.43,0.43,0.43,0.43,0.421,0.3676,0.3223,0.276,0.2185,0.1738,0.139,0.139,0.1392,0.1394,0.1394,0.1743,0.1993,0.1945,0.1604,0.127,0.1268,0.1374,0.1394,0.1394,0.1394,0.1394,0.1394,0.1394,0.1394,0.1394,0.1392,0.1391,0.1394,0.1392,0.1381,0.1273,0.079,0.0179,-0.0448,-0.0628,-0.0628,-0.0538,-0.0539,-0.063,-0.063,-0.0551,-0.0186,0.0372,0.0474,0.0191,-0.0381,0.0187,0.0463,0.0555,0.1089,0.1438,0.1436,0.1436,0.1453,0.1483,0.151,0.1523,0.1528,0.1553,0.1532,0.1487,0.1513,0.1487,0.1443,1.5622,1.5432,1.5146,1.4478,1.4117,1.369,1.298,1.262,1.24,1.24,1.2264,1.1978,1.1795,1.1935,1.186,1.1392,1.0992,1.0554,1.0125,1.0125,1.0125,1.0038,0.9607,0.9519,0.9602,0.9864,0.9777,0.9432,0.9432,0.9174,0.874,0.874,0.8652,0.8568,0.8568,0.8568,0.8568,0.8568,0.8296,0.7669,0.6959,0.6254,0.5549,0.4835,0.4478,0.43,0.43,0.43,0.43,0.43,0.43,0.4119,0.3315,0.2924,0.2619,0.1827,0.1477,0.139,0.139,0.1408,0.1425,0.1425,0.1514,0.15,0.1444,0.1383,0.141,0.1386,0.1404,0.1425,0.1425,0.1425,0.1425,0.1425,0.1425,0.1425,0.1425,0.1405,0.1399,0.1423,0.1405,0.1397,0.1414,0.0803,0.0538,0.0897,-0.009,-0.0179,0.0897,0.0455,0.0184,0.0184,0.075,0.0859,0.0485,0.1071,0.1259,0.1049,0.1235,0.1222,0.1295,0.1382,0.1458,0.1436,0.1436,0.1453,0.1481,0.1487,0.1504,0.1524,0.1507,0.1507,0.1514,0.1497,0.1482,0.1472,1.5051,1.4765,1.4382,1.4004,1.3515,1.3014,1.2525,1.2204,1.214,1.214,1.1951,1.1743,1.1447,1.1446,1.1289,1.0768,1.0472,1.012,0.9694,0.9694,0.9607,0.9349,0.9087,0.9003,0.9003,0.9174,0.9174,0.9003,0.9003,0.8828,0.8568,0.8568,0.8568,0.8568,0.8568,0.8568,0.8568,0.8568,0.8384,0.7937,0.6871,0.6166,0.5725,0.4743,0.43,0.43,0.43,0.43,0.43,0.43,0.43,0.4119,0.3226,0.2846,0.2643,0.1675,0.1412,0.1412,0.1412,0.1423,0.1436,0.1436,0.1436,0.1427,0.1397,0.1413,0.1431,0.1414,0.1424,0.1436,0.1436,0.1436,0.1436,0.1436,0.1436,0.1436,0.1436,0.1422,0.1417,0.1433,0.1421,0.1418,0.1433,0.1076,0.0987,0.1345,0.0724,0.0637,0.1366,0.1114,0.0939,0.0939,0.134,0.1361,0.0982,0.1387,0.1585,0.1569,0.1555,0.1539,0.1523,0.1494,0.1472,0.1456,0.1442,0.1453,0.148,0.148,0.1498,0.1524,0.1508,0.1512,0.1524,0.1508,0.1493,0.148,1.4675,1.4196,1.3698,1.3555,1.3041,1.256,1.2135,1.1897,1.1834,1.1743,1.1579,1.1285,1.084,1.084,1.0588,0.997,0.9864,0.9694,0.9174,0.9174,0.8999,0.8656,0.8568,0.8568,0.8568,0.8568,0.8568,0.8568,0.8568,0.8568,0.8568,0.8568,0.8568,0.8568,0.8568,0.8568,0.8568,0.8568,0.8476,0.812,0.6874,0.6251,0.5897,0.4743,0.43,0.43,0.43,0.43,0.43,0.43,0.421,0.4032,0.3135,0.2861,0.2587,0.1702,0.1431,0.1429,0.1433,0.1436,0.1436,0.1436,0.1436,0.1436,0.1436,0.1436,0.1436,0.1436,0.1436,0.1436,0.1436,0.1436,0.1436,0.1436,0.1436,0.1436,0.1436,0.1436,0.1436,0.1436,0.144,0.1445,0.1451,0.1446,0.1443,0.1443,0.1461,0.1473,0.1473,0.1502,0.1519,0.1519,0.1553,0.1571,0.1571,0.1596,0.1611,0.1616,0.1586,0.1571,0.157,0.1514,0.1485,0.1479,0.1448,0.145,0.1473,0.1473,0.1491,0.1519,0.1519,0.1521,0.1526,0.1526,0.151,0.1489,1.3147,1.305,1.2785,1.2094,1.2088,1.1784,1.0729,1.0691,1.0639,1.0299,1.0275,1.0168,1.0168,1.0168,0.9897,0.9437,0.9432,0.9174,0.874,0.8652,0.8656,0.8568,0.8568,0.8568,0.8568,0.8568,0.8568,0.8568,0.8568,0.8568,0.8568,0.8568,0.8568,0.8568,0.8568,0.8568,0.8568,0.8568,0.7852,0.6697,0.652,0.563,0.4565,0.4389,0.43,0.43,0.43,0.43,0.43,0.43,0.4032,0.3587,0.3047,0.2567,0.2102,0.1517,0.1416,0.1401,0.1428,0.1436,0.1436,0.1436,0.1436,0.1436,0.1436,0.1436,0.1436,0.1436,0.1436,0.1436,0.1436,0.1436,0.1436,0.1436,0.1436,0.1436,0.1436,0.1436,0.1436,0.1436,0.1459,0.1485,0.1511,0.149,0.1474,0.1474,0.1454,0.1442,0.1442,0.147,0.1487,0.1487,0.1542,0.1571,0.1571,0.1576,0.1591,0.1616,0.1586,0.1571,0.157,0.1536,0.1506,0.1479,0.1448,0.1438,0.1442,0.1442,0.1459,0.1487,0.1487,0.1503,0.1526,0.1526,0.1523,0.1523,1.1858,1.1778,1.1657,1.1272,1.1363,1.1228,1.0649,1.0433,1.0377,1.0205,1.0109,0.9864,0.9607,0.9345,0.9174,0.8915,0.8915,0.8828,0.8656,0.8568,0.8568,0.8568,0.8568,0.8568,0.8568,0.8568,0.8568,0.8568,0.8568,0.8568,0.8568,0.8568,0.8568,0.8568,0.8568,0.8568,0.8568,0.8116,0.758,0.6959,0.6166,0.5458,0.4835,0.4478,0.43,0.43,0.43,0.43,0.43,0.43,0.4032,0.3497,0.3047,0.2583,0.2039,0.1521,0.1426,0.1418,0.1431,0.1436,0.1436,0.1436,0.1436,0.1436,0.1436,0.1448,0.1456,0.1439,0.1436,0.1436,0.1436,0.1436,0.1436,0.1436,0.1436,0.1436,0.1436,0.1436,0.1442,0.1459,0.1487,0.1511,0.1525,0.1498,0.148,0.148,0.1484,0.1478,0.1461,0.1506,0.1523,0.1506,0.1549,0.1564,0.1547,0.1563,0.157,0.1566,0.1553,0.1555,0.157,0.154,0.1509,0.1479,0.1448,0.1436,0.1436,0.1436,0.1453,0.1483,0.15,0.1535,0.1575,0.1558,0.1551,0.1553]},{"header":{"parameterUnit":"m.s-1","parameterCategory":1,"la1":30.6,"la2":28.766,"lo1":-90.7593,"lo2":-88.6598,"dy":0.0162,"dx":0.0183,"nx":116,"ny":114,"refTime":"2023-05-18T12:00:00:Z","depth":0,"parameterNumber":3,"parameterNumberName":"V-component_of_WINDS"},"data":[0.0,0.0,0.0,0.0,0.0,0.0,0.0,0.0,0.0,0.0,0.0,0.0,0.0,0.0,0.0,0.0,0.0,0.0,0.0,0.0,0.0,0.0,0.0,0.0,0.0,0.0,0.0,0.0,0.0,0.0,0.0,0.0,0.0,0.0,0.0,0.0,0.0,0.0,0.0,0.0,0.0,0.0,0.0,0.0,0.0,0.0,0.0,0.0,0.0,0.0,0.0,0.0,0.0,0.0,0.0,0.0,0.0,0.0,0.0,0.0,0.0,0.0,0.0,0.0,0.0,0.0,0.0,0.0,0.0,0.0,0.0,0.0,0.0,0.0,0.0,0.0,0.0,0.0,0.0,0.0,0.0,0.0,0.0,0.0,0.0,0.0,0.0,0.0,0.0,0.0,0.0,0.0,0.0,0.0,0.0,0.0,0.0,0.0,0.0,0.0,0.0,0.0,0.0,0.0,0.0,0.0,0.0,0.0,0.0,0.0,0.0,0.0,0.0,0.0,0.0,0.0,0.0,0.0,0.0,0.0,0.0,0.0,0.0,0.0,0.0,0.0,0.0,0.0,0.0,0.0,0.0,0.0,0.0,0.0,0.0,0.0,0.0,0.0,0.0,0.0,0.0,0.0,0.0,0.0,0.0,0.0,0.0,0.0,0.0,0.0,0.0,0.0,0.0,0.0,0.0,0.0,0.0,0.0,0.0,0.0,0.0,0.0,0.0,0.0,0.0,0.0,0.0,0.0,0.0,0.0,0.0,0.0,0.0,0.0,0.0,0.0,0.0,0.0,0.0,0.0,0.0,0.0,0.0,0.0,0.0,0.0,0.0,0.0,0.0,0.0,0.0,0.0,0.0,0.0,0.0,0.0,0.0,0.0,0.0,0.0,0.0,0.0,0.0,0.0,0.0,0.0,0.0,0.0,0.0,0.0,0.0,0.0,0.0,0.0,0.0,0.0,0.0,0.0,0.0,0.0,0.0,0.0,0.0,0.0,0.0,0.0,0.0,0.0,0.0,0.0,0.0,0.0,0.0,0.0,0.0,0.0,0.0,0.0,0.0,0.0,0.0,0.0,0.0,0.0,0.0,0.0,0.0,0.0,0.0,0.0,0.0,0.0,0.0,0.0,0.0,0.0,0.0,0.0,0.0,0.0,0.0,0.0,0.0,0.0,0.0,0.0,0.0,0.0,0.0,0.0,0.0,0.0,0.0,0.0,0.0,0.0,0.0,0.0,0.0,0.0,0.0,0.0,0.0,0.0,0.0,0.0,0.0,0.0,0.0,0.0,0.0,0.0,0.0,0.0,0.0,0.0,0.0,0.0,0.0,0.0,0.0,0.0,0.0,0.0,0.0,0.0,0.0,0.0,0.0,0.0,0.0,0.0,0.0,0.0,0.0,0.0,0.0,0.0,0.0,0.0,0.0,0.0,0.0,0.0,0.0,0.0,0.0,0.0,0.0,0.0,0.0,0.0,0.0,0.0,0.0,0.0,0.0,0.0,0.0,0.0,0.0,0.0,0.0,0.0,0.0,0.0,0.0,0.0,0.0,0.0,0.0,0.0,0.0,0.0,0.0,0.0,0.0,0.0,0.0,0.0,0.0,0.0,0.0,0.0,0.0,0.0,0.0,0.0,0.0,0.0,0.0,0.0,0.0,0.0,0.0,0.0,0.0,0.0,0.0,0.0,0.0,0.0,0.0,0.0,0.0,0.0,0.0,0.0,0.0,0.0,0.0,0.0,0.0,0.0,0.0,0.0,0.0,0.0,0.0,0.0,0.0,0.0,0.0,0.0,0.0,0.0,0.0,0.0,0.0,0.0,0.0,0.0,0.0,0.0,0.0,0.0,0.0,0.0,0.0,0.0,0.0,0.0,0.0,0.0,0.0,0.0,0.0,0.0,0.0,0.0,0.0,0.0,0.0,0.0,0.0,0.0,0.0,0.0,0.0,0.0,0.0,0.0,0.0,0.0,0.0,0.0,0.0,0.0,0.0,0.0,0.0,0.0,0.0,0.0,0.0,0.0,0.0,0.0,0.0,0.0,0.0,0.0,0.0,0.0,0.0,0.0,0.0,0.0,0.0,0.0,0.0,0.0,0.0,0.0,0.0,0.0,0.0,0.0,0.0,0.0,0.0,0.0,0.0,0.0,0.0,0.0,0.0,0.0,0.0,0.0,0.0,0.0,0.0,0.0,0.0,0.0,0.0,0.0,0.0,0.0,0.0,0.0,0.0,0.0,0.0,0.0,0.0,0.0,0.0,0.0,0.0,0.0,0.0,0.0,0.0,0.0,0.0,0.0,0.0,0.0,0.0,0.0,0.0,0.0,0.0,0.0,0.0,0.0,0.0,0.0,0.0,0.0,0.0,0.0,0.0,0.0,0.0,0.0,0.0,0.0,0.0,0.0,0.0,0.0,0.0,0.0,0.0,0.0,0.0,0.0,0.0,0.0,0.0,0.0,0.0,0.0,0.0,0.0,0.0,0.0,0.0,0.0,0.0,0.0,0.0,0.0,0.0,0.0,0.0,0.0,0.0,0.0,0.0,0.0,0.0,0.0,0.0,0.0,0.0,0.0,0.0,0.0,0.0,0.0,0.0,0.0,0.0,0.0,0.0,0.0,0.0,0.0,0.0,0.0,0.0,0.0,0.0,0.0,0.0,0.0,0.0,0.0,0.0,0.0,0.0,0.0,0.0,0.0,0.0,0.0,0.0,0.0,0.0,0.0,0.0,0.0,0.0,0.0,0.0,0.0,0.0,0.0,0.0,0.0,0.0,0.0,0.0,0.0,0.0,0.0,0.0,0.0,0.0,0.0,0.0,0.0,0.0,0.0,0.0,0.0,0.0,0.0,0.0,0.0,0.0,0.0,0.0,0.0,0.0,0.0,0.0,0.0,0.0,0.0,0.0,0.0,0.0,0.0,0.0,0.0,0.0,0.0,0.0,0.0,0.0,0.0,0.0,0.0,0.0,0.0,0.0,0.0,0.0,0.0,0.0,0.0,0.0,0.0,0.0,0.0,0.0,0.0,0.0,0.0,0.0,0.0,0.0,0.0,0.0,0.0,0.0,0.0,0.0,0.0,0.0,0.0,0.0,0.0,0.0,0.0,0.0,0.0,0.0,0.0,0.0,0.0,0.0,0.0,0.0,0.0,0.0,0.0,0.0,0.0,0.0,0.0,0.0,0.0,0.0,0.0,0.0,0.0,0.0,0.0,0.0,0.0,0.0,0.0,0.0,0.0,0.0,0.0,0.0,0.0,0.0,0.0,0.0,0.0,0.0,0.0,0.0,0.0,0.0,0.0,0.0,0.0,0.0,0.0,0.0,0.0,0.0,0.0,0.0,0.0,0.0,0.0,0.0,0.0,0.0,0.0,0.0,0.0,0.0,0.0,0.0,0.0,0.0,0.0,0.0,0.0,0.0,0.0,0.0,0.0,0.0,0.0,0.0,0.0,0.0,0.0,0.0,0.0,0.0,0.0,0.0,0.0,0.0,0.0,0.0,0.0,0.0,0.0,0.0,0.0,0.0,0.0,0.0,0.0,0.0,0.0,0.0,0.0,0.0,0.0,0.0,0.0,0.0,0.0,0.0,0.0,0.0,0.0,0.0,0.0,0.0,0.0,0.0,0.0,0.0,0.0,0.0,0.0,0.0,0.0,0.0,0.0,0.0,0.0,0.0,0.0,0.0,0.0,0.0,0.0,0.0,0.0,0.0,0.0,0.0,0.0,0.0,0.0,0.0,0.0,0.0,0.0,0.0,0.0,0.0,0.0,0.0,0.0,0.0,0.0,0.0,0.0,0.0,0.0,0.0,0.0,0.0,0.0,0.0,0.0,0.0,0.0,0.0,0.0,0.0,0.0,0.0,0.0,0.0,0.0,0.0,0.0,0.0,0.0,0.0,0.0,0.0,0.0,0.0,0.0,0.0,0.0,0.0,0.0,0.0,0.0,0.0,0.0,0.0,0.0,0.0,0.0,0.0,0.0,0.0,0.0,0.0,0.0,0.0,0.0,0.0,0.0,0.0,0.0,0.0,0.0,0.0,0.0,0.0,0.0,0.0,0.0,0.0,0.0,0.0,0.0,0.0,0.0,0.0,0.0,0.0,0.0,0.0,0.0,0.0,0.0,0.0,0.0,0.0,0.0,0.0,0.0,0.0,0.0,0.0,0.0,0.0,0.0,0.0,0.0,0.0,0.0,0.0,0.0,0.0,0.0,0.0,0.0,0.0,0.0,0.0,0.0,0.0,0.0,0.0,0.0,0.0,0.0,0.0,0.0,0.0,0.0,0.0,0.0,0.0,0.0,0.0,0.0,0.0,0.0,0.0,0.0,0.0,0.0,0.0,0.0,0.0,0.0,0.0,0.0,0.0,0.0,0.0,0.0,0.0,0.0,0.0,0.0,0.0,0.0,0.0,0.0,0.0,0.0,0.0,0.0,0.0,0.0,0.0,0.0,0.0,0.0,0.0,0.0,0.0,0.0,0.0,0.0,0.0,0.0,0.0,0.0,0.0,0.0,0.0,0.0,0.0,0.0,0.0,0.0,0.0,0.0,0.0,0.0,0.0,0.0,0.0,0.0,0.0,0.0,0.0,0.0,0.0,0.0,0.0,0.0,0.0,0.0,0.0,0.0,0.0,0.0,0.0,0.0,0.0,0.0,0.0,0.0,0.0,0.0,0.0,0.0,0.0,0.0,0.0,0.0,0.0,0.0,0.0,0.0,0.0,0.0,0.0,0.0,0.0,0.0,0.0,0.0,0.0,0.0,0.0,0.0,0.0,0.0,0.0,0.0,0.0,0.0,0.0,0.0,0.0,0.0,0.0,0.0,0.0,0.0,0.0,0.0,0.0,0.0,0.0,0.0,0.0,0.0,0.0,0.0,0.0,0.0,0.0,0.0,0.0,0.0,0.0,0.0,0.0,0.0,0.0,0.0,0.0,0.0,0.0,0.0,0.0,0.0,0.0,0.0,0.0,0.0,0.0,0.0,0.0,0.0,0.0,0.0,0.0,0.0,0.0,0.0,0.0,0.0,0.0,0.0,0.0,0.0,0.0,0.0,0.0,0.0,0.0,0.0,0.0,0.0,0.0,0.0,0.0,0.0,0.0,0.0,0.0,0.0,0.0,0.0,0.0,0.0,0.0,0.0,0.0,0.0,0.0,0.0,0.0,0.0,0.0,0.0,0.0,0.0,0.0,0.0,0.0,0.0,0.0,0.0,0.0,0.0,0.0,0.0,0.0,0.0,0.0,0.0,0.0,0.0,0.0,0.0,0.0,0.0,0.0,0.0,0.0,0.0,0.0,0.0,0.0,0.0,0.0,0.0,0.0,0.0,0.0,0.0,0.0,0.0,0.0,0.0,0.0,0.0,0.0,0.0,0.0,0.0,0.0,0.0,0.0,0.0,0.0,0.0,0.0,0.0,0.0,0.0,0.0,0.0,0.0,0.0,0.0,0.0,0.0,0.0,0.0,0.0,0.0,0.0,0.0,0.0,0.0,0.0,0.0,0.0,0.0,0.0,0.0,0.0,0.0,0.0,0.0,0.0,0.0,0.0,0.0,0.0,0.0,0.0,0.0,0.0,0.0,0.0,0.0,0.0,0.0,0.0,0.0,0.0,0.0,0.0,0.0,0.0,0.0,0.0,0.0,0.0,0.0,0.0,0.0,0.0,0.0,0.0,0.0,0.0,0.0,0.0,0.0,0.0,0.0,0.0,0.0,0.0,0.0,0.0,0.0,0.0,0.0,0.0,0.0,0.0,0.0,0.0,0.0,0.0,0.0,0.0,0.0,0.0,0.0,0.0,0.0,0.0,0.0,0.0,0.0,0.0,0.0,0.0,0.0,0.0,0.0,0.0,0.0,0.0,0.0,0.0,0.0,0.0,0.0,0.0,0.0,0.0,0.0,0.0,0.0,0.0,0.0,0.0,0.0,0.0,0.0,0.0,0.0,0.0,0.0,0.0,0.0,0.0,0.0,0.0,0.0,0.0,0.0,0.0,0.0,0.0,0.0,0.0,0.0,0.0,0.0,0.0,0.0,0.0,0.0,0.0,0.0,0.0,0.0,0.0,0.0,0.0,0.0,0.0,0.0,0.0,0.0,0.0,0.0,0.0,0.0,0.0,-0.3508,0.0,0.0,0.0,0.0,0.0,0.0,0.0,0.0,0.0,0.0,0.0,0.0,0.0,0.0,0.0,0.0,0.0,0.0,0.0,0.0,0.0,0.0,0.0,0.0,0.0,0.0,0.0,0.0,0.0,0.0,0.0,0.0,0.0,0.0,0.0,0.0,0.0,0.0,0.0,0.0,0.0,0.0,0.0,0.0,0.0,0.0,0.0,0.0,0.0,0.0,0.0,0.0,0.0,0.0,0.0,0.0,0.0,0.0,0.0,0.0,0.0,0.0,0.0,0.0,0.0,0.0,0.0,0.0,0.0,0.0,0.0,0.0,0.0,0.0,0.0,0.0,0.0,0.0,0.0,0.0,0.0,0.0,0.0,0.0,0.0,0.0,0.0,0.0,0.0,0.0,0.0,0.0,0.0,0.0,0.0,0.0,0.0,0.0,0.0,0.0,0.0,0.0,0.0,0.0,0.0,0.0,0.0,0.0,0.0,0.0,0.0,0.0,0.0,0.0,0.0,0.0,-0.3724,0.0,0.0,0.0,0.0,0.0,0.0,0.0,0.0,0.0,0.0,0.0,0.0,0.0,0.0,0.0,0.0,0.0,0.0,0.0,0.0,0.0,0.0,0.0,0.0,0.0,0.0,0.0,0.0,0.0,0.0,0.0,0.0,0.0,0.0,0.0,0.0,0.0,0.0,0.0,0.0,0.0,0.0,0.0,0.0,0.0,0.0,0.0,0.0,0.0,0.0,0.0,0.0,0.0,0.0,0.0,0.0,0.0,0.0,0.0,0.0,0.0,0.0,0.0,0.0,0.0,0.0,0.0,0.0,0.0,0.0,0.0,0.0,0.0,0.0,0.0,0.0,0.0,0.0,0.0,0.0,0.0,0.0,0.0,0.0,0.0,0.0,0.0,0.0,0.0,0.0,0.0,0.0,0.0,0.0,0.0,0.0,0.0,0.0,0.0,0.0,0.0,0.0,0.0,0.0,0.0,0.0,0.0,0.0,-0.4384,-0.4485,-0.4726,-0.4798,-0.4882,-0.4873,-0.4478,-0.4206,-0.4022,0.0,0.0,0.0,0.0,0.0,0.0,0.0,0.0,0.0,0.0,0.0,0.0,0.0,0.0,0.0,0.0,0.0,0.0,0.0,0.0,0.0,0.0,0.0,0.0,0.0,0.0,0.0,0.0,0.0,0.0,0.0,0.0,0.0,0.0,0.0,0.0,0.0,0.0,0.0,0.1086,0.1109,0.0989,0.0854,0.0531,0.0,0.0,0.0,0.0,0.0,0.0,0.0,0.0,0.0,0.0,0.0,0.0,0.0,0.0,0.0,0.0,0.0,0.0,0.0,0.0,0.0,0.0,0.0,0.0,0.0,0.0,0.0,0.0,0.0,0.0,0.0,0.0,0.0,0.0,0.0,0.0,0.0,0.0,0.0,0.0,0.0,0.0,0.0,-0.4077,-0.4091,0.0,0.0,0.0,0.0,0.0,0.0,0.0,0.0,0.0,0.0,0.0,0.0,0.0,0.0,-0.4374,-0.4586,-0.4662,-0.4679,-0.4713,-0.4724,-0.4726,-0.5297,-0.5653,-0.577,-0.6252,0.0,-0.4928,-0.5382,0.0,0.0,0.0,0.0,0.0,0.0,0.0,0.0,0.0,0.0,0.0,0.0,0.0,0.0,0.0,0.0,0.0,0.0,0.0,0.0,0.0,0.0,0.0114,0.0449,0.0177,0.0,0.0,0.0,0.0,0.0,0.0,0.0,0.0,0.0,0.0,0.0,0.1163,0.1155,0.1134,0.113,0.1138,0.1079,0.0945,0.0841,0.0822,0.0739,0.0,0.0,0.0,0.0,0.0,0.0,0.0,0.0,0.0,0.0,0.0,0.0,0.0,0.0,0.0,0.0,0.0,0.0,0.0,0.0,0.0,0.0,0.0,0.0,0.0,0.0,0.0,0.0,0.0,0.0,0.0,0.0,0.0,0.0,0.0,0.0,0.0,0.0,0.0,-0.4066,-0.4194,-0.4126,-0.4069,-0.399,0.0,0.0,0.0,0.0,0.0,0.0,0.0,0.0,0.0,-0.3591,-0.4255,-0.4726,-0.5061,-0.5478,-0.5934,-0.6424,-0.6089,-0.5885,-0.59,-0.6225,-0.6339,-0.6483,-0.755,-0.7628,-0.6888,-0.6341,-0.5785,-0.5229,0.0,0.0,0.0,0.0,-0.5408,-0.5664,0.0,0.0,0.0,0.0,0.0,0.0,0.0,0.0,0.0,0.0,0.0,0.0,0.0,0.0,0.0179,0.0642,0.0373,0.0188,0.0,0.0,0.0,0.0,0.0,0.0,0.0,0.0,0.0,0.1201,0.1206,0.127,0.1246,0.123,0.1232,0.1246,0.123,0.117,0.1078,0.1121,0.0959,0.0,0.0,0.0,0.0,0.0,0.0,0.0,0.0,0.0,0.0,0.0,0.0,0.0,0.0,0.0,0.0,0.0,0.0,0.0,0.0,0.0,0.0,0.0,0.0,0.0,0.0,0.0,0.0,0.0,0.0,0.0,0.0,0.0,0.0,0.0,0.0,0.0,0.0,-0.4219,-0.4336,-0.4183,-0.4219,-0.4183,0.0,0.0,0.0,0.0,0.0,0.0,-0.367,-0.4347,-0.4387,-0.3589,-0.4533,-0.5198,-0.5635,-0.6099,-0.6695,-0.7341,-0.6994,-0.6874,-0.6979,-0.7296,-0.7457,-0.7453,-0.8648,-0.8965,-0.8513,-0.7414,-0.6741,-0.6264,-0.6038,-0.6233,-0.6706,-0.6782,-0.7075,-0.7564,0.0,0.0,0.0,0.0,0.0,0.0,0.0,0.0,0.0,0.0,0.0,0.0,0.0,0.0,0.0,0.0064,0.0515,0.0637,0.0062,-0.2277,-0.3623,0.0,0.0,0.0,0.0,0.0,0.0,0.1378,0.1406,0.1392,0.1258,0.1367,0.1365,0.1258,0.1367,0.1313,0.1198,0.1043,0.1022,0.1036,0.0,0.0,0.0,0.0,0.0,0.0,0.0,0.0,0.0,0.0,0.0,0.0,0.0,0.0,0.0,0.0,0.0,0.0,0.0,0.0,0.0,0.0,0.0,0.0,0.0,0.0,0.0,0.0,0.0,0.0,0.0,0.0,0.0,0.0,0.0,0.0,0.0,0.0,0.0,-0.4319,-0.449,0.0,0.0,0.0,0.0,-0.3823,-0.4551,-0.4553,-0.3778,-0.4767,-0.5129,-0.4646,-0.5275,-0.5741,-0.5858,-0.607,-0.6139,-0.615,-0.6901,-0.7279,-0.7282,-0.8516,-0.9075,-0.9152,-0.9684,-0.9828,-0.9513,-0.9063,-0.8403,-0.7556,-0.7186,-0.7418,-0.8041,-0.8321,-0.9062,-1.0093,0.0,0.0,0.0,0.0,0.0,0.0,0.0,0.0,0.0,0.0,0.0,0.0,0.0,0.0,0.0,0.0,0.0208,0.0405,0.0559,-0.133,-0.2759,0.0,0.0,0.0,0.0,0.0,-0.0512,0.1364,0.1459,0.1433,0.1463,0.1473,0.1472,0.1463,0.1473,0.1443,0.1378,0.1269,0.1183,0.1118,0.1087,0.0909,0.0,0.0,0.0,0.0,0.0,0.0,0.0,0.0,0.0,0.0,0.0,0.0,0.0,0.0,0.0,0.0,0.0,0.0,0.0,0.0,0.0,0.0,0.0,0.0,0.0,0.0,0.0,0.0,0.0,0.0,0.0,0.0,0.0,0.0,0.0,0.0,0.0,-0.5497,-0.5739,0.0,0.0,-0.4579,-0.4424,-0.4337,-0.4265,-0.4233,-0.4064,-0.4768,-0.5051,-0.4702,-0.5642,-0.647,-0.7168,-0.7601,-0.8308,-0.9159,-0.8969,-0.8816,-0.8699,-0.9196,-0.9287,-0.9259,-0.9777,-0.9908,-0.9823,-0.954,-0.9015,-0.8539,-0.8259,-0.8626,-0.9416,-0.9483,-1.0262,-1.1292,0.0,0.0,0.0,0.0,0.0,0.0,0.0,0.0,0.0,0.0,0.0,0.0,0.0,0.0,0.0,0.0,-0.0729,-0.1054,-0.064,-0.1345,-0.2344,0.0,-0.359,0.0,0.0,-0.1899,-0.0639,0.1132,0.138,0.1426,0.1156,0.1156,0.096,0.0668,0.096,0.1143,0.1118,0.1323,0.1308,0.1195,0.1164,0.1123,0.1008,0.0,0.0,0.0,0.0,0.0,0.0,0.0,0.0,0.0,0.0,0.0,0.0,0.0,0.0,0.0,0.0,0.0,0.0,0.0,0.0,0.0,0.0,0.0,0.0,0.0,0.0,0.0,0.0,0.0,0.0,0.0,0.0,0.0,0.0,0.0,-0.7043,-0.6709,-0.6957,-0.6905,-0.6156,-0.585,-0.5695,-0.5565,-0.5494,-0.5365,-0.516,-0.5919,-0.6211,-0.5812,-0.6669,-0.7495,-0.8167,-0.8568,-0.9261,-1.0219,-0.993,-0.9765,-0.9638,-0.9857,-0.982,-0.9717,-0.9972,-1.0154,-1.0262,-1.0119,-0.993,-0.991,-0.9592,-1.0309,-1.1474,-1.1385,-1.207,-1.3087,0.0,0.0,0.0,0.0,0.0,0.0,0.0,0.0,0.0,0.0,0.0,0.0,0.0,0.0,0.0,0.0,-0.2178,-0.3572,-0.3585,-0.2529,-0.2352,0.0,0.0,0.0,-0.367,-0.1749,-0.0261,0.0649,0.1254,0.1081,0.0393,0.0393,-0.0097,-0.0861,-0.0,0.0292,0.0287,0.1051,0.137,0.1263,0.1254,0.1233,0.1164,0.0,0.0,0.0,0.0,0.0,0.0,0.0,0.0,0.0,0.0,0.0,0.0,0.0,0.0,0.0,0.0,0.0,0.0,0.0,0.0,0.0,0.0,0.0,0.0,0.0,0.0,0.0,0.0,0.0,0.0,0.0,0.0,0.0,-0.6943,-0.7442,-0.7889,-0.7729,-0.8078,-0.8193,-0.7768,-0.8093,-0.8046,-0.7439,-0.8124,-0.8093,-0.7218,-0.814,-0.8524,-0.8021,-0.8524,-0.8825,-0.8825,-0.8825,-0.8825,-0.8924,-0.962,-1.0019,-1.0015,-1.0605,-1.0778,-1.0653,-1.0443,-1.0547,-1.0799,-1.0877,-1.115,-1.1686,-1.1189,-1.2266,-1.4092,-1.381,-1.4475,-1.5462,0.0,0.0,0.0,0.0,0.0,0.0,0.0,-0.056,0.0,0.0,0.0,0.0,0.0,0.0,0.0,0.0,-0.222,-0.3619,-0.3612,-0.3278,-0.3266,0.0,0.0,0.0,-0.4613,-0.33,-0.2268,-0.1737,-0.1583,-0.1201,-0.05,-0.05,-0.0599,-0.0795,-0.0599,-0.0499,-0.0496,-0.0298,0.0195,0.0656,0.1127,0.1307,0.1253,0.0,0.0,0.0,0.0,0.0,0.0,0.0,0.0,0.0,0.0,0.0,0.0,0.0,0.0,0.0,0.0,0.0,0.0,0.0,0.0,0.0,0.0,0.0,0.0,0.0,0.0,0.0,0.0,0.0,0.0,0.0,0.0,-0.8474,-0.8311,-0.9068,-0.9464,-0.923,-0.9222,-0.9044,-0.8524,-0.8058,-0.7828,-0.7876,-0.7693,-0.7661,-0.776,-0.81,-0.8322,-0.8524,-0.8722,-0.9122,-0.9624,-0.9719,-0.9916,-1.0502,-1.0801,-1.09,-1.0895,-1.089,-1.115,-1.1553,-1.1165,-1.1337,-1.1786,-1.1677,-1.2037,-1.2619,-1.1813,-1.2412,-1.3721,-1.3641,-1.4856,-1.6511,0.0,0.0,0.0,0.0,0.0,0.0,0.0,-0.1961,-0.1121,-0.0112,0.0,0.0,0.0,0.0,-0.0381,-0.1448,-0.2777,-0.3405,-0.2862,-0.3375,-0.3664,0.0,0.0,-0.3986,-0.5513,-0.4242,-0.3232,-0.268,-0.2406,-0.1915,-0.1311,-0.1321,-0.1524,-0.1816,-0.1525,-0.132,-0.131,-0.0907,-0.0501,-0.0099,0.0283,0.0629,0.0853,0.041,0.0161,-0.0159,-0.0307,-0.0233,-0.0236,-0.1399,0.0,0.0,0.0,0.0,0.0,0.0,0.0,0.0,0.0,0.0,0.0,0.0,0.0,0.0,0.0,0.0,0.0,0.0,0.0,0.0,0.0,0.0,0.0,0.0,-0.9122,-0.9641,-0.9813,-1.0315,-1.0622,-1.0632,-1.0575,-1.044,-1.0041,-0.957,-0.9326,-0.9422,-0.905,-0.9008,-0.9308,-0.9312,-0.9509,-0.9809,-0.9813,-1.001,-1.0511,-1.0507,-1.0708,-1.1194,-1.1194,-1.1151,-1.1066,-1.1321,-1.1558,0.0,-1.1943,-1.2304,-1.2782,-1.2694,-1.2969,0.0,0.0,0.0,0.0,0.0,-1.5438,-1.6863,0.0,0.0,0.0,0.0,0.0,0.0,0.0,-0.3596,-0.2805,-0.0672,-0.0182,-0.0129,-0.04,-0.042,-0.1299,-0.3393,-0.3502,-0.2987,-0.2099,-0.3272,-0.3827,-0.3474,-0.3611,-0.4473,-0.6329,-0.4875,-0.3765,-0.3026,-0.2416,-0.2116,-0.2328,-0.2366,-0.2676,-0.3253,-0.2582,-0.2165,-0.2132,-0.142,-0.1014,-0.1014,-0.1014,-0.0594,0.0095,-0.0791,-0.1307,-0.1606,-0.0685,-0.0753,-0.1401,-0.2638,0.0,0.0,0.0,0.0,0.0,0.0,0.0,0.0,0.0,0.0,0.0,0.0,0.0,0.0,0.0,0.0,0.0,0.0,0.0,0.0,0.0,0.0,0.0,0.0,-1.0517,-1.1169,-1.1629,-1.1688,-1.1725,-1.1775,-1.1921,-1.1921,-1.1817,-1.1856,-1.1841,-1.1716,-1.1633,-1.1605,-1.158,0.0,0.0,0.0,0.0,-1.158,-1.158,-1.158,-1.158,-1.158,-1.158,-1.1482,-1.1306,-1.2115,-1.2314,-1.1971,-1.2833,-1.3382,-1.3777,-1.3743,-1.3859,-1.4028,-1.355,-1.3832,-1.4647,-1.5466,-1.6226,-1.6841,0.0,0.0,0.0,0.0,0.0,0.0,0.0,-0.3588,-0.3418,-0.2974,-0.1191,-0.0747,-0.2708,-0.2917,-0.3123,-0.3588,-0.2679,-0.2606,-0.3579,-0.4039,-0.433,-0.4626,-0.5268,-0.5835,-0.6406,-0.6081,-0.5613,-0.5033,-0.4931,-0.4665,-0.4431,-0.3932,-0.3858,-0.4008,-0.3388,-0.3176,-0.3165,-0.2955,-0.2531,-0.2003,-0.2637,-0.2028,-0.0666,-0.0843,-0.1009,-0.1162,-0.0958,-0.089,-0.1008,-0.1362,-0.1716,-0.202,-0.1985,0.0,0.0,0.0,0.0,0.0,0.0,0.0,0.0,0.0,0.0,0.0,0.0,0.0,0.0,0.0,0.0,0.0,0.0,0.0,0.0,-1.162,-1.2822,-1.3899,-1.452,-1.4624,-1.3968,-1.2029,-1.2427,-1.253,-1.1921,-1.3196,-1.3791,-1.2815,-1.354,-1.401,-1.3703,-1.3692,0.0,-1.3692,-1.3692,-1.3692,-1.3692,-1.3692,-1.3692,-1.3692,0.0,0.0,-1.3617,-1.3696,-1.3884,-1.418,-1.4232,-1.4416,-1.4596,-1.4424,-1.4386,-1.4527,-1.4649,-1.4855,-1.5158,-1.6569,-1.7447,-1.8044,0.0,0.0,0.0,0.0,0.0,0.0,0.0,-0.3585,-0.3585,-0.3591,-0.2217,-0.1562,-0.2596,-0.2729,-0.2951,-0.353,-0.3103,-0.3173,-0.4026,-0.4384,-0.4724,-0.526,-0.5807,-0.6244,-0.636,-0.638,-0.6134,-0.5636,-0.5689,-0.5335,-0.456,-0.4327,-0.4153,-0.3839,-0.3549,-0.3439,-0.3413,-0.3413,-0.3199,-0.2878,-0.3199,-0.2922,-0.2118,-0.2099,-0.2165,-0.2122,-0.2081,-0.2092,-0.2016,-0.2098,-0.2181,-0.2375,-0.2288,-0.2524,-0.3008,0.0,0.0,0.0,0.0,0.0,0.0,0.0,0.0,0.0,0.0,0.0,0.0,0.0,0.0,-1.0108,0.0,0.0,-1.295,-1.3508,-1.4332,-1.5111,-1.5415,-1.5584,-1.5194,-1.4019,-1.4212,-1.4316,-1.3903,-1.4504,-1.4708,-1.4087,-1.4329,-1.4503,-1.4274,-1.4268,-1.4268,-1.4268,-1.4268,-1.4268,-1.4268,-1.4268,-1.4268,-1.4268,-1.4268,-1.4297,-1.4169,-1.4496,-1.4663,-1.4689,-1.4998,-1.5445,-1.5782,-1.5921,-1.5915,-1.5798,-1.6164,-1.6191,-1.6062,-1.6896,-1.7706,-1.8514,0.0,0.0,0.0,0.0,0.0,0.0,0.0,0.0,0.0,-0.3585,-0.3033,-0.2499,-0.2214,-0.2154,-0.2565,-0.3505,-0.3696,-0.3884,-0.4167,-0.4616,-0.5094,-0.5597,-0.5942,-0.6219,-0.6431,-0.6461,-0.6271,-0.5766,-0.598,-0.5525,-0.4506,-0.4527,-0.4236,-0.3663,-0.3493,-0.3489,-0.3447,-0.3447,-0.3447,-0.3447,-0.3447,-0.3447,-0.3439,-0.3367,-0.3332,-0.3312,-0.3238,-0.3166,-0.3098,-0.3061,-0.3196,-0.3308,-0.3201,-0.3206,-0.3539,-0.44,-0.4614,0.0,0.0,0.0,0.0,0.0,0.0,0.0,0.0,0.0,-0.931,-0.9653,-1.0931,-1.2112,-1.2428,-1.3755,-1.4943,-1.5344,-1.5846,-1.6276,-1.6276,-1.6466,-1.6586,-1.6424,-1.6362,-1.618,-1.5968,-1.5896,-1.5821,-1.5466,-1.5195,-1.5076,-1.5019,-1.4968,-1.4841,-1.4841,-1.4841,-1.4841,-1.4841,-1.4841,-1.4841,-1.4841,-1.4841,-1.4918,-1.4974,-1.5616,-1.5777,-1.5597,-1.6193,-1.6629,-1.7082,-1.7584,-1.7586,-1.7234,-1.7953,-1.7911,-1.7398,-1.726,-1.7973,-1.8924,0.0,0.0,0.0,0.0,0.0,0.0,0.0,0.0,0.0,-0.3585,-0.3538,-0.3436,-0.3388,-0.3383,-0.3436,-0.3607,-0.3697,-0.4008,-0.4401,-0.4784,-0.5257,-0.5839,-0.6111,-0.6306,-0.6434,-0.6543,-0.66,-0.6497,-0.6618,-0.6412,-0.5863,-0.5341,-0.4841,-0.4345,-0.3797,-0.3574,-0.3568,-0.3568,-0.3568,-0.3568,-0.3568,-0.3568,-0.3556,-0.3444,-0.3368,-0.3307,-0.3191,-0.3076,-0.2985,-0.3033,-0.3663,-0.4424,-0.4404,-0.4961,-0.5602,-0.5997,0.0,-0.5666,-0.6781,-0.7003,-0.6989,-0.7594,-0.7467,-0.7664,0.0,0.0,-1.142,-1.2048,-1.3281,-1.4251,-1.4313,-1.5557,-1.6653,-1.6974,-1.8039,-1.8902,-1.8902,-1.893,-1.8851,-1.8563,-1.7832,-1.7041,-1.5968,-1.7718,-1.8316,-1.7005,-1.7489,-1.7764,-1.7387,-1.7101,-1.6943,-1.6943,-1.6943,-1.6943,-1.6943,-1.6943,-1.6943,-1.6943,-1.6943,-1.739,-1.8264,-1.8356,-1.8691,-1.9163,-1.8583,-1.8175,-1.8069,-1.8762,-1.8711,-1.8202,-1.9979,-2.0186,-1.931,-1.8625,-1.9063,-1.9912,0.0,0.0,0.0,0.0,0.0,0.0,0.0,0.0,0.0,0.0,-0.3962,-0.3855,-0.3644,-0.3805,-0.3855,-0.3638,-0.3918,-0.4297,-0.461,-0.4915,-0.5382,-0.5983,-0.6238,-0.6388,-0.6434,-0.6556,-0.6619,-0.6619,-0.6815,-0.6611,-0.6115,-0.5516,-0.5004,-0.4479,-0.3921,-0.3587,-0.3587,-0.3587,-0.3587,-0.3587,-0.3587,-0.3898,-0.451,-0.4402,-0.4433,-0.4614,-0.3922,-0.3996,0.0,-0.4184,-0.4435,-0.4886,-0.4886,-0.5207,-0.5637,-0.6238,-0.6393,0.0,-0.7651,-0.7888,0.0,0.0,-0.891,-0.9767,-1.0823,-1.2245,-1.3507,-1.3811,-1.5289,-1.6364,-1.6201,-1.7326,-1.8292,0.0,-1.8969,-1.9279,-1.9279,-1.9611,-1.9659,-1.933,-1.9491,-1.9059,-1.7462,-1.8188,-1.8448,-1.7802,-1.7901,-1.7955,-1.7823,-1.7508,-1.7598,-1.8149,-1.8149,-1.8419,-1.8964,-1.8964,-1.8964,-1.8964,-1.8964,-1.9239,-1.9604,-1.9604,-1.9558,-1.9411,-1.938,-1.9164,-1.8966,-2.0216,-2.0394,-2.0008,-2.1282,-2.1457,-2.0993,-2.0292,-2.0492,-2.1065,0.0,0.0,0.0,0.0,0.0,0.0,0.0,0.0,0.0,0.0,0.0,0.0,0.0,-0.4239,-0.4291,-0.3968,-0.4257,-0.4519,-0.468,-0.4947,-0.5328,-0.5866,-0.6179,-0.6355,-0.6388,-0.654,-0.6619,-0.6619,-0.6831,-0.6611,-0.6072,-0.5707,-0.5188,-0.4639,-0.3998,-0.3785,-0.3786,-0.3692,-0.3578,-0.3563,-0.3563,-0.4171,-0.4931,-0.4796,-0.5248,-0.5953,-0.4778,-0.48,-0.5194,-0.4894,-0.5128,-0.5513,-0.558,-0.5771,-0.6161,-0.6891,-0.7462,-0.7923,-0.8528,0.0,0.0,-0.9702,-1.0844,-1.2005,-1.2646,-1.415,-1.5431,-1.5607,-1.6968,-1.8005,-1.7804,-1.8904,0.0,-1.9671,-1.9998,-2.0258,-2.0074,-2.024,-2.0279,-1.9934,-2.0467,-2.0305,-1.8982,-1.8957,-1.9071,-1.9071,-1.8758,-1.856,-1.856,-1.8417,-1.8613,-1.9155,-1.9336,-1.9612,-2.0232,-2.0232,-2.0232,-2.0232,-2.0232,-2.0322,-2.0593,-2.0757,-2.0667,-2.034,-2.051,-2.0518,-2.0527,-2.1645,-2.1934,-2.1702,-2.2567,-2.2708,-2.2445,-2.2274,-2.2354,-2.2457,0.0,0.0,0.0,0.0,0.0,0.0,0.0,0.0,0.0,0.0,0.0,0.0,0.0,0.0,-0.4897,-0.4846,-0.4596,-0.4518,-0.4756,-0.4793,-0.501,-0.5374,-0.5844,-0.6151,-0.6271,-0.6499,-0.6619,-0.6619,-0.6747,-0.6489,-0.5854,-0.5857,-0.5539,-0.5012,-0.4451,-0.4267,-0.4272,-0.3785,-0.3553,-0.3499,-0.3499,-0.3962,-0.4639,-0.4294,-0.5291,-0.6868,-0.5808,-0.5178,-0.479,-0.4897,-0.5552,-0.6403,-0.6706,-0.7361,0.0,-0.8607,-0.9332,-0.9756,0.0,0.0,-1.1606,-1.2459,-1.3262,-1.4087,-1.4871,-1.6203,-1.7279,-1.746,-1.8393,-1.9177,-1.8847,-2.0124,-2.1067,-2.048,-2.175,-2.2681,-2.1957,-2.1434,-2.1052,-2.0679,-2.0322,-2.0102,0.0,-2.0746,-2.1083,-2.1083,-2.0831,-2.0611,-2.0611,-2.0695,-2.0617,-2.015,-2.0591,-2.0609,-2.024,-2.0232,-2.0232,-2.0232,-2.0232,-2.0692,-2.1676,-2.2188,-2.2839,-2.3494,-2.2693,-2.2751,-2.3438,-2.3068,-2.2947,-2.2999,-2.3952,-2.4001,-2.37,-2.4742,-2.4798,-2.4074,0.0,0.0,0.0,0.0,0.0,0.0,0.0,0.0,0.0,0.0,0.0,0.0,0.0,0.0,0.0,0.0,0.0,0.0,-0.4795,-0.4894,-0.5049,-0.5121,-0.5597,-0.5907,-0.6024,-0.6263,-0.6464,-0.6619,-0.666,-0.6618,-0.6484,-0.6061,-0.5741,-0.5532,-0.5032,-0.4725,-0.4834,-0.5179,-0.5494,-0.5828,-0.5709,-0.6442,-0.7589,-0.6623,-0.6883,-0.7737,0.0,-0.7227,-0.6573,-0.6335,-0.6526,-0.7016,-0.7561,-0.8056,-0.8412,-0.9047,-0.9901,-1.0645,0.0,0.0,-1.3193,-1.4015,-1.5237,-1.6374,-1.7045,-1.8094,-1.8933,-1.8745,-1.9369,-1.9683,-1.9115,-2.0063,-2.0823,-2.0566,-2.1531,-2.2042,-2.1531,-2.1926,-2.1986,-2.1327,-2.1777,0.0,0.0,0.0,0.0,-2.09,-2.1019,-2.1182,-2.1182,-2.1268,-2.1482,-2.2021,-2.1886,-2.2035,-2.255,-2.2279,-2.2138,-2.2138,-2.2736,-2.3501,-2.4426,-2.4252,-2.4132,-2.4138,-2.3484,-2.3177,-2.3251,-2.3604,-2.3829,-2.4047,-2.538,-2.5908,-2.6101,-2.6906,-2.7157,-2.6883,0.0,0.0,0.0,0.0,0.0,0.0,0.0,0.0,0.0,0.0,0.0,0.0,0.0,0.0,0.0,0.0,0.0,0.0,-0.5118,-0.5111,-0.5151,-0.5113,-0.543,-0.5653,-0.5775,-0.5805,-0.5915,-0.6108,-0.6108,-0.617,-0.629,-0.5899,-0.5723,-0.5763,-0.52,-0.4935,-0.5067,-0.5569,-0.5965,-0.6292,-0.6276,-0.7098,-0.8244,-0.7253,-0.7497,0.0,-0.8507,-0.8453,-0.8157,-0.7551,-0.7485,-0.7669,-0.828,-0.8969,-0.9669,-1.0044,-1.1021,-1.2225,-1.2791,-1.3986,-1.54,-1.6311,-1.7546,-1.8467,-1.8655,-1.9318,-1.9728,-1.928,-1.9361,-1.9374,-1.8915,-1.9678,-2.0494,-2.0486,-2.1384,-2.2089,-2.2116,-2.2428,-2.2715,-2.2818,-2.3291,0.0,0.0,0.0,0.0,-2.1626,-2.2117,-2.2529,-2.2529,-2.2796,-2.3372,-2.3987,-2.3754,-2.3908,-2.4496,-2.4212,-2.4059,-2.4059,-2.4659,-2.5157,-2.5474,-2.4995,-2.4675,-2.4504,-2.4209,-2.4113,-2.4192,-2.4957,-2.538,-2.5591,-2.6761,-2.7311,-2.7604,-2.8117,-2.857,-2.8688,0.0,0.0,0.0,0.0,0.0,0.0,0.0,0.0,0.0,0.0,0.0,0.0,0.0,0.0,0.0,0.0,0.0,0.0,-0.5622,-0.544,-0.533,-0.5409,-0.5329,-0.5346,-0.5486,-0.5243,-0.5134,-0.5256,-0.525,-0.5317,-0.5444,-0.5444,-0.551,-0.5545,-0.5124,-0.4956,-0.5141,-0.505,-0.5091,-0.509,-0.5391,-0.613,-0.6846,-0.6421,-0.7356,-0.8772,-0.8459,-0.8812,-0.9396,-0.8571,0.0,0.0,-0.903,-1.0329,-1.1695,-1.1564,-1.289,-1.4464,-1.5282,-1.6542,-1.7999,-1.921,-1.9939,-2.0251,-1.99,-1.9728,-1.9613,-1.9094,-1.8721,-1.839,0.0,0.0,-2.04,-2.0466,-2.174,-2.2967,-2.385,-2.3299,-2.3352,0.0,0.0,0.0,0.0,0.0,0.0,-2.3485,0.0,-2.4646,-2.4646,-2.5487,-2.5925,-2.5877,-2.582,-2.583,-2.5874,-2.5841,-2.5819,-2.5902,-2.5902,-2.5661,-2.5201,-2.4799,-2.4703,-2.5073,-2.5075,-2.5569,-2.6396,-2.7162,-2.7484,-2.7604,-2.8051,-2.8247,-2.8312,-2.8532,-2.9044,-2.9476,0.0,0.0,0.0,0.0,0.0,0.0,0.0,0.0,0.0,0.0,0.0,0.0,0.0,0.0,0.0,0.0,0.0,0.0,-0.5622,-0.5616,-0.5467,-0.521,-0.542,-0.5607,-0.5691,-0.5771,-0.5823,-0.5989,-0.5956,-0.6035,-0.629,-0.629,-0.6447,-0.6585,-0.645,-0.6486,-0.6521,-0.7027,-0.7548,-0.796,-0.7877,-0.8582,-0.9606,-0.8534,-0.8706,-0.9556,-0.9833,0.0,0.0,0.0,0.0,0.0,0.0,-1.2621,-1.368,-1.3515,-1.4657,-1.6005,-1.6553,-1.7975,-1.9499,-2.0174,-2.0485,-2.0543,-2.0185,-1.9379,-1.8592,-1.8163,-1.8002,-1.7986,0.0,0.0,0.0,-2.192,-2.3724,0.0,-2.5783,-2.6341,0.0,0.0,0.0,-2.6802,-2.6976,-2.7086,0.0,0.0,-2.6464,-2.6551,-2.6551,-2.7101,-2.7396,-2.7336,-2.6714,-2.6357,-2.628,-2.6005,-2.6163,-2.6846,-2.6846,-2.7337,-2.8288,-2.7296,-2.7383,-2.8213,-2.6992,-2.6972,-2.7812,-2.7587,-2.7736,-2.8117,-2.8776,-2.9093,-2.9338,-3.0381,-3.0592,-3.0416,0.0,0.0,0.0,0.0,0.0,0.0,0.0,0.0,0.0,0.0,0.0,0.0,0.0,0.0,0.0,0.0,0.0,0.0,0.0,-0.6105,-0.5944,-0.5611,-0.5604,-0.562,-0.5716,-0.5556,-0.5592,-0.5765,-0.5745,-0.583,-0.6004,-0.6004,-0.6197,-0.6407,-0.6407,-0.6481,-0.6684,-0.731,-0.7762,0.0,0.0,-0.9093,-0.9654,-0.9275,-0.9545,-1.0108,0.0,0.0,0.0,0.0,0.0,-1.2777,-1.3572,-1.4633,-1.5587,-1.559,0.0,-1.7609,-1.8156,-1.9287,-2.0419,-2.1204,-2.1286,-2.1061,-2.069,-1.9782,-1.8776,-1.7948,-1.7658,0.0,0.0,0.0,0.0,0.0,0.0,0.0,-2.642,-2.691,-2.7436,0.0,-2.8275,0.0,-2.8591,-2.8774,-2.8982,0.0,-2.8396,-2.7973,-2.7962,-2.8131,-2.8264,-2.8498,-2.7611,-2.729,-2.7812,-2.7742,-2.801,-2.8597,-2.8597,-2.8934,-2.9681,-2.873,-2.8651,-2.9196,0.0,-2.8067,-2.8598,-2.8603,-2.894,-2.9481,-3.033,-3.0873,-3.1362,-3.2267,-3.2361,-3.2169,0.0,0.0,0.0,0.0,0.0,0.0,0.0,0.0,0.0,0.0,0.0,0.0,0.0,0.0,0.0,0.0,0.0,0.0,0.0,0.0,0.0,-0.6282,-0.595,-0.5732,-0.5677,-0.5285,-0.5139,-0.5232,-0.5232,-0.5319,-0.5487,-0.5487,-0.56,-0.5917,-0.5917,-0.6086,-0.6436,-0.6915,-0.712,-0.7175,-0.8244,-0.8678,-0.8812,0.0,0.0,0.0,0.0,0.0,0.0,0.0,-1.3504,-1.359,-1.5148,-1.6301,-1.723,-1.7741,-1.8567,-1.9369,-2.0256,-2.0847,-2.1428,-2.2356,-2.2124,-2.1651,-2.1053,-2.0197,-1.9195,-1.7854,0.0,-1.7292,-1.7432,0.0,-1.9997,-2.1468,0.0,-2.4338,-2.6734,-2.6852,-2.7375,-2.9443,-2.9781,-2.9968,-3.0253,-3.0797,-3.1211,-3.1294,-3.0157,-2.932,-2.9157,-2.9071,-2.9164,-2.944,-2.8563,-2.8571,-2.9496,-2.9957,-3.0272,-3.0393,-3.0393,-3.0423,-3.0342,-2.9737,-2.9393,-2.9349,0.0,0.0,-2.9292,-3.0077,-3.0778,-3.1377,-3.2195,-3.2915,-3.3484,-3.397,-3.4075,-3.4014,0.0,0.0,0.0,0.0,0.0,0.0,0.0,0.0,0.0,0.0,-0.9517,-0.9099,0.0,0.0,0.0,0.0,0.0,0.0,0.0,0.0,0.0,0.0,-0.6544,-0.6381,-0.6119,0.0,0.0,0.0,0.0,-0.6104,-0.6298,-0.6298,-0.651,-0.6958,-0.6958,-0.7085,-0.7295,-0.7982,-0.8223,-0.8289,-0.9022,-0.9646,-1.0161,0.0,0.0,0.0,0.0,0.0,0.0,0.0,-1.4787,-1.5524,-1.6389,-1.7457,-1.8718,-1.9985,-2.0892,-2.1751,-2.3187,-2.3804,-2.4013,-2.3813,-2.3005,-2.198,-2.0906,-1.9107,0.0,0.0,0.0,-1.7363,-1.7675,-1.9515,0.0,-2.3462,0.0,0.0,0.0,0.0,-3.0367,0.0,0.0,0.0,0.0,0.0,0.0,0.0,0.0,0.0,-3.1455,-3.1405,-3.1044,-3.0112,-2.9997,-2.9946,-3.0165,-3.0267,-3.0483,-3.082,-3.082,-3.1214,-3.1969,-3.1357,-3.1323,-3.1692,0.0,0.0,-3.1403,-3.2043,-3.257,-3.2921,-3.3472,-3.3773,-3.3955,-3.4623,-3.4471,-3.4135,0.0,0.0,0.0,0.0,0.0,0.0,0.0,-1.036,-1.0522,-1.0522,-1.0154,-0.9888,-0.9888,-0.9888,-0.9725,0.0,0.0,0.0,0.0,0.0,0.0,0.0,0.0,0.0,0.0,0.0,0.0,0.0,0.0,0.0,0.0,0.0,0.0,0.0,0.0,0.0,0.0,-0.8871,-0.9,0.0,0.0,0.0,0.0,0.0,0.0,0.0,0.0,0.0,0.0,0.0,-1.541,-1.6386,-1.7152,-1.8387,-1.9868,-2.0988,-2.203,-2.3095,-2.4198,-2.459,-2.47,-2.4659,-2.36,-2.224,-2.1427,0.0,0.0,0.0,0.0,-1.7749,-1.819,0.0,0.0,0.0,0.0,0.0,0.0,0.0,0.0,0.0,0.0,0.0,0.0,0.0,0.0,0.0,0.0,0.0,-3.247,-3.2027,-3.1474,-3.0633,-3.1018,-3.132,-3.1415,-3.166,-3.2078,-3.2536,-3.2536,-3.3031,-3.393,-3.3283,-3.3274,-3.3665,-3.3084,0.0,-3.2992,-3.3317,-3.3711,-3.4211,-3.4682,-3.5093,-3.5461,-3.6088,-3.6071,-3.5898,0.0,0.0,0.0,0.0,0.0,0.0,0.0,-1.0522,-1.0522,-1.0522,-1.0522,-1.0522,-1.0522,-1.0522,-1.036,0.0,0.0,0.0,0.0,0.0,0.0,0.0,0.0,0.0,0.0,0.0,0.0,0.0,0.0,0.0,0.0,0.0,0.0,0.0,0.0,0.0,0.0,0.0,0.0,0.0,0.0,0.0,0.0,0.0,0.0,0.0,0.0,0.0,0.0,0.0,-1.5434,-1.6319,-1.7251,-1.8799,-2.0539,-2.1391,-2.2747,-2.4175,-2.5081,-2.5445,-2.5513,-2.5494,-2.4165,-2.273,-2.2129,-2.0652,0.0,0.0,-1.8466,-1.8563,-1.8873,0.0,0.0,0.0,0.0,0.0,0.0,0.0,0.0,0.0,0.0,0.0,0.0,0.0,0.0,0.0,0.0,0.0,-3.3393,-3.25,-3.188,-3.1549,-3.2246,-3.27,-3.2918,-3.3348,-3.3833,-3.4298,-3.4298,-3.4699,-3.5514,-3.4958,-3.4846,-3.4972,-3.4592,0.0,0.0,-3.4485,-3.4866,-3.5401,-3.5887,-3.6409,-3.6907,-3.7345,-3.7539,-3.7642,0.0,0.0,0.0,0.0,0.0,0.0,0.0,-1.0522,-1.0522,-1.0522,-1.0522,-1.0522,-1.0522,-1.0522,-1.0462,0.0,0.0,0.0,0.0,0.0,0.0,0.0,0.0,0.0,0.0,0.0,0.0,0.0,0.0,0.0,0.0,0.0,0.0,0.0,0.0,0.0,0.0,0.0,0.0,0.0,0.0,0.0,0.0,0.0,0.0,0.0,0.0,0.0,0.0,0.0,0.0,-1.5217,-1.6228,-1.8335,-2.0661,-2.1751,0.0,0.0,-2.7046,-2.767,-2.7661,-2.6536,-2.4937,-2.3487,-2.2484,0.0,0.0,-1.8703,-1.9515,-2.0136,-1.9723,-2.1284,0.0,0.0,0.0,0.0,0.0,0.0,0.0,0.0,0.0,0.0,0.0,0.0,0.0,0.0,0.0,0.0,0.0,-3.3798,-3.3368,-3.3671,-3.3796,-3.407,-3.4551,-3.461,-3.489,-3.5255,-3.5255,-3.5464,-3.5849,-3.5788,-3.5488,-3.5018,-3.5503,0.0,0.0,-3.6014,-3.6507,-3.6615,-3.7131,-3.7358,-3.7405,-3.748,-3.7626,-3.7886,0.0,0.0,0.0,0.0,0.0,0.0,-1.0522,-1.0522,-1.0522,-1.0522,-1.0522,-1.0522,-1.0522,-1.0522,-1.0522,-1.0522,0.0,0.0,0.0,0.0,0.0,0.0,0.0,0.0,0.0,0.0,0.0,0.0,0.0,0.0,0.0,0.0,0.0,0.0,0.0,0.0,0.0,0.0,0.0,0.0,0.0,0.0,0.0,0.0,0.0,0.0,0.0,0.0,0.0,0.0,0.0,0.0,-1.6305,-1.8078,0.0,0.0,-2.2861,-2.4784,-2.6764,-2.8088,-2.8674,-2.7511,-2.6044,-2.4693,-2.3366,0.0,0.0,-2.0059,-2.031,-2.064,-2.1064,-2.2193,-2.3218,0.0,0.0,0.0,0.0,0.0,0.0,0.0,0.0,0.0,0.0,0.0,0.0,0.0,0.0,0.0,0.0,-3.5365,-3.4662,-3.4846,-3.5044,-3.524,-3.5434,-3.5434,-3.5706,-3.6196,-3.6196,-3.6445,-3.6892,-3.6892,-3.6736,-3.6502,-3.6767,0.0,0.0,-3.698,-3.7165,-3.7225,-3.761,-3.7727,-3.7801,-3.7992,-3.823,-3.8557,0.0,0.0,0.0,0.0,0.0,-1.0769,-1.0922,-1.0964,-1.0964,-1.0964,-1.0964,-1.0964,-1.1006,-1.0964,-1.0964,-1.1006,-1.0863,0.0,0.0,0.0,0.0,0.0,0.0,0.0,0.0,0.0,0.0,0.0,0.0,0.0,0.0,0.0,0.0,0.0,0.0,0.0,0.0,0.0,0.0,0.0,0.0,0.0,0.0,0.0,0.0,0.0,0.0,0.0,0.0,0.0,0.0,0.0,0.0,0.0,0.0,0.0,-2.2281,-2.4464,-2.6069,-2.7713,-2.8785,-2.7546,-2.6275,-2.4989,0.0,0.0,-2.0412,-2.1197,-2.1461,-2.1711,-2.2331,-2.3189,-2.3814,-2.3814,0.0,-2.5745,0.0,0.0,0.0,0.0,0.0,0.0,0.0,0.0,0.0,0.0,0.0,0.0,0.0,-3.677,-3.5913,-3.58,-3.5991,-3.618,-3.6368,-3.6368,-3.6569,-3.6907,-3.7118,-3.7358,-3.7727,-3.7902,-3.8017,-3.8017,0.0,0.0,0.0,-3.8075,-3.8059,-3.8059,-3.8294,-3.8351,-3.8407,-3.8662,-3.8957,-3.9246,0.0,0.0,0.0,0.0,0.0,0.0,-1.1909,-1.2008,-1.2008,-1.2008,-1.2008,-1.2049,-1.2169,-1.2039,-1.2039,-1.2169,-1.1651,0.0,0.0,0.0,0.0,0.0,0.0,0.0,0.0,0.0,-1.195,-1.195,-1.1823,0.0,0.0,0.0,0.0,0.0,0.0,0.0,0.0,0.0,0.0,0.0,0.0,0.0,0.0,0.0,0.0,0.0,0.0,0.0,0.0,0.0,0.0,0.0,0.0,0.0,0.0,0.0,-2.2144,-2.483,-2.5241,-2.6907,-2.8077,-2.666,-2.5233,-2.3974,0.0,0.0,-2.1789,-2.1863,-2.301,-2.3825,-2.3263,-2.4252,-2.5161,-2.5161,-2.6092,0.0,0.0,0.0,0.0,0.0,0.0,0.0,0.0,0.0,0.0,0.0,0.0,0.0,0.0,-3.7918,-3.7225,-3.6708,-3.6723,-3.6968,-3.748,-3.748,-3.748,-3.748,-3.8042,-3.8294,-3.8294,-3.892,-3.9206,0.0,0.0,0.0,0.0,-3.9332,-3.9385,-3.9385,-3.9439,-3.9475,-3.9475,-3.9475,-3.9715,-4.0003,0.0,0.0,0.0,0.0,0.0,0.0,0.0,-1.2008,-1.2049,-1.2129,-1.2129,-1.2178,-1.2316,-1.2325,-1.2423,-1.2716,-1.2138,0.0,0.0,0.0,0.0,0.0,0.0,0.0,0.0,0.0,-1.2008,-1.2008,-1.2255,-1.2434,-1.2494,0.0,0.0,0.0,0.0,0.0,0.0,0.0,0.0,0.0,0.0,0.0,0.0,0.0,0.0,0.0,0.0,0.0,0.0,0.0,0.0,0.0,0.0,0.0,0.0,-1.9479,0.0,0.0,-2.3297,-2.4993,-2.6166,-2.5474,-2.505,-2.4517,-2.349,0.0,-2.2015,-2.2618,-2.3365,-2.4075,-2.4514,-2.5315,-2.6101,-2.6552,-2.707,0.0,0.0,0.0,0.0,0.0,0.0,0.0,0.0,0.0,0.0,0.0,0.0,0.0,0.0,-3.8713,-3.787,-3.7285,-3.7225,-3.7492,-3.8026,-3.8026,-3.8254,-3.8662,-3.881,-3.892,-3.892,-3.9082,0.0,0.0,0.0,0.0,0.0,-3.9439,-3.9492,-3.9492,-3.9715,-3.9834,-3.9868,-4.0036,-4.0351,-4.0659,0.0,0.0,0.0,0.0,0.0,0.0,0.0,-1.2735,-1.2783,-1.2871,-1.2861,-1.2909,-1.3044,-1.3006,-1.3112,-1.3447,-1.2977,0.0,0.0,0.0,0.0,0.0,0.0,0.0,0.0,-1.2589,-1.2589,-1.2589,-1.3051,-1.3406,-1.365,-1.352,-1.3459,0.0,0.0,0.0,0.0,0.0,0.0,0.0,0.0,0.0,-1.7257,0.0,0.0,0.0,0.0,0.0,0.0,0.0,0.0,0.0,0.0,0.0,0.0,0.0,-2.0184,-2.0624,0.0,-2.4011,-2.5093,-2.4742,-2.4564,0.0,0.0,0.0,-2.2907,-2.3366,-2.4285,-2.5213,-2.5753,-2.6414,-2.7033,-2.7457,-2.7909,0.0,0.0,0.0,0.0,0.0,0.0,0.0,0.0,0.0,0.0,0.0,0.0,0.0,0.0,0.0,-3.8723,-3.8254,-3.8254,-3.839,-3.8745,-3.8745,-3.8924,-3.9332,-3.9542,-3.9645,-3.9662,-3.9851,0.0,0.0,0.0,0.0,0.0,-4.0218,-4.0218,-4.0268,-4.0497,-4.0594,-4.0594,-4.0802,-4.1007,-4.1226,0.0,0.0,0.0,0.0,0.0,0.0,0.0,-1.3915,-1.402,-1.402,-1.402,-1.4057,-1.4176,-1.4093,-1.4057,-1.4176,0.0,0.0,0.0,0.0,0.0,0.0,0.0,0.0,0.0,-1.3716,-1.3716,-1.3716,-1.4205,-1.4744,-1.5295,-1.5233,-1.5222,-1.5339,-1.4605,-1.4401,0.0,0.0,0.0,0.0,0.0,0.0,0.0,0.0,0.0,0.0,0.0,0.0,0.0,0.0,0.0,0.0,0.0,0.0,0.0,0.0,0.0,0.0,0.0,-2.3658,0.0,0.0,0.0,0.0,0.0,0.0,0.0,-2.4123,-2.5603,-2.6967,-2.7011,-2.7545,-2.7929,-2.8035,0.0,0.0,0.0,0.0,0.0,0.0,0.0,0.0,0.0,0.0,0.0,0.0,0.0,0.0,0.0,0.0,-3.9578,-3.9578,-3.963,-3.963,-3.9578,-3.9578,-3.9578,-3.963,-4.0186,-4.0449,-4.0449,-4.096,0.0,0.0,0.0,0.0,0.0,-4.1363,-4.1426,-4.1426,-4.156,-4.1604,-4.1604,-4.1604,-4.1604,-4.1604,0.0,0.0,0.0,0.0,0.0,0.0,0.0,0.0,0.0,0.0,-1.414,-1.4186,-1.4326,-1.4326,-1.428,0.0,0.0,0.0,0.0,0.0,0.0,0.0,0.0,0.0,0.0,-1.4743,-1.4743,-1.4743,-1.5643,-1.6108,-1.6268,-1.6667,-1.6836,-1.6866,-1.6316,-1.6128,-1.6207,-1.6761,0.0,0.0,0.0,0.0,0.0,0.0,0.0,0.0,-2.067,-2.062,0.0,0.0,0.0,0.0,0.0,0.0,0.0,0.0,-2.1698,-2.1971,-2.2207,0.0,-2.2515,-2.2956,-2.2817,0.0,0.0,0.0,0.0,0.0,0.0,-2.7563,-2.8357,-2.8162,-2.8247,0.0,0.0,0.0,0.0,0.0,0.0,0.0,0.0,0.0,0.0,0.0,0.0,0.0,0.0,0.0,0.0,0.0,-4.0431,-4.0642,-4.0943,-4.0832,-4.0186,-4.0186,-4.0383,-4.0784,-4.0943,-4.1007,-4.1007,-4.1146,0.0,0.0,0.0,0.0,-4.1498,-4.156,-4.156,-4.156,-4.1604,-4.1604,-4.1604,-4.1604,-4.1604,-4.1604,0.0,0.0,0.0,0.0,0.0,0.0,0.0,0.0,0.0,0.0,0.0,0.0,0.0,0.0,0.0,0.0,0.0,0.0,0.0,0.0,0.0,0.0,0.0,0.0,-1.5108,-1.5108,-1.5108,-1.5108,-1.6095,-1.6738,-1.7008,-1.7737,-1.8104,-1.8148,-1.758,-1.719,-1.7062,-1.8017,-1.8449,-1.8635,-1.9962,0.0,0.0,0.0,0.0,0.0,-2.1431,-2.1334,0.0,-2.1657,-2.1623,-2.1527,0.0,0.0,0.0,0.0,-2.2709,-2.3038,-2.3038,-2.2787,-2.2673,-2.3048,-2.3219,-2.3429,0.0,0.0,0.0,0.0,0.0,-2.8134,-2.8664,0.0,0.0,0.0,0.0,0.0,0.0,0.0,0.0,0.0,0.0,0.0,0.0,0.0,0.0,0.0,0.0,0.0,0.0,0.0,-4.1146,-4.1272,-4.1515,-4.1408,-4.0943,-4.096,-4.11,-4.1408,-4.1408,-4.1408,-4.1408,-4.1408,-4.1408,0.0,0.0,0.0,-4.1604,-4.1604,-4.1604,-4.1604,-4.1604,-4.1648,-4.1719,-4.1719,-4.1805,-4.1952,0.0,0.0,0.0,0.0,0.0,0.0,0.0,0.0,0.0,0.0,0.0,0.0,0.0,0.0,0.0,0.0,0.0,0.0,0.0,0.0,0.0,0.0,0.0,-1.5232,-1.5322,-1.5322,-1.5369,-1.545,-1.6467,-1.7265,-1.7873,-1.8816,-1.9332,-1.9448,-1.8839,-1.8362,-1.8009,-1.9333,-1.9932,-2.0109,-2.1131,0.0,0.0,0.0,0.0,0.0,0.0,0.0,0.0,-2.2512,-2.2572,-2.2402,-2.3038,0.0,0.0,0.0,0.0,0.0,-2.4104,-2.4149,-2.4075,-2.3987,-2.44,-2.4972,-2.5666,0.0,0.0,0.0,0.0,0.0,0.0,0.0,0.0,0.0,0.0,0.0,0.0,0.0,0.0,0.0,0.0,0.0,0.0,0.0,0.0,0.0,0.0,0.0,0.0,0.0,0.0,-4.1648,-4.1648,-4.1692,-4.1762,-4.1648,-4.1648,-4.1675,-4.1675,-4.1719,-4.1788,-4.1788,-4.1788,0.0,0.0,0.0,-4.1788,-4.1788,-4.1788,-4.1788,-4.1788,-4.1899,-4.2068,-4.2068,-4.2251,-4.2432,0.0,0.0,0.0,0.0,0.0,0.0,0.0,0.0,0.0,0.0,0.0,0.0,0.0,0.0,0.0,0.0,0.0,0.0,0.0,0.0,0.0,0.0,-1.5732,-1.5888,-1.6306,-1.6306,-1.6541,-1.707,-1.8117,-1.89,-1.9486,-2.0501,-2.101,-2.1014,-2.0934,-2.0853,-2.0772,-2.1009,-2.1152,-2.1199,-2.1846,0.0,0.0,0.0,0.0,0.0,0.0,0.0,0.0,-2.3231,-2.3465,-2.3711,-2.3839,0.0,0.0,0.0,0.0,0.0,-2.4665,-2.5465,-2.5951,-2.5382,-2.5526,-2.5879,0.0,0.0,0.0,0.0,0.0,0.0,0.0,0.0,0.0,0.0,0.0,0.0,0.0,0.0,0.0,0.0,0.0,0.0,0.0,0.0,0.0,0.0,0.0,0.0,0.0,0.0,0.0,-4.1849,-4.1831,-4.2068,-4.2516,-4.1917,-4.1744,-4.2092,-4.2092,-4.2279,-4.2619,-4.2619,-4.2619,0.0,0.0,-4.2619,-4.2619,-4.2619,-4.2639,-4.268,-4.268,-4.2774,-4.2904,-4.2904,-4.2941,-4.2996,0.0,0.0,0.0,0.0,0.0,0.0,0.0,0.0,0.0,0.0,0.0,0.0,0.0,0.0,0.0,0.0,0.0,0.0,0.0,0.0,0.0,-1.6582,-1.6454,-1.6522,-1.6693,-1.6867,-1.7276,-1.7886,-1.8937,-1.9687,-2.0248,-2.1301,-2.1788,-2.171,-2.171,-2.1391,-2.0917,-2.1479,-2.1559,-2.1435,0.0,0.0,0.0,0.0,0.0,0.0,0.0,0.0,0.0,0.0,-2.4009,-2.4024,-2.4193,0.0,0.0,0.0,0.0,0.0,-2.4896,-2.5597,-2.6271,-2.635,-2.6736,-2.7283,0.0,0.0,0.0,0.0,0.0,0.0,0.0,0.0,0.0,0.0,0.0,0.0,0.0,0.0,0.0,0.0,0.0,0.0,0.0,0.0,0.0,0.0,0.0,0.0,0.0,0.0,0.0,0.0,-4.2501,-4.2657,-4.2922,-4.258,-4.2483,-4.2678,-4.2678,-4.2792,-4.2941,-4.2941,-4.2941,-4.2941,0.0,-4.2941,-4.2941,-4.2941,-4.2978,-4.2996,-4.2996,-4.3105,-4.3283,-4.3387,-4.344,-4.344,0.0,0.0,0.0,0.0,0.0,0.0,0.0,0.0,0.0,0.0,0.0,0.0,0.0,0.0,0.0,0.0,0.0,0.0,0.0,0.0,-1.671,-1.7157,-1.7002,-1.6918,-1.6876,-1.7383,-1.795,-1.8552,-1.9653,-2.0535,-2.1162,-2.2006,-2.2357,-2.2222,-2.2222,-2.1758,-2.1025,-2.1874,-2.2061,-2.1871,0.0,0.0,0.0,0.0,0.0,0.0,0.0,0.0,0.0,0.0,0.0,0.0,0.0,0.0,0.0,-2.462,-2.4806,-2.5037,-2.533,-2.5679,-2.6255,-2.7243,0.0,0.0,0.0,0.0,0.0,0.0,0.0,0.0,0.0,0.0,0.0,0.0,0.0,0.0,0.0,0.0,0.0,0.0,0.0,0.0,0.0,0.0,0.0,0.0,0.0,0.0,0.0,0.0,0.0,0.0,-4.3123,-4.323,-4.3334,-4.3334,-4.33,-4.323,-4.323,-4.3283,-4.3387,-4.3387,-4.3387,-4.3387,-4.3387,-4.3387,-4.3387,-4.3387,-4.3387,-4.3403,-4.3403,-4.3523,-4.374,-4.3918,-4.398,-4.4011,0.0,0.0,0.0,0.0,0.0,0.0,0.0,0.0,0.0,0.0,0.0,0.0,0.0,0.0,0.0,0.0,0.0,0.0,0.0,0.0,-1.731,-1.7707,-1.7282,-1.696,-1.6876,-1.7876,-1.8692,-1.9239,-2.067,-2.1839,-2.2725,-2.2918,-2.2963,-2.283,-2.283,-2.2801,-2.2712,-2.2801,-2.298,-2.326,-2.3348,0.0,0.0,0.0,0.0,0.0,0.0,0.0,0.0,0.0,0.0,0.0,0.0,0.0,-2.4966,-2.4966,-2.4966,-2.5227,-2.6221,-2.623,-2.6408,-2.8142,-2.8355,0.0,-3.1332,-3.1952,0.0,-3.4455,0.0,0.0,0.0,0.0,0.0,0.0,0.0,0.0,0.0,0.0,0.0,0.0,0.0,0.0,0.0,0.0,0.0,0.0,0.0,0.0,0.0,0.0,0.0,0.0,0.0,-4.3575,-4.403,-4.403,-4.3886,-4.3642,-4.3642,-4.3841,-4.4207,-4.4207,-4.4207,-4.4207,-4.4207,-4.4207,-4.4207,-4.4207,-4.4266,-4.4306,-4.4306,-4.4421,-4.464,-4.4751,-4.4802,-4.4821,0.0,0.0,0.0,0.0,0.0,0.0,0.0,0.0,0.0,0.0,0.0,0.0,0.0,0.0,0.0,0.0,0.0,0.0,0.0,0.0,-1.7639,-1.7787,-1.7868,-1.7908,-1.7908,-1.8607,-1.9418,-2.0302,-2.1845,-2.2805,-2.3142,-2.3201,-2.3157,-2.3037,-2.3037,-2.2992,-2.2888,-2.2888,-2.3098,-2.3406,-2.3406,-2.3782,0.0,0.0,0.0,0.0,0.0,0.0,0.0,0.0,-2.4902,-2.5005,-2.5139,-2.5178,-2.5217,-2.5333,-2.5416,-2.56,-2.6085,-2.6552,-2.7164,-2.8339,-2.8876,0.0,0.0,-3.2767,-3.3591,-3.4956,0.0,0.0,0.0,0.0,0.0,0.0,0.0,0.0,0.0,0.0,0.0,0.0,0.0,0.0,0.0,0.0,0.0,0.0,0.0,0.0,0.0,0.0,0.0,0.0,0.0,-4.417,-4.4335,-4.4335,-4.4306,-4.4199,-4.4199,-4.4277,-4.443,-4.443,-4.443,-4.443,-4.443,-4.443,-4.443,-4.443,-4.4468,-4.4587,-4.4667,-4.4745,-4.4821,-4.487,-4.4895,-4.4895,0.0,0.0,0.0,0.0,0.0,0.0,0.0,0.0,0.0,0.0,0.0,0.0,0.0,0.0,0.0,0.0,0.0,0.0,-1.7393,-1.7639,-1.7908,-1.8187,-1.8383,-1.8616,-1.8884,-1.9308,-2.002,-2.0947,-2.2584,-2.3363,-2.3319,-2.3319,-2.3246,-2.3082,-2.3037,-2.2992,-2.2888,-2.2947,-2.3142,-2.3508,-2.3651,-2.409,0.0,0.0,0.0,0.0,0.0,0.0,0.0,0.0,-2.5123,-2.5201,-2.5371,-2.541,-2.5448,-2.5659,-2.5775,-2.5924,-2.6193,-2.6666,-2.7356,-2.8491,0.0,0.0,-3.2961,-3.4052,-3.5133,0.0,0.0,0.0,0.0,0.0,0.0,0.0,0.0,0.0,0.0,0.0,0.0,0.0,0.0,0.0,0.0,0.0,0.0,0.0,0.0,0.0,0.0,0.0,0.0,0.0,-4.4487,-4.4515,-4.4551,-4.4551,-4.4578,-4.4632,-4.4632,-4.4578,-4.4515,-4.4515,-4.4524,-4.4551,-4.4551,-4.4578,-4.4632,-4.4632,-4.4685,-4.4751,-4.4611,-4.474,-4.4967,-4.4991,-4.5033,-4.5057,0.0,0.0,0.0,0.0,0.0,0.0,0.0,0.0,0.0,0.0,0.0,0.0,0.0,0.0,0.0,0.0,0.0,0.0,-1.7787,-1.7787,-1.8187,-1.9064,-1.8707,-1.8884,-1.969,-1.9956,-2.0444,-2.1126,-2.2782,-2.3465,-2.3304,-2.3304,-2.3246,-2.3082,-2.2933,-2.2902,-2.2902,-2.3037,-2.329,-2.3638,-2.4199,-2.4608,-2.4942,0.0,0.0,0.0,0.0,0.0,0.0,0.0,-2.5432,-2.5605,-2.56,-2.5616,-2.5675,-2.5921,-2.6013,-2.6139,-2.6723,-2.6674,-2.6892,0.0,0.0,0.0,-3.5297,-3.6241,-3.7456,0.0,0.0,0.0,0.0,0.0,0.0,0.0,0.0,0.0,0.0,0.0,0.0,0.0,0.0,0.0,0.0,0.0,0.0,0.0,0.0,0.0,0.0,0.0,0.0,0.0,-4.4515,-4.4551,-4.4693,-4.4712,-4.477,-4.4895,-4.4895,-4.4745,-4.4496,-4.4496,-4.4578,-4.4712,-4.4712,-4.4789,-4.4895,-4.4895,-4.4895,-4.4843,-4.4106,-4.4341,-4.5125,-4.5235,-4.5297,-4.5297,0.0,0.0,0.0,0.0,0.0,0.0,0.0,0.0,0.0,0.0,0.0,0.0,0.0,0.0,0.0,0.0,0.0,0.0,-1.8266,-1.8553,-1.8822,-1.9101,-1.9273,-1.9457,-1.969,-2.0236,-2.0867,-2.152,-2.2491,-2.2951,-2.2882,-2.2882,-2.3078,-2.3378,-2.3334,-2.329,-2.3187,-2.3231,-2.3595,-2.4199,-2.4348,-2.4808,-2.54,0.0,0.0,0.0,0.0,0.0,0.0,0.0,0.0,0.0,-2.5787,-2.5954,-2.6134,-2.6347,-2.6624,-2.6906,-2.7181,-2.8053,0.0,0.0,0.0,0.0,0.0,-3.7791,0.0,0.0,0.0,0.0,0.0,0.0,0.0,0.0,0.0,0.0,0.0,0.0,0.0,0.0,0.0,0.0,0.0,0.0,0.0,0.0,0.0,0.0,0.0,0.0,0.0,0.0,-4.4134,-4.3907,-4.3932,-4.4518,-4.4543,-4.4004,-4.4611,-4.4846,-4.477,-4.477,-4.4796,-4.4821,-4.4821,-4.4846,-4.4895,-4.4991,-4.5057,-4.5019,-4.4906,-4.5006,-4.5235,-4.5338,-4.5359,-4.5359,0.0,0.0,0.0,0.0,0.0,0.0,0.0,0.0,0.0,0.0,0.0,0.0,0.0,0.0,0.0,0.0,0.0,0.0,0.0,-1.8988,-1.9176,-1.9325,-1.9581,-1.969,-1.969,-2.0363,-2.0782,-2.0902,-2.1829,-2.2428,-2.2724,-2.2626,-2.2942,-2.3509,-2.3466,-2.3451,-2.3566,-2.361,-2.3964,-2.4552,-2.4752,-2.5121,-2.5589,0.0,0.0,0.0,0.0,0.0,0.0,0.0,0.0,0.0,-2.597,-2.6206,-2.6452,-2.6691,-2.7023,-2.7393,-2.7861,0.0,0.0,0.0,0.0,0.0,0.0,0.0,0.0,0.0,0.0,0.0,0.0,0.0,0.0,0.0,0.0,0.0,0.0,0.0,0.0,0.0,0.0,0.0,0.0,0.0,0.0,0.0,0.0,0.0,0.0,0.0,0.0,0.0,-4.3369,-4.3133,-4.3202,-4.3734,-4.3908,-4.3764,-4.4296,-4.4715,-4.5057,-4.4943,-4.473,-4.4455,-4.452,-4.4734,-4.5023,-4.4443,-4.4601,-4.5156,-4.4532,-4.4516,-4.4899,-4.5265,-4.5208,-4.4921,0.0,0.0,0.0,0.0,0.0,0.0,0.0,0.0,0.0,0.0,0.0,0.0,0.0,0.0,0.0,0.0,0.0,0.0,0.0,0.0,-1.9325,-1.969,-1.969,-1.969,-1.969,-2.0303,-2.0318,-1.969,-2.0976,-2.1934,-2.2634,-2.2494,-2.2825,-2.3509,-2.3407,-2.361,-2.3964,-2.4105,-2.442,-2.4831,-2.5297,-2.554,-2.5631,-2.6043,0.0,0.0,0.0,0.0,0.0,0.0,0.0,0.0,-2.6256,-2.6415,-2.6708,-2.694,-2.723,-2.7622,-2.8535,0.0,0.0,0.0,0.0,0.0,0.0,0.0,0.0,0.0,0.0,0.0,0.0,0.0,0.0,0.0,0.0,0.0,0.0,0.0,0.0,0.0,0.0,0.0,0.0,0.0,0.0,0.0,0.0,0.0,0.0,0.0,0.0,0.0,-4.2356,-4.2386,-4.2495,-4.2572,-4.3016,0.0,-4.3864,-4.4303,-4.5067,-4.4905,-4.4402,-4.3716,-4.3918,-4.4399,-4.4954,-4.3444,-4.3732,-4.5016,-4.3427,-4.3331,-4.4173,-4.4902,-4.471,-4.4077,0.0,0.0,0.0,0.0,0.0,0.0,0.0,0.0,0.0,0.0,0.0,0.0,0.0,0.0,0.0,0.0,0.0,0.0,0.0,0.0,-1.9617,-1.969,-1.969,-1.969,-1.969,-1.9824,-1.9824,-1.969,-2.0528,-2.1261,-2.1904,-2.1904,-2.2476,-2.361,-2.3909,-2.4135,-2.4245,-2.4599,-2.4965,-2.5335,-2.5449,-2.5721,-2.6079,-2.6168,-2.622,0.0,0.0,0.0,0.0,0.0,0.0,0.0,-2.645,-2.6691,-2.699,-2.7247,-2.7478,-2.7677,0.0,0.0,0.0,0.0,0.0,0.0,0.0,0.0,0.0,0.0,0.0,0.0,0.0,0.0,0.0,0.0,0.0,0.0,0.0,0.0,0.0,0.0,0.0,0.0,0.0,0.0,0.0,0.0,0.0,0.0,0.0,0.0,0.0,-4.2525,-4.2004,-4.1703,-4.1742,-4.241,-4.2507,0.0,-4.2737,-4.3158,-4.335,-4.3918,-4.3764,-4.304,-4.377,-4.3809,-4.3312,-4.3005,-4.3101,-4.3407,-4.3024,-4.3004,-4.3215,-4.3423,-4.3403,-4.3269,0.0,0.0,0.0,0.0,0.0,0.0,0.0,0.0,0.0,0.0,0.0,0.0,0.0,0.0,0.0,0.0,0.0,0.0,0.0,0.0,-1.9848,-1.9848,-1.9848,-1.9797,-1.9762,-1.9762,-1.9726,-1.969,-2.0378,-2.1051,-2.1695,-2.1695,-2.2505,-2.3952,-2.4177,-2.4533,-2.4887,-2.4748,-2.5153,-2.5779,-2.5435,-2.5678,-2.622,-2.622,-2.622,-2.622,-2.622,0.0,0.0,0.0,0.0,0.0,0.0,0.0,-2.723,-2.7448,-2.7582,-2.7801,0.0,0.0,0.0,0.0,0.0,0.0,0.0,0.0,0.0,0.0,0.0,0.0,0.0,0.0,0.0,0.0,0.0,0.0,0.0,0.0,0.0,0.0,0.0,0.0,0.0,0.0,0.0,0.0,0.0,0.0,0.0,-4.1354,-4.1415,-4.1491,-4.1131,-4.0922,-4.0922,-4.138,-4.159,-4.1552,-4.203,-4.2278,-4.2296,-4.2699,-4.2872,-4.2852,-4.291,-4.2909,-4.2833,-4.2468,-4.2563,-4.2907,-4.2502,-4.2598,-4.2998,-4.3035,-4.3049,-4.3008,0.0,0.0,0.0,0.0,0.0,0.0,0.0,0.0,0.0,0.0,0.0,0.0,0.0,0.0,0.0,0.0,0.0,0.0,0.0,0.0,0.0,-2.0005,-2.0005,-1.9955,-1.9848,-1.9797,-1.9822,-1.9891,-2.0475,-2.115,0.0,-2.1859,-2.2733,-2.4302,-2.4385,-2.4736,-2.5292,-2.4814,-2.5062,-2.5773,-2.5176,-2.5359,-2.6021,-2.6021,-2.6104,-2.622,-2.622,-2.622,-2.622,-2.622,0.0,0.0,0.0,0.0,-2.7417,-2.7642,-2.776,-2.7988,0.0,0.0,0.0,0.0,0.0,0.0,0.0,0.0,0.0,0.0,0.0,0.0,0.0,0.0,0.0,0.0,0.0,0.0,0.0,0.0,0.0,0.0,0.0,0.0,0.0,0.0,0.0,0.0,0.0,0.0,-4.0213,-4.0883,-4.0998,-4.0329,-4.0291,-4.0291,-4.0291,-4.0308,-4.0671,-4.1379,-4.1452,-4.1487,-4.1487,-4.1487,-4.1852,-4.243,-4.1911,-4.1987,-4.2428,-4.1775,-4.1925,-4.2516,-4.1786,-4.1992,-4.2678,-4.2659,-4.2672,-4.2568,0.0,0.0,0.0,0.0,0.0,0.0,0.0,0.0,0.0,0.0,0.0,0.0,0.0,0.0,0.0,0.0,0.0,0.0,0.0,0.0,0.0,-2.0005,-2.0005,-2.0005,-1.997,-1.9848,-2.0083,-2.0655,-2.079,0.0,0.0,0.0,0.0,-2.4317,-2.4679,-2.4764,-2.4648,-2.4919,-2.4762,-2.4299,-2.4199,-2.4597,-2.5259,-2.5259,-2.5657,-2.622,-2.622,-2.622,-2.622,-2.622,-2.6258,0.0,0.0,0.0,-2.7426,-2.7961,-2.8119,-2.8164,0.0,0.0,0.0,0.0,0.0,0.0,0.0,0.0,0.0,0.0,0.0,0.0,0.0,0.0,0.0,0.0,0.0,0.0,0.0,0.0,0.0,0.0,0.0,0.0,0.0,0.0,0.0,0.0,0.0,0.0,-4.0291,-4.0387,-4.0425,-4.031,-4.029,-4.0289,-4.0289,-4.0362,-4.0456,-4.0551,-4.0622,-4.0674,-4.0674,-4.0649,-4.0674,-4.078,-4.1428,-4.1368,-4.0809,-4.0688,-4.0723,-4.0835,-4.077,-4.0823,-4.0935,-4.0926,-4.0921,-4.0916,0.0,0.0,0.0,0.0,0.0,0.0,0.0,0.0,0.0,0.0,0.0,0.0,0.0,0.0,0.0,0.0,0.0,0.0,0.0,0.0,0.0,-2.0181,-2.0181,-2.0131,-2.0061,-2.001,-2.0091,-2.0358,0.0,0.0,0.0,-2.3325,-2.4051,0.0,0.0,0.0,-2.5425,-2.5207,-2.516,-2.5209,-2.4779,-2.506,-2.5723,-2.5723,-2.5938,-2.622,-2.622,-2.6239,-2.6258,-2.6258,-2.64,-2.6657,-2.7132,0.0,0.0,0.0,0.0,0.0,0.0,0.0,0.0,0.0,0.0,0.0,0.0,0.0,0.0,0.0,0.0,0.0,0.0,0.0,0.0,0.0,0.0,0.0,0.0,0.0,0.0,0.0,0.0,0.0,0.0,0.0,0.0,0.0,0.0,-4.01,-3.9603,-3.9603,-3.9831,-4.029,-3.9865,-3.9634,-3.9634,-4.0183,-4.0466,-4.046,-4.0495,-4.0511,-4.0511,-4.0543,-4.0508,-4.0479,-4.0896,-4.0873,-4.0562,-4.0569,-4.0564,-4.0564,-4.0598,-4.0906,-4.1273,-4.0781,-4.093,-4.131,0.0,0.0,0.0,0.0,0.0,0.0,0.0,0.0,0.0,0.0,0.0,0.0,0.0,0.0,0.0,0.0,0.0,0.0,0.0,0.0,0.0,-2.0304,-2.0304,-2.0347,-2.0395,-2.0192,-2.0248,-2.0527,0.0,0.0,-2.2752,-2.3834,-2.4705,0.0,-2.5153,-2.5363,0.0,0.0,0.0,-2.5607,-2.5044,-2.5259,-2.5938,-2.5922,-2.6073,-2.6239,-2.6239,-2.6293,-2.6347,-2.6347,-2.6538,-2.6825,-2.7224,-2.7517,0.0,0.0,0.0,0.0,0.0,0.0,0.0,0.0,0.0,0.0,0.0,0.0,0.0,0.0,0.0,0.0,0.0,0.0,0.0,0.0,0.0,0.0,0.0,0.0,0.0,0.0,0.0,0.0,0.0,0.0,0.0,0.0,0.0,-3.9392,-3.8723,-3.8759,-3.908,-3.9674,-3.9095,-3.8802,-3.8802,-3.9522,-3.9977,-4.02,-4.0196,-4.0312,-4.0523,-4.0588,-4.0569,-4.0534,-4.0569,-4.0603,-4.0603,-4.0593,-4.0588,-4.0588,-4.0621,-4.1026,-4.1528,-4.0886,-4.1092,-4.1602,0.0,0.0,0.0,0.0,0.0,0.0,0.0,0.0,0.0,0.0,0.0,0.0,0.0,-2.0304,-2.0304,-2.0304,0.0,0.0,0.0,0.0,0.0,-2.0304,-2.0304,0.0,-2.1209,-2.0472,-2.0727,0.0,0.0,0.0,-2.3629,-2.4031,-2.4834,-2.5937,-2.5631,-2.5346,-2.516,0.0,0.0,0.0,-2.4067,-2.4497,-2.516,-2.5229,-2.5679,0.0,0.0,0.0,-2.6485,-2.6485,-2.6554,-2.6725,-2.7299,-2.7589,-2.7818,0.0,0.0,0.0,0.0,0.0,0.0,0.0,0.0,0.0,0.0,0.0,0.0,0.0,0.0,0.0,0.0,0.0,0.0,0.0,0.0,0.0,0.0,0.0,0.0,0.0,0.0,0.0,0.0,0.0,0.0,0.0,0.0,-3.7915,-3.7857,-3.7929,-3.7964,-3.8022,-3.7993,-3.797,-3.797,-3.8074,-3.8546,-3.9354,-3.936,-3.9798,-4.0588,-4.0612,-4.0607,-4.0588,-4.0607,-4.0607,-4.0607,-4.0588,-4.0588,-4.0621,-4.0668,-4.072,-4.0758,-4.0778,-4.0829,-4.0868,0.0,0.0,0.0,0.0,0.0,0.0,0.0,0.0,0.0,0.0,0.0,0.0,0.0,-2.0304,-2.0304,-2.0304,-2.0304,0.0,0.0,0.0,0.0,-2.0304,-2.072,-2.106,-2.127,-2.1237,0.0,0.0,0.0,-2.2645,-2.3856,-2.4381,-2.5266,-2.6293,-2.5848,-2.5737,-2.5859,-2.5841,0.0,0.0,0.0,0.0,0.0,0.0,0.0,0.0,0.0,0.0,0.0,-2.6554,-2.6759,-2.7053,-2.7487,-2.7783,-2.8037,0.0,0.0,0.0,0.0,0.0,0.0,0.0,0.0,0.0,0.0,0.0,0.0,0.0,0.0,0.0,0.0,0.0,0.0,0.0,0.0,0.0,0.0,0.0,0.0,0.0,0.0,0.0,0.0,0.0,0.0,0.0,0.0,0.0,-3.7064,-3.7095,-3.736,-3.7878,-3.7406,-3.7401,-3.7959,-3.7483,-3.7651,-3.846,-3.908,-3.9538,-3.9846,-4.0409,-4.0668,-4.0668,-4.0771,-4.0739,-4.0668,-4.0713,-4.0733,-4.0726,-4.0746,-4.0759,-4.0778,-4.079,-4.079,-4.0796,0.0,0.0,0.0,0.0,0.0,0.0,0.0,0.0,0.0,0.0,0.0,0.0,0.0,0.0,-2.0304,-2.0304,-2.0304,-2.0304,-2.0304,-2.0304,-2.0304,-2.0304,-2.0736,-2.1219,-2.1797,-2.1702,0.0,0.0,0.0,0.0,0.0,-2.4746,-2.5664,-2.6555,-2.5924,-2.5922,0.0,0.0,0.0,-2.631,0.0,0.0,-2.6382,0.0,0.0,0.0,0.0,0.0,0.0,0.0,0.0,0.0,0.0,0.0,0.0,0.0,0.0,0.0,0.0,0.0,0.0,0.0,0.0,0.0,0.0,0.0,0.0,0.0,0.0,0.0,0.0,0.0,0.0,0.0,0.0,0.0,0.0,0.0,0.0,0.0,0.0,0.0,0.0,0.0,0.0,0.0,0.0,0.0,-3.6232,-3.6257,-3.6541,-3.7079,-3.6584,-3.6579,-3.7156,-3.6658,-3.6806,-3.7616,-3.826,-3.8736,-3.9025,-3.9914,-4.0346,-4.0385,-4.0739,-4.0836,-4.0746,-4.0829,-4.0829,-4.079,-4.081,-4.0822,-4.0803,-4.0803,-4.08,-4.0818,0.0,0.0,0.0,0.0,0.0,0.0,0.0,0.0,0.0,-2.0304,0.0,0.0,0.0,0.0,0.0,-2.0366,-2.0366,-2.0366,-2.0366,-2.0366,-2.035,-2.0335,0.0,0.0,0.0,0.0,0.0,0.0,0.0,0.0,0.0,0.0,-2.5981,-2.6657,-2.5848,-2.5883,-2.6485,0.0,-2.6468,-2.6485,0.0,-2.6485,-2.652,0.0,0.0,0.0,-2.6708,-2.6742,0.0,0.0,0.0,0.0,0.0,0.0,0.0,0.0,0.0,0.0,0.0,0.0,0.0,0.0,0.0,0.0,0.0,0.0,0.0,0.0,0.0,0.0,0.0,0.0,0.0,0.0,0.0,0.0,0.0,0.0,0.0,0.0,0.0,0.0,0.0,0.0,0.0,0.0,0.0,-3.5412,-3.5412,-3.5441,-3.5468,-3.5468,-3.547,-3.5477,-3.5477,-3.556,-3.5997,-3.6775,-3.6935,-3.7411,-3.8202,-3.9141,-3.9618,-3.9734,-4.0532,-4.0834,-4.0815,-4.0951,-4.0931,-4.0815,-4.0873,-4.0866,-4.0812,-4.0812,-4.084,-4.0898,0.0,0.0,0.0,0.0,0.0,0.0,0.0,0.0,-2.0304,0.0,0.0,0.0,-2.0983,-2.1476,-2.1732,-2.1732,-2.1732,-2.1732,-2.1732,-2.1732,-2.1553,-2.106,-2.1507,-2.1854,-2.2106,0.0,0.0,0.0,0.0,0.0,0.0,0.0,0.0,0.0,-2.5897,-2.5949,-2.6607,-2.5916,0.0,0.0,-2.6554,-2.6589,0.0,0.0,0.0,0.0,0.0,-2.7875,0.0,0.0,-2.8405,-2.7999,0.0,0.0,0.0,0.0,0.0,0.0,-2.8761,0.0,0.0,0.0,0.0,0.0,0.0,0.0,0.0,0.0,0.0,0.0,0.0,0.0,0.0,0.0,0.0,0.0,0.0,0.0,0.0,0.0,0.0,0.0,0.0,0.0,0.0,0.0,-3.5398,-3.5412,-3.546,-3.4885,-3.4552,-3.4552,-3.461,-3.466,-3.4699,-3.5353,-3.5809,-3.6074,-3.6745,-3.7201,-3.744,-3.8327,-3.9083,-3.9727,-3.9991,-4.0403,-4.0869,-4.0918,-4.0914,-4.0875,-4.089,-4.0883,-4.0864,-4.0864,-4.0883,-4.0905,0.0,0.0,0.0,0.0,0.0,0.0,-2.0494,-2.0509,-2.0475,0.0,0.0,0.0,-2.1624,-2.2226,-2.2496,-2.2324,-2.2286,-2.2286,-2.2286,-2.2174,-2.1942,-2.1537,-2.2039,-2.2464,-2.2697,-2.3497,0.0,0.0,0.0,0.0,0.0,0.0,0.0,0.0,0.0,0.0,0.0,0.0,0.0,0.0,-2.7012,0.0,0.0,-2.7809,-2.8253,0.0,0.0,0.0,-2.9299,-2.9723,-2.9376,0.0,0.0,0.0,0.0,0.0,0.0,0.0,0.0,0.0,0.0,0.0,0.0,0.0,0.0,-2.9648,0.0,0.0,0.0,0.0,0.0,0.0,0.0,0.0,0.0,0.0,0.0,0.0,0.0,0.0,0.0,0.0,0.0,0.0,0.0,-3.4889,-3.5235,-3.546,-3.5501,-3.4713,-3.425,-3.4276,-3.3966,-3.4017,-3.4429,-3.4942,-3.5397,-3.5815,-3.6346,-3.6597,-3.6631,-3.7874,-3.8736,-3.928,-3.9979,-4.0372,-4.0487,-4.0474,-4.0656,-4.0902,-4.0922,-4.0937,-4.0949,-4.0949,-4.0961,-4.098,0.0,0.0,0.0,-2.0496,-2.0626,-2.0722,-2.0838,-2.0968,-2.0931,0.0,-2.1121,-2.1732,-2.2332,-2.2817,-2.2922,-2.254,-2.2517,-2.2517,-2.2555,-2.228,-2.2067,-2.1988,-2.2387,-2.3047,-2.3951,-2.4426,-2.496,0.0,0.0,0.0,0.0,0.0,0.0,0.0,0.0,0.0,0.0,0.0,0.0,-2.6961,-2.7641,-2.7964,0.0,0.0,-2.9837,0.0,-3.0309,-3.0205,-2.9948,-3.0296,-3.013,0.0,0.0,0.0,0.0,0.0,-3.0148,0.0,0.0,0.0,0.0,0.0,0.0,0.0,-2.914,-2.9122,-2.9329,0.0,0.0,0.0,0.0,0.0,0.0,0.0,0.0,0.0,0.0,0.0,0.0,0.0,0.0,0.0,0.0,-3.3563,-3.3999,-3.4045,-3.4776,-3.5213,-3.5226,-3.4468,-3.4063,-3.4115,-3.3473,-3.3484,-3.4241,-3.4509,-3.5007,-3.568,-3.5834,-3.5916,-3.5962,-3.7519,-3.8313,-3.8549,-3.9977,-4.0273,-3.9764,-3.9761,-4.0156,-4.0789,-4.0848,-4.0926,-4.101,-4.101,-4.1047,-4.1113,0.0,0.0,-2.015,-2.0323,-2.0806,-2.1177,-2.1177,-2.1949,-2.233,-2.196,-2.2486,-2.2963,-2.3086,-2.3659,-2.3983,-2.3917,-2.3917,-2.3958,-2.4055,-2.4011,-2.3764,-2.3264,-2.3628,-2.3816,-2.377,-2.463,-2.5313,-2.5848,0.0,0.0,0.0,0.0,0.0,0.0,0.0,0.0,0.0,0.0,0.0,-2.8184,-2.7639,0.0,-2.8464,-2.9026,-3.0008,-3.1105,-3.115,-3.1494,-3.187,0.0,-3.1458,-3.1683,0.0,0.0,0.0,0.0,0.0,0.0,0.0,0.0,0.0,0.0,0.0,0.0,-3.0118,-2.9971,-2.9871,0.0,0.0,0.0,0.0,0.0,0.0,0.0,0.0,0.0,0.0,0.0,0.0,0.0,0.0,0.0,0.0,-3.3032,-3.3128,-3.3141,-3.3359,-3.348,-3.3485,-3.2775,-3.2362,-3.24,-3.2955,-3.3036,-3.257,-3.4604,-3.5398,-3.4918,-3.5644,-3.5976,-3.5996,-3.6337,-3.6875,-3.758,-3.7899,-3.8346,-3.8846,-3.8846,-3.934,-4.0091,-4.0049,-4.0459,-4.1086,-4.1086,-4.1084,-4.1194,0.0,0.0,-2.089,-2.1471,-2.1856,-2.2157,-2.2315,-2.2789,-2.3012,-2.2629,-2.3374,-2.3849,-2.3804,-2.4346,-2.4589,-2.4302,-2.4574,-2.4775,-2.4806,-2.4872,-2.4749,-2.4466,-2.4839,-2.4963,-2.4793,-2.5695,-2.6231,-2.6444,0.0,0.0,0.0,0.0,0.0,0.0,0.0,0.0,0.0,0.0,-2.7516,-2.8349,-2.8543,0.0,-3.0127,-3.0916,-3.1661,-3.236,-3.2541,-3.2834,-3.301,-3.2038,-3.2068,0.0,0.0,-3.1206,-3.1426,0.0,-3.1983,-3.2082,0.0,0.0,0.0,-3.2008,0.0,0.0,0.0,-3.0286,-3.0142,0.0,0.0,0.0,0.0,0.0,0.0,0.0,0.0,0.0,0.0,0.0,0.0,0.0,0.0,0.0,0.0,-3.2045,-3.248,-3.2916,-3.3022,-3.3045,-3.3056,-3.2317,-3.1923,-3.1953,-3.2031,-3.2273,-3.2742,-3.4027,-3.4894,-3.5347,-3.5796,-3.5996,-3.6003,-3.6445,-3.6891,-3.7321,-3.775,-3.7946,-3.7946,-3.7946,-3.8219,-3.8687,-3.9488,-4.0073,-4.0503,-4.0932,-4.1108,-4.1166,-2.1007,0.0,0.0,-2.2458,-2.2946,-2.326,-2.3492,-2.3721,-2.3802,-2.3483,-2.4163,-2.4668,-2.4565,0.0,0.0,-2.4922,-2.5433,-2.5747,0.0,0.0,0.0,-2.5681,-2.6047,-2.619,-2.6053,-2.673,-2.7087,-2.7057,0.0,0.0,0.0,0.0,0.0,0.0,0.0,0.0,0.0,0.0,0.0,-2.8643,0.0,-3.06,-3.1582,-3.2655,-3.3176,-3.335,-3.368,-3.3807,-3.367,-3.2692,0.0,-3.2724,-3.2063,-3.1887,0.0,0.0,0.0,0.0,0.0,0.0,0.0,0.0,0.0,-3.1691,0.0,0.0,0.0,-2.9827,0.0,0.0,0.0,0.0,0.0,0.0,0.0,0.0,0.0,0.0,0.0,0.0,0.0,0.0,0.0,-3.1044,-3.1761,-3.2471,-3.2574,-3.2607,-3.2626,-3.2009,-3.1685,-3.1738,-3.1313,-3.1656,-3.2909,-3.3404,-3.4273,-3.5503,-3.5835,-3.5991,-3.601,-3.6735,-3.7048,-3.7087,-3.7789,-3.7692,-3.7048,-3.7048,-3.7048,-3.7223,-3.8902,-3.9663,-3.9917,-4.0776,-4.1108,-4.1127,-2.0738,-2.1167,0.0,0.0,-2.3051,-2.4188,-2.3883,-2.4964,-2.5678,-2.5403,-2.5362,0.0,0.0,0.0,0.0,0.0,0.0,0.0,-2.7838,0.0,0.0,-2.7022,-2.738,-2.7267,-2.6623,-2.6922,-2.7152,-2.7267,-2.7152,0.0,0.0,0.0,0.0,0.0,-2.7195,0.0,0.0,0.0,-2.839,0.0,-3.0374,-3.069,0.0,-3.1936,-3.2687,-3.335,-3.368,-3.386,-3.385,0.0,-3.366,-3.3721,0.0,-3.3584,0.0,0.0,0.0,0.0,0.0,0.0,0.0,0.0,-3.3769,0.0,0.0,0.0,-3.1611,-3.1172,0.0,-3.0026,-3.0194,0.0,0.0,0.0,0.0,0.0,0.0,0.0,0.0,0.0,0.0,0.0,0.0,0.0,-3.0621,-3.0769,-3.079,-3.082,-3.0878,-3.0849,-3.0839,-3.0857,-3.1624,-3.1777,-3.1196,-3.3417,-3.4254,-3.371,-3.5249,-3.5991,-3.5991,-3.6111,-3.615,-3.615,-3.6247,-3.6247,-3.615,-3.615,-3.615,-3.6325,-3.8063,-3.9175,-3.9917,-4.0776,-4.1108,-4.1205,-2.1626,-2.2504,0.0,0.0,-2.4265,-2.5056,-2.4852,-2.5777,-2.6475,-2.64,0.0,0.0,0.0,0.0,0.0,0.0,0.0,0.0,0.0,0.0,0.0,0.0,0.0,0.0,-2.7706,-2.8234,-2.8318,-2.7937,-2.7887,-2.7887,0.0,0.0,0.0,0.0,-2.7794,0.0,-2.8281,0.0,0.0,0.0,0.0,0.0,0.0,-3.2806,-3.3396,-3.3716,-3.3868,-3.3921,-3.3947,0.0,-3.3895,0.0,0.0,0.0,0.0,0.0,0.0,0.0,0.0,0.0,0.0,0.0,0.0,0.0,0.0,0.0,-3.2618,0.0,0.0,0.0,0.0,0.0,0.0,0.0,0.0,0.0,0.0,0.0,0.0,0.0,0.0,0.0,0.0,0.0,0.0,0.0,0.0,-2.9834,-2.9901,-3.0404,-3.0711,-3.0763,-3.121,-3.1731,-3.2334,-3.342,-3.4273,-3.4917,-3.5639,-3.5991,-3.5991,-3.5991,-3.601,-3.6004,-3.6004,-3.6001,-3.5997,-3.5997,-3.5997,-3.6114,-3.7328,-3.833,-3.9195,-4.0047,-4.0672,-4.116,-2.295,0.0,0.0,0.0,0.0,0.0,-2.5914,-2.6533,0.0,0.0,0.0,0.0,-2.7824,-2.7917,0.0,0.0,0.0,-2.8711,0.0,0.0,-2.9465,0.0,0.0,0.0,0.0,0.0,-2.9248,-2.8696,-2.8696,-2.8696,0.0,0.0,0.0,0.0,0.0,-2.8969,-2.9329,0.0,0.0,-3.1622,-3.1622,-3.2099,-3.2916,-3.3542,-3.3895,-3.3998,-3.3998,-3.4023,-3.4023,-3.3998,-3.3972,0.0,-3.3998,0.0,0.0,0.0,0.0,0.0,-3.4301,0.0,0.0,0.0,0.0,0.0,0.0,0.0,0.0,0.0,0.0,0.0,0.0,0.0,-3.0552,0.0,0.0,0.0,0.0,0.0,0.0,0.0,0.0,0.0,0.0,0.0,0.0,0.0,0.0,0.0,-2.9379,-2.999,-3.0471,-3.0798,-3.1073,-3.1801,-3.3039,-3.3517,-3.439,-3.5642,-3.5896,-3.5991,-3.5991,-3.601,-3.6004,-3.6001,-3.5997,-3.5994,-3.6005,-3.6005,-3.6005,-3.6083,-3.6883,-3.7753,-3.8661,-3.949,-4.0348,-4.1105,-2.456,-2.4776,0.0,0.0,0.0,0.0,0.0,0.0,0.0,0.0,0.0,0.0,0.0,0.0,0.0,0.0,0.0,-3.1677,-3.164,0.0,-3.0904,0.0,0.0,0.0,0.0,0.0,0.0,-2.9472,0.0,0.0,0.0,0.0,0.0,0.0,0.0,-2.9706,-3.007,-3.0074,-3.0975,-3.2374,-3.2374,-3.3036,-3.4005,0.0,-3.3725,-3.3998,-3.3998,0.0,0.0,-3.4023,-3.4049,0.0,0.0,0.0,0.0,0.0,0.0,0.0,0.0,0.0,0.0,-3.5237,0.0,0.0,0.0,0.0,-3.3938,0.0,0.0,0.0,0.0,-3.1669,-3.1122,-2.9496,0.0,0.0,0.0,0.0,0.0,0.0,0.0,0.0,0.0,0.0,0.0,0.0,0.0,0.0,-2.934,-2.9426,-2.9854,-3.0778,-3.162,-3.2087,-3.2151,-3.3824,-3.4683,-3.4744,-3.5603,-3.5991,-3.5991,-3.6004,-3.6001,-3.6001,-3.6009,-3.6005,-3.6005,-3.6005,-3.6005,-3.6083,-3.6883,-3.7722,-3.8599,-3.9477,-4.0355,-4.1096,0.0,0.0,0.0,0.0,0.0,0.0,0.0,-2.8574,0.0,0.0,0.0,0.0,0.0,0.0,-3.19,0.0,0.0,-3.147,-3.0958,-3.1044,0.0,0.0,0.0,-3.0896,0.0,0.0,0.0,0.0,0.0,0.0,0.0,0.0,0.0,0.0,0.0,-3.0853,0.0,0.0,0.0,0.0,0.0,-3.3574,-3.4148,0.0,0.0,-3.4124,-3.4124,-3.4148,0.0,-3.4148,-3.4124,-3.4191,-3.4791,-3.4562,-3.416,-3.4809,-3.4593,0.0,0.0,0.0,-3.4344,-3.4641,0.0,0.0,0.0,0.0,0.0,0.0,0.0,0.0,0.0,0.0,-3.0719,-3.0151,-2.9612,0.0,0.0,0.0,0.0,0.0,0.0,0.0,0.0,0.0,0.0,0.0,0.0,0.0,0.0,-2.9152,-2.9894,-3.0839,-3.1669,-3.2383,-3.2949,-3.412,-3.4998,-3.5564,-3.5857,-3.601,-3.6004,-3.6001,-3.5974,-3.5919,-3.5938,-3.5929,-3.5924,-3.5924,-3.5924,-3.6021,-3.6879,-3.7737,-3.8614,-3.9477,-4.0359,-4.11,-2.7131,0.0,0.0,0.0,0.0,0.0,0.0,0.0,0.0,0.0,-3.2466,0.0,-3.3363,0.0,-3.2967,0.0,-3.2127,-3.1816,-3.1199,-3.1369,0.0,-3.1083,-3.1684,0.0,0.0,0.0,0.0,0.0,0.0,-3.1219,0.0,0.0,0.0,0.0,0.0,0.0,0.0,0.0,-3.3255,0.0,0.0,-3.3961,0.0,0.0,-3.4221,-3.4197,0.0,-3.4197,-3.4197,-3.4221,-3.4401,-3.4754,-3.5361,-3.5312,-3.5125,-3.5789,-3.5337,-3.4717,-3.5112,-3.4806,0.0,-3.4787,-3.4902,0.0,-3.4999,0.0,0.0,0.0,0.0,0.0,0.0,0.0,0.0,-3.1012,-3.0018,-2.9004,0.0,-2.7514,0.0,0.0,0.0,0.0,0.0,0.0,0.0,-2.5534,-2.6304,0.0,0.0,0.0,-2.9938,-3.086,-3.1973,-3.2831,-3.3398,-3.4569,-3.5447,-3.5991,-3.5991,-3.6007,-3.6001,-3.5997,-3.5966,-3.5909,-3.5904,-3.5899,-3.5908,-3.5908,-3.5908,-3.6025,-3.7194,-3.8013,-3.8617,-3.9485,-4.0343,-4.1103,0.0,0.0,0.0,0.0,-2.7876,0.0,0.0,0.0,-3.1903,0.0,-3.3248,-3.406,-3.36,-3.3922,-3.4003,-3.3507,-3.3185,0.0,-3.2422,-3.2381,0.0,0.0,-3.1975,-3.2662,-3.3142,0.0,0.0,0.0,0.0,0.0,0.0,0.0,0.0,0.0,-3.2144,0.0,-3.3214,-3.3214,-3.3616,-3.4197,-3.4197,-3.4197,-3.4221,-3.4269,-3.4269,-3.4221,-3.4221,-3.4258,-3.4277,-3.4311,-3.487,-3.5621,-3.5725,-3.6205,-3.6777,-3.6926,-3.6323,-3.5789,-3.6603,-3.5661,-3.4664,-3.5612,0.0,0.0,0.0,0.0,-3.5496,0.0,0.0,0.0,0.0,0.0,0.0,-3.1922,-3.0385,-2.9012,-2.8189,0.0,0.0,0.0,0.0,0.0,0.0,0.0,-2.556,-2.5517,-2.6299,-2.72,0.0,0.0,-2.9957,-3.0938,-3.2558,-3.3417,-3.3456,-3.5152,-3.5991,-3.5991,-3.5991,-3.6007,-3.5997,-3.6009,-3.5958,-3.5909,-3.5894,-3.5908,-3.5908,-3.5908,-3.5908,-3.6064,-3.7818,-3.8558,-3.8733,-3.9552,-4.039,-4.111,-2.8973,-2.9076,-2.9283,0.0,-2.9937,-3.0056,0.0,0.0,0.0,0.0,-3.4562,-3.569,-3.5589,-3.5673,-3.5466,-3.4816,-3.4674,0.0,0.0,0.0,0.0,-3.3416,-3.3701,-3.3938,-3.4053,-3.3271,0.0,-3.3186,0.0,0.0,-3.2179,0.0,0.0,0.0,0.0,0.0,-3.3273,-3.355,-3.3876,-3.4269,-3.4269,-3.4293,0.0,0.0,-3.4363,-3.434,-3.434,-3.4769,-3.5216,-3.4587,-3.4941,-3.5781,-3.6403,-3.6328,-3.6211,-3.743,-3.6795,-3.5731,-3.6002,-3.5412,-3.4769,-3.5018,-3.5205,-3.5285,0.0,0.0,0.0,0.0,0.0,0.0,0.0,0.0,0.0,0.0,0.0,0.0,0.0,0.0,0.0,0.0,0.0,0.0,0.0,0.0,-2.5585,-2.5576,-2.6378,-2.7253,0.0,0.0,0.0,-3.1741,-3.2831,-3.371,-3.4354,-3.5447,-3.5991,-3.5991,-3.6007,-3.5997,-3.6009,-3.5958,-3.5929,-3.5894,-3.5889,-3.5908,-3.5908,-3.5908,-3.5908,-3.6064,-3.7818,-3.9298,-4.0467,-4.0682,-4.0916,-4.1188,-2.9797,0.0,0.0,-3.1145,0.0,0.0,-3.1876,0.0,0.0,-3.4329,-3.5326,0.0,-3.6429,-3.6363,-3.6266,-3.6197,-3.5635,0.0,0.0,0.0,0.0,-3.4007,-3.4549,-3.4913,-3.4969,-3.3816,0.0,-3.3875,0.0,0.0,-3.2301,0.0,0.0,0.0,0.0,-3.3214,0.0,-3.3895,-3.4124,-3.4293,-3.434,0.0,0.0,-3.4431,-3.445,-3.445,-3.4473,-3.4768,-3.5114,-3.5049,-3.5348,-3.5946,-3.713,-3.7186,-3.705,-3.8371,-3.7614,-3.637,-3.6437,-3.57,-3.4962,-3.5049,-3.5232,-3.5402,-3.543,-3.5528,-3.5596,0.0,0.0,0.0,0.0,0.0,0.0,0.0,0.0,0.0,0.0,0.0,0.0,0.0,0.0,0.0,0.0,0.0,-2.5761,-2.6142,-2.6989,-2.7849,0.0,0.0,0.0,-3.2053,-3.3319,-3.4198,-3.4705,-3.5935,-3.6381,-3.6007,-3.6001,-3.5974,-3.5958,-3.5914,-3.5904,-3.5908,-3.5908,-3.5908,-3.5908,-3.5908,-3.5908,-3.6064,-3.7818,-3.9571,-4.111,-4.111,-4.111,-4.1169,0.0,0.0,0.0,0.0,0.0,0.0,0.0,-3.478,0.0,-3.5701,0.0,-3.6316,-3.6758,-3.6646,-3.6723,-3.7327,0.0,-3.5393,-3.4968,-3.5399,-3.5208,-3.4163,-3.5139,-3.5754,-3.5889,-3.4324,0.0,0.0,0.0,0.0,0.0,0.0,0.0,0.0,0.0,0.0,0.0,-3.434,-3.4484,0.0,-3.4573,-3.4521,-3.4431,-3.4495,-3.4517,-3.4517,-3.458,-3.4592,-3.4731,-3.5544,-3.5885,-3.6222,-3.7676,-3.8083,-3.8209,-3.9038,-3.8237,-3.7062,-3.7163,-3.6176,-3.5178,-3.5364,-3.5418,-3.5464,-3.5589,-3.5612,-3.5612,-3.5612,-3.5612,-3.5623,0.0,0.0,0.0,0.0,0.0,0.0,0.0,0.0,0.0,0.0,0.0,0.0,0.0,0.0,-2.6097,-2.6856,-2.7719,-2.8572,0.0,0.0,0.0,-3.2073,-3.3671,0.0,-3.4861,0.0,-3.6807,-3.6153,-3.6036,-3.5966,-3.5909,-3.5909,-3.5899,-3.5908,-3.5908,-3.5908,-3.5908,-3.5908,-3.6025,-3.6395,-3.7915,-3.9571,-4.111,-4.111,-4.111,-4.113,0.0,0.0,0.0,0.0,0.0,-3.6326,-3.6963,-3.7508,-3.7562,-3.6707,-3.8094,0.0,-3.7542,-3.749,-3.7356,-3.6887,-3.6609,0.0,0.0,0.0,0.0,-3.6289,-3.6589,-3.6738,-3.6777,-3.5843,-3.5124,0.0,0.0,0.0,0.0,0.0,0.0,0.0,0.0,0.0,-3.5281,-3.5349,0.0,-3.5539,-3.5539,-3.5173,-3.458,-3.458,-3.4583,-3.4583,-3.4602,-3.5052,-3.5668,-3.5837,-3.6306,-3.693,-3.7211,-3.7305,-3.7347,-3.7624,-3.7026,-3.6329,-3.6518,-3.5978,-3.5364,-3.5391,-3.5521,-3.5643,-3.5673,-3.5684,-3.5684,-3.5684,-3.5676,-3.5697,-3.5697,0.0,0.0,0.0,0.0,0.0,0.0,0.0,0.0,0.0,0.0,0.0,0.0,0.0,0.0,0.0,0.0,0.0,0.0,0.0,0.0,0.0,-3.3085,0.0,0.0,0.0,-3.6485,-3.698,-3.625,-3.5914,-3.5909,-3.5899,-3.5894,-3.5908,-3.5908,-3.5908,-3.5908,-3.5908,-3.6746,-3.8071,-3.8383,-3.9571,-4.111,-4.111,-4.111,-4.1188,0.0,0.0,0.0,0.0,0.0,0.0,0.0,-3.925,0.0,-3.8316,-3.8643,-3.8911,-3.8584,-3.8062,-3.7857,-3.7868,-3.7178,-3.6748,-3.6748,-3.6869,-3.6891,-3.6891,-3.6987,0.0,-3.6987,-3.6215,-3.5636,-3.5267,0.0,0.0,0.0,0.0,0.0,0.0,0.0,-3.4631,0.0,0.0,0.0,-3.6386,-3.6021,-3.5631,-3.5221,-3.4771,-3.4602,-3.4602,-3.4602,-3.4864,-3.5353,-3.6216,-3.6498,-3.6704,-3.7981,-3.7849,-3.7319,-3.7821,-3.7205,-3.6375,-3.6492,-3.6045,-3.5565,-3.5558,-3.5623,-3.5706,-3.5706,-3.5697,-3.5707,-3.5687,-3.5707,-3.5708,-3.5708,-3.4691,0.0,0.0,0.0,0.0,0.0,0.0,0.0,0.0,0.0,0.0,0.0,0.0,0.0,0.0,0.0,0.0,0.0,0.0,0.0,0.0,0.0,0.0,0.0,0.0,0.0,-3.6523,-3.6104,-3.5904,-3.5899,-3.5894,-3.5908,-3.5908,-3.5908,-3.5908,-3.5947,-3.6395,-3.7331,-3.8539,-3.9006,-3.9961,-4.111,-4.111,-4.111,-4.1169,0.0,-3.4634,0.0,0.0,-3.7186,0.0,-3.9164,-4.0401,-4.0891,-3.9898,-3.9095,-3.8831,-3.9296,-3.8452,-3.8056,-3.8527,-3.7528,-3.6851,-3.6851,-3.6948,-3.6987,-3.6987,-3.6987,-3.6987,-3.6987,-3.6373,-3.5987,0.0,0.0,0.0,0.0,0.0,0.0,0.0,0.0,0.0,0.0,0.0,-3.6691,-3.7239,-3.6644,-3.6216,-3.5841,-3.5146,-3.4752,-3.4602,-3.4602,-3.4602,-3.4827,-3.6329,-3.6423,-3.6235,-3.824,-3.8037,-3.7163,-3.7755,-3.7175,-3.6339,-3.64,-3.606,-3.5706,-3.5707,-3.5698,-3.5698,-3.5698,-3.5689,-3.5699,-3.5698,-3.5718,-3.5718,-3.5718,-3.5039,0.0,0.0,0.0,0.0,0.0,0.0,0.0,0.0,0.0,0.0,0.0,0.0,0.0,0.0,0.0,0.0,0.0,0.0,0.0,0.0,0.0,-3.471,-3.4706,0.0,-3.666,0.0,-3.5982,-3.5899,-3.5908,-3.6084,-3.6181,-3.6181,-3.6376,-3.6454,-3.6493,-3.6999,-3.7818,-3.8831,-3.9532,-4.0331,-4.111,-4.111,-4.111,-4.111,0.0,0.0,0.0,0.0,0.0,0.0,0.0,-4.0839,-4.13,-4.1059,-4.0506,-3.9835,-3.919,-3.8496,-3.7825,-3.7251,-3.7058,-3.6987,-3.6987,-3.697,-3.6987,-3.6987,-3.6987,-3.6987,-3.6987,-3.6917,-3.6531,0.0,0.0,0.0,0.0,0.0,0.0,0.0,0.0,0.0,0.0,-3.7978,-3.804,-3.8188,-3.8112,-3.7211,-3.5897,-3.5803,-3.5296,-3.4602,-3.4602,-3.4602,-3.4733,-3.5691,-3.5953,-3.5979,-3.6323,-3.6327,-3.6141,-3.5799,-3.5608,-3.5547,-3.5731,-3.5736,-3.5688,-3.5699,-3.5699,-3.5699,-3.5699,-3.5708,-3.5708,-3.5699,-3.5747,-3.5794,-3.5794,-3.5083,-3.447,0.0,0.0,0.0,0.0,0.0,0.0,0.0,0.0,0.0,0.0,0.0,0.0,0.0,0.0,0.0,0.0,0.0,0.0,-3.093,0.0,-3.4694,-3.4701,-3.5578,-3.6372,-3.7077,-3.6279,-3.5889,-3.5928,-3.6727,-3.7077,-3.7116,-3.7915,-3.8266,-3.8207,-3.7487,-3.8188,-3.9688,-3.9766,-4.0331,-4.111,-4.111,-4.111,-4.111,0.0,0.0,0.0,0.0,0.0,0.0,0.0,-4.1323,-4.134,-4.0841,-4.0569,-4.0315,-3.9999,-3.8824,-3.7988,-3.769,-3.7251,-3.6987,-3.6987,-3.6987,-3.6987,-3.6987,-3.6987,-3.6987,-3.6987,-3.7105,-3.7023,0.0,0.0,0.0,0.0,0.0,0.0,0.0,0.0,-3.7386,-3.8184,-3.8252,-3.8576,-3.9032,-3.8507,-3.7906,-3.7286,-3.6798,-3.6104,-3.5371,-3.5371,-3.5033,-3.468,-3.5101,-3.5598,-3.6132,-3.6688,-3.669,-3.6415,-3.6252,-3.5893,-3.5607,-3.5679,-3.5689,-3.5718,-3.5747,-3.5766,-3.5766,-3.5766,-3.5756,-3.5765,-3.5747,-3.5784,-3.5801,-3.5801,-3.5519,-3.5119,0.0,0.0,0.0,0.0,0.0,0.0,0.0,0.0,0.0,0.0,0.0,0.0,0.0,0.0,0.0,0.0,0.0,0.0,-3.0804,0.0,-3.3925,-3.3916,-3.5237,-3.607,-3.6415,-3.6064,-3.6162,-3.6688,-3.7038,-3.7487,-3.7993,-3.8344,-3.85,-3.8519,-3.8694,-3.9162,-3.9844,-4.039,-4.0799,-4.111,-4.111,-4.111,-4.111,-3.926,0.0,-3.8981,0.0,-4.0228,-4.0315,-4.1446,-4.1604,-4.1341,-4.0586,-4.027,-4.0042,-3.9814,-3.8585,-3.7777,-3.7777,-3.7286,-3.6987,-3.6987,-3.6987,-3.6987,-3.6987,-3.7066,0.0,-3.7105,-3.7297,-3.7372,-3.7372,-3.6879,0.0,0.0,0.0,0.0,0.0,-3.7716,-3.8059,-3.8627,-3.8651,-3.9032,-3.9564,-3.892,-3.8525,-3.8244,-3.7662,-3.6821,-3.5923,-3.5923,-3.5423,-3.4771,-3.4869,-3.5362,-3.6021,-3.6594,-3.6588,-3.6344,-3.6388,-3.6063,-3.5708,-3.5718,-3.5737,-3.5747,-3.5784,-3.5793,-3.5793,-3.5793,-3.5801,-3.5791,-3.5793,-3.5801,-3.5799,-3.5799,-3.5799,-3.5605,-3.4983,0.0,0.0,0.0,0.0,0.0,0.0,0.0,-3.1365,-3.086,0.0,0.0,0.0,0.0,0.0,0.0,0.0,0.0,0.0,0.0,0.0,0.0,-3.5173,-3.6025,-3.6279,-3.6025,-3.6493,-3.7584,-3.7857,-3.8441,-3.926,-3.8987,-3.9026,-3.9298,-3.9649,-3.9961,-4.0234,-4.0857,-4.111,-4.111,-4.111,-4.111,-4.111,-3.9921,-4.0184,-4.0517,-4.1286,-4.1498,-4.1587,-4.1604,-4.1604,-4.1341,-4.0586,-3.9814,-3.9024,-3.8234,-3.7444,-3.6987,-3.6987,-3.7027,-3.6987,-3.6987,-3.6987,-3.6987,0.0,0.0,-3.7314,-3.7314,-3.7484,-3.7594,-3.7594,0.0,0.0,-3.8491,0.0,-3.938,-3.9476,-3.9476,-3.9508,-3.9583,-3.9583,-3.9602,-3.9602,-3.9602,-3.907,-3.83,-3.83,-3.7337,-3.5993,-3.5993,-3.5609,-3.5088,-3.5105,-3.5277,-3.5489,-3.5359,-3.5418,-3.5538,-3.5679,-3.5708,-3.5708,-3.5775,-3.5803,-3.5803,-3.581,-3.5791,-3.5791,-3.5791,-3.5799,-3.5799,-3.5791,-3.5799,-3.5799,-3.5799,-3.5799,-3.5799,-3.5799,0.0,0.0,0.0,0.0,0.0,0.0,-3.2832,-3.2691,-3.0972,0.0,0.0,0.0,0.0,0.0,0.0,0.0,0.0,-3.2088,-3.3712,0.0,-3.4583,-3.546,-3.6337,-3.7175,-3.6317,-3.6805,-3.8519,-3.9376,-4.0234,-4.1013,-4.0156,-4.0273,-4.0994,-4.0156,-4.0312,-4.1091,-4.111,-4.111,-4.111,-4.111,-4.111,-4.111,-4.1051,-4.1147,-4.1279,-4.1525,-4.156,-4.1604,-4.1604,-4.1604,-4.1341,-4.0586,-4.027,-3.9603,-3.8251,-3.7426,-3.6987,0.0,-3.6987,-3.6987,0.0,-3.6987,-3.7066,-3.7182,-3.7259,-3.7372,-3.7521,-3.7703,-3.7863,-3.8,0.0,0.0,0.0,-3.9256,-3.9495,-3.9571,-3.9571,-3.9596,-3.9602,-3.9602,-3.9602,-3.9602,-3.9602,-3.9462,-3.9251,-3.9251,-3.8678,-3.7766,-3.7261,-3.6596,-3.5864,-3.5435,-3.5386,-3.5512,-3.5562,-3.5637,-3.5718,-3.5765,-3.5773,-3.5773,-3.5782,-3.5801,-3.581,-3.5791,-3.5799,-3.5799,-3.5799,-3.5799,-3.5799,-3.5799,-3.5799,-3.5799,-3.5799,-3.5799,-3.5799,-3.5799,-3.5566,0.0,0.0,0.0,0.0,0.0,0.0,-3.289,0.0,-3.1932,0.0,0.0,0.0,0.0,0.0,0.0,0.0,0.0,-3.3731,0.0,-3.4603,-3.6045,-3.6921,-3.7194,-3.7525,-3.8266,-3.9415,-4.0292,-4.0838,-4.1091,-4.0818,-4.0838,-4.1091,-4.0799,-4.0857,-4.111,-4.111,-4.111,-4.111,-4.111,-4.111,-4.111,-4.1604,-4.1604,-4.1604,-4.1604,-4.1604,-4.1604,-4.1604,-4.1604,-4.1341,-4.0586,-4.0481,-3.9884,-3.8286,-3.769,0.0,-3.7005,-3.6987,-3.7027,-3.7105,-3.7105,-3.722,-3.741,-3.7484,-3.7631,-3.781,0.0,0.0,-3.846,-3.8535,-3.8789,-3.9173,-3.9432,-3.9571,-3.9602,-3.9602,-3.9602,-3.9602,-3.9602,-3.9602,-3.9602,-3.9631,-3.9642,-3.9717,-3.9758,-3.9337,-3.8629,-3.7889,-3.7154,-3.6389,-3.5734,-3.5554,-3.563,-3.5699,-3.5775,-3.5793,-3.5791,-3.5799,-3.5799,-3.5799,-3.5799,-3.5799,-3.5799,-3.5799,-3.5799,-3.5799,-3.5799,-3.5799,-3.5799,-3.5799,-3.5799,-3.5799,-3.5799,-3.5799,-3.5799,-3.5807,-3.5648,-3.5104,0.0,0.0,0.0,0.0,0.0,0.0,-3.2861,0.0,0.0,0.0,0.0,0.0,0.0,0.0,-3.3025,-3.4057,0.0,-3.5577,-3.6668,-3.7525,-3.8188,-3.9065,-3.9591,-3.9825,-4.0701,-4.111,-4.111,-4.111,-4.111,-4.111,-4.111,-4.111,-4.111,-4.111,-4.111,-4.111,-4.111,-4.111,-4.111,-4.1604,-4.1604,0.0,0.0,-4.1604,0.0,-4.1604,-4.1604,-4.1341,-4.0586,-4.0481,-3.9884,-3.8357,-3.8128,-3.787,-3.7206,0.0,0.0,0.0,-3.7334,-3.741,-3.7631,-3.781,-3.8002,-3.8216,-3.8428,-3.8664,-3.8921,-3.9147,-3.9362,-3.9602,-3.9602,-3.9602,-3.9602,-3.9602,-3.9602,-3.9602,-3.9602,-3.9602,-3.9602,-3.9665,-3.9717,-3.9717,-3.9848,-3.9502,-3.8804,-3.8074,-3.741,-3.6781,-3.6054,-3.5805,-3.5799,-3.5799,-3.5838,-3.5877,-3.5818,-3.5799,-3.5799,-3.5799,-3.5799,-3.5799,-3.5799,-3.5799,-3.5799,-3.5799,-3.5857,-3.5877,-3.5818,-3.5857,-3.5877,-3.5818,-3.5799,-3.5799,-3.5818,-3.5857,-3.5905,-3.5905,0.0,0.0,0.0,0.0,0.0,0.0,-3.4165,-3.3921,0.0,0.0,0.0,0.0,0.0,-3.3882,-3.4583,-3.4661,-3.546,-3.7097,-3.7233,-3.8168,-3.9902,-4.0721,-4.0682,-3.9922,-4.074,-4.111,-4.111,-4.111,-4.111,-4.111,-4.111,-4.111,-4.111,-4.111,-4.111,-4.111,-4.111,-4.111,-4.111,0.0,0.0,-4.1604,-4.1604,-4.1604,-4.1604,-4.1604,-4.1604,-4.1341,-4.0586,-4.0481,-4.0179,-3.934,-3.8687,-3.8341,-3.8391,-3.7671,-3.7297,-3.7521,-3.7521,-3.7631,-3.7828,-3.8018,-3.8234,-3.8428,-3.8664,-3.8921,-3.9129,-3.9362,-3.9552,-3.9602,-3.9602,-3.9602,-3.9602,-3.9602,-3.9602,-3.9602,-3.9602,-3.9602,-3.9602,-3.9665,-3.9762,-3.9867,-4.0015,-4.0043,-3.9917,-3.92,-3.8466,-3.7757,-3.7027,-3.6345,-3.5799,-3.5799,-3.6265,-3.6653,-3.6012,-3.5799,-3.5799,-3.5799,-3.5799,-3.5799,-3.5799,-3.5799,-3.5799,-3.5799,-3.6304,-3.6595,-3.5935,-3.6323,-3.6595,-3.5915,-3.5799,-3.5826,-3.5864,-3.5898,-3.5892,-3.5897,-3.5903,0.0,0.0,-3.576,-3.5505,-3.4498,-3.4525,-3.4174,0.0,0.0,0.0,0.0,-3.4837,-3.509,-3.4603,-3.5246,-3.5791,-3.6201,-3.7525,-3.9065,-4.0799,-4.0994,-4.0994,-4.0799,-4.1013,-4.111,-4.111,-4.111,-4.111,-4.111,-4.111,-4.111,-4.111,-4.111,-4.111,-4.111,-4.111,-4.111,-4.111,-4.1604,-4.1604,-4.1604,-4.1604,-4.1604,-4.1604,-4.1604,-4.1692,-4.1578,-4.1198,-4.1248,-4.0931,-3.9864,-3.9366,-3.891,-3.8419,-3.7807,-3.7521,-3.7739,-3.7739,-3.7881,-3.8171,-3.8267,-3.8491,-3.8826,-3.896,-3.9147,-3.9362,-3.9527,-3.9602,-3.9602,-3.9602,-3.9602,-3.9602,-3.9602,-3.9602,-3.9602,-3.9602,-3.9602,-3.9602,-3.9754,-3.9826,-3.9911,-4.0117,-4.0271,-4.0307,-3.9548,-3.8827,-3.8089,-3.7346,-3.6518,-3.5877,-3.6265,-3.6712,-3.7003,-3.6537,-3.6401,-3.6304,-3.5915,-3.5799,-3.5799,-3.5799,-3.5799,-3.5799,-3.5799,-3.6479,-3.6964,-3.6498,-3.677,-3.6964,-3.6479,-3.6087,-3.5857,-3.5898,-3.5905,-3.5889,-3.5904,-3.5931,0.0,-3.5956,-3.5917,-3.5725,-3.5284,-3.5222,-3.4856,-3.3999,0.0,0.0,-3.4622,-3.5421,-3.5869,-3.5791,-3.6259,-3.6883,-3.7662,-3.9026,-4.0156,-4.111,-4.111,-4.111,-4.111,-4.111,-4.111,-4.111,-4.111,-4.111,-4.111,-4.111,-4.111,-4.111,-4.111,-4.111,-4.111,-4.111,-4.111,-4.1091,-4.1604,-4.1604,-4.1604,-4.1604,-4.1648,-4.1648,-4.1648,-4.1805,-4.1924,-4.1817,-4.1861,-4.1413,-4.0096,-3.9738,-3.9206,-3.8222,-3.7847,-3.7775,-3.7934,-3.7969,-3.8138,-3.8478,-3.8572,-3.8796,-3.9183,-3.9237,-3.9362,-3.9602,-3.9602,-3.9602,-3.9602,-3.9602,-3.9602,-3.9602,-3.9602,-3.9602,-3.9602,-3.9602,-3.9626,-3.9631,-3.9864,-3.9933,-3.9954,-4.0215,-4.036,-4.0358,-3.973,-3.9045,-3.8304,-3.7549,-3.6809,-3.6304,-3.6906,-3.7275,-3.7469,-3.7333,-3.7294,-3.7081,-3.6071,-3.5799,-3.5799,-3.5799,-3.5799,-3.5838,-3.5974,-3.6673,-3.7294,-3.7294,-3.7303,-3.7264,-3.7128,-3.6448,-3.5892,-3.5898,-3.5899,-3.5908,-3.5912,0.0,-3.5996,-3.5992,-3.596,-3.5916,-3.5894,-3.5908,-3.5597,-3.4856,-3.548,-3.5577,-3.4837,-3.5616,-3.6493,-3.737,-3.7272,-3.8032,-3.9786,-4.0526,-4.0974,-4.111,-4.111,-4.111,-4.111,-4.111,-4.111,-4.111,-4.111,-4.111,-4.111,-4.111,-4.111,-4.111,-4.1097,-4.1103,-4.1103,-4.1109,-4.1089,-4.1095,-4.1604,-4.1604,-4.1604,-4.1604,-4.1719,-4.1831,-4.1831,-4.2061,-4.1996,-4.1319,-4.0659,-4.0277,-4.0235,-3.9031,-3.8474,-3.91,-3.8504,-3.8106,-3.8158,-3.8303,-3.8428,-3.851,-3.8884,-3.9129,-3.921,-3.9432,-3.9552,-3.9602,-3.9602,-3.9602,-3.9602,-3.9602,-3.9602,-3.9602,-3.9602,-3.9602,-3.9602,-3.9661,-3.967,-3.9712,-3.9973,-4.0057,-4.0098,-4.0306,-4.0454,-4.0574,-4.0565,-4.0098,-3.9335,-3.8499,-3.811,-3.7897,-3.7294,-3.811,-3.9159,-3.8402,-3.8188,-3.7838,-3.6246,-3.5799,-3.5799,-3.5799,-3.5799,-3.5993,-3.6731,-3.7566,-3.8188,-3.8188,-3.8202,-3.7965,-3.7245,-3.6443,-3.5889,-3.5895,-3.5903,-3.5912,-3.5988,0.0,-3.6009,-3.5993,-3.5989,-3.5957,-3.5919,-3.5908,-3.583,-3.5713,-3.5811,-3.583,-3.5713,-3.6512,-3.7409,-3.8266,-3.7584,-3.8032,-3.9786,-3.9922,-4.037,-4.111,-4.111,-4.111,-4.111,-4.111,-4.111,-4.111,-4.111,-4.111,-4.111,-4.111,-4.111,-4.1091,-4.1091,-4.1105,-4.1109,-4.1094,-4.1099,-4.1101,-4.1762,-4.1892,-4.1995,-4.1995,-4.2061,-4.2103,-4.2103,-4.231,-4.2324,-4.1948,-4.1312,-4.0741,-4.0438,-3.9373,-3.8755,-3.89,-3.8587,-3.8401,-3.8578,-3.851,-3.8615,-3.8855,-3.9082,-3.9283,-3.9406,-3.9552,-3.9602,-3.9602,-3.9602,-3.9602,-3.9602,-3.9602,-3.9602,-3.9602,-3.9631,-3.9661,-3.9661,-3.9758,-3.9804,-3.9826,-4.0015,-4.0117,-4.0118,-4.0321,-4.0485,-4.0621,-4.0745,-4.0333,-3.9645,-3.9237,-3.8479,-3.7702,-3.778,-3.8343,-3.8926,-3.8518,-3.8402,-3.811,-3.6848,-3.6848,-3.7197,-3.7197,-3.6848,-3.6615,-3.7003,-3.7411,-3.7828,-3.8299,-3.8023,-3.7727,-3.7845,-3.6785,-3.5895,-3.5903,-3.5935,0.0,0.0,-3.6001,-3.5992,-3.5996,-3.597,-3.5932,-3.5903,-3.5904,-3.6084,-3.6551,-3.6162,-3.6103,-3.6571,-3.698,-3.7603,-3.848,-3.9026,-3.9688,-4.0487,-4.0506,-4.0701,-4.111,-4.111,-4.111,-4.111,-4.111,-4.111,-4.111,-4.111,-4.111,-4.111,-4.111,-4.1103,-4.1111,-4.1105,-4.1104,-4.1097,-4.1105,-4.1107,-4.1108,-4.2002,-4.2145,-4.2287,-4.2287,-4.2328,-4.2369,-4.2369,-4.253,-4.267,-4.267,-4.21,-4.1415,-4.06,-4.0003,-3.9311,-3.8506,-3.8643,-3.8805,-3.8881,-3.8755,-3.8826,-3.9183,-3.9256,-3.9388,-3.9596,-3.9602,-3.9602,-3.9602,-3.9602,-3.9602,-3.9602,-3.9602,-3.9602,-3.9631,-3.9689,-3.9717,-3.9758,-3.9889,-3.9951,-3.9973,-4.0077,-4.0176,-4.0196,-4.0372,-4.053,-4.0662,-4.0781,-4.046,-3.9956,-3.9761,-3.8946,-3.8033,-3.8305,-3.8538,-3.8693,-3.8693,-3.8693,-3.8499,-3.7644,-3.7897,-3.8402,-3.8402,-3.7741,-3.7139,-3.737,-3.7253,-3.7397,-3.8474,-3.7864,-3.7404,-3.833,-3.7245,-3.6169,-3.5955,0.0,0.0,0.0,-3.6005,-3.5994,-3.5996,-3.5948,-3.5926,-3.5892,-3.6085,-3.6473,-3.7155,-3.6766,-3.6805,-3.7467,-3.7681,-3.8207,-3.9084,-4.0409,-4.111,-4.111,-4.111,-4.111,-4.111,-4.111,-4.111,-4.111,-4.111,-4.111,-4.111,-4.111,-4.1214,-4.1382,-4.1187,-4.1208,-4.1378,-4.1189,-4.1221,-4.1384,-4.1171,-4.123,-4.1367,-4.2287,-4.2287,-4.2287,-4.2287,-4.245,-4.257,-4.257,-4.2747,-4.29,-4.29,-4.2212,-4.1415,-4.06,-4.0456,-3.9822,-3.8352,-3.9075,-3.941,-3.8918,-3.9045,-3.9156,-3.921,-3.9432,-3.9577,-3.9602,-3.9602,-3.9602,-3.9602,-3.9602,-3.9602,-3.9602,-3.9602,-3.9631,-3.9693,-3.9693,-3.9781,-3.9889,-4.0036,-4.0096,-4.0096,-4.0234,-4.0326,-4.0389,-4.053,-4.0662,-4.08,-4.0868,-4.0859,-4.0694,-3.9956,-4.0111,-4.0364,-3.8868,-3.8946,-3.9606,-3.9606,-3.9606,-3.9412,-3.8538,-3.8343,-3.8402,-3.8402,-3.7741,-3.7303,-3.8121,-3.7681,-3.7571,-3.9267,-3.8322,-3.7459,-3.8337,-3.7792,-3.6928,-3.6127,0.0,0.0,-3.6111,-3.5994,-3.6007,-3.5994,-3.5991,-3.5979,-3.5899,-3.6629,-3.7136,-3.7194,-3.7896,-3.8344,-3.8402,-3.9162,-4.0019,-4.0877,-4.1033,-4.111,-4.111,-4.111,-4.111,-4.111,-4.111,-4.111,-4.111,-4.111,-4.111,-4.111,-4.111,-4.1568,-4.2249,-4.1421,-4.1576,-4.222,-4.1426,-4.1581,-4.2205,-4.1394,-4.1602,-4.2184,-4.249,-4.2591,-4.267,-4.267,-4.2747,-4.2786,-4.2786,-4.2844,-4.2882,-4.2882,-4.2212,-4.1415,-4.06,-4.0668,-4.0181,-3.8768,-3.9534,-3.9898,-3.9384,-3.9406,-3.9458,-3.9458,-3.9552,-3.9602,-3.9602,-3.9602,-3.9602,-3.9602,-3.9602,-3.9602,-3.9602,-3.9602,-3.9631,-3.9717,-3.9781,-3.9911,-4.0036,-4.0157,-4.0234,-4.0234,-4.0291,-4.0344,-4.0422,-4.0545,-4.0675,-4.0812,-4.0878,-4.0907,-4.0849,-4.0558,-4.0325,-3.9956,-3.8771,-3.8635,-3.8896,-3.8902,-3.8883,-3.8832,-3.8482,-3.8788,-3.9217,-3.9217,-3.8555,-3.7841,-3.7642,-3.6943,-3.6696,-3.7898,-3.7639,-3.7316,-3.7698,-3.751,-3.7009,-3.615,0.0,-3.7009,-3.613,-3.6462,-3.6819,-3.6811,-3.6327,-3.6191,-3.6713,-3.6531,-3.684,-3.7912,-3.7815,-3.8168,-3.926,-3.963,-4.0195,-4.1071,-4.111,-4.111,-4.111,-4.111,-4.111,-4.111,-4.111,-4.111,-4.111,-4.111,-4.1103,-4.1091,-4.1091,-4.1289,-4.1568,-4.1236,-4.1302,-4.1601,-4.1815,-4.2104,-4.2368,-4.2028,-4.2123,-4.2279,-4.267,-4.2824,-4.2882,-4.2882,-4.2882,-4.2882,-4.2882,-4.2957,-4.3032,-4.3032,-4.2414,-4.163,-4.0828,-4.1141,-4.0717,-3.9029,-4.0038,-4.0402,-3.9532,-3.9552,-3.9602,-3.9602,-3.9602,-3.9602,-3.9602,-3.9602,-3.9602,-3.9602,-3.9602,-3.9602,-3.9631,-3.9631,-3.9708,-3.9826,-3.9933,-4.0036,-4.0157,-4.0253,-4.031,-4.031,-4.031,-4.0362,-4.0469,-4.0559,-4.07,-4.0846,-4.0888,-4.0907,-4.0907,-4.0907,-4.0538,-3.9936,-3.9082,-3.8799,-3.8699,-3.8148,-3.8201,-3.8422,-3.8422,-3.8867,-3.933,-3.9304,-3.8844,-3.8174,-3.7332,-3.6481,-3.6143,-3.7047,-3.7226,-3.7328,-3.7653,-3.7711,-3.7419,-3.656,-3.7145,-3.7399,-3.654,-3.6911,-3.7304,-3.7309,-3.6772,-3.6542,-3.6855,-3.7038,-3.7503,-3.844,-3.8444,-3.8948,-4.0136,-4.0214,-4.0487,-4.1091,-4.111,-4.1097,-4.1095,-4.1097,-4.111,-4.111,-4.1103,-4.1095,-4.1095,-4.1106,-4.1105,-4.1108,-4.1108,-4.1255,-4.1502,-4.1502,-4.1504,-4.1595,-4.2474,-4.2644,-4.2435,-4.2708,-4.263,-4.2318,-4.2882,-4.2882,-4.2882,-4.2882,-4.2882,-4.2882,-4.292,-4.3124,-4.3303,-4.3303,-4.2846,-4.2216,-4.1385,-4.2031,-4.1551,-3.9113,-4.0558,-4.0914,-3.9322,-3.9458,-3.9602,-3.9602,-3.9602,-3.9602,-3.9602,-3.9602,-3.9602,-3.9602,-3.9602,-3.9631,-3.9693,-3.9693,-3.9848,-4.0117,-4.0117,-4.0176,-4.031,-4.031,-4.031,-4.031,-4.031,-4.043,-4.0588,-4.0588,-4.0718,-4.0907,-4.0907,-4.0907,-4.0907,-4.0907,-4.0907,-4.0752,-3.9956,-3.9691,-3.9361,-3.761,-3.7774,-3.85,-3.85,-3.85,-3.8481,-3.8427,-3.8416,-3.8201,-3.7383,-3.6533,-3.6185,-3.7103,-3.7301,-3.7575,-3.8436,-3.8612,-3.8316,-3.7458,-3.8043,-3.8316,-3.7438,-3.7301,-3.7309,-3.7321,-3.7302,-3.6972,-3.6109,-3.8319,-3.9435,-3.8576,-4.012,-4.111,-4.1091,-4.111,-4.111,-4.111,-4.111,-4.1095,-4.1113,-4.1095,-4.111,-4.1091,-4.1096,-4.1094,-4.1094,-4.1099,-4.1107,-4.1107,-4.1107,-4.1581,-4.2401,-4.2401,-4.2394,-4.2494,-4.3352,-4.3177,-4.2513,-4.3372,-4.3157,-4.2415,-4.2882,-4.2882,-4.2957,-4.3124,-4.316,-4.3232,-4.3442,-4.3545,-4.3579,-4.3579,-4.3443,-4.2825,-4.144,-4.2687,-4.2389,-3.9361,-4.0802,-4.1199,-3.9595,-3.9552,-3.9602,-3.9602,-3.9602,-3.9602,-3.9602,-3.9602,-3.9607,-3.9665,-3.9665,-3.9735,-3.9826,-3.9826,-3.9933,-4.0117,-4.0117,-4.0176,-4.031,-4.031,-4.031,-4.0291,-4.0342,-4.0473,-4.0602,-4.0688,-4.0815,-4.0907,-4.0907,-4.0907,-4.0907,-4.0907,-4.0907,-4.0761,-3.9952,-3.9276,-3.8578,-3.7492,-3.7805,-3.8376,-3.7752,-3.8473,-3.9262,-3.8637,-3.8922,-3.8828,-3.6752,-3.7067,-3.7705,-3.7379,-3.8238,-3.8961,-3.8668,-3.9058,-3.9175,-3.8355,-3.8902,-3.9156,-3.8336,-3.8199,-3.8417,-3.8988,-3.8012,-3.7663,-3.8584,-3.8808,-3.9021,-3.9381,-4.0467,-4.11,-4.1108,-4.109,-4.1096,-4.1096,-4.1101,-4.14,-4.2015,-4.1417,-4.109,-4.1091,-4.1097,-4.1101,-4.1101,-4.1105,-4.1091,-4.1094,-4.1094,-4.1599,-4.2405,-4.2405,-4.2753,-4.3333,-4.3606,-4.3918,-4.4172,-4.3821,-4.3548,-4.3216,-4.2882,-4.2995,-4.3087,-4.3267,-4.3373,-4.3401,-4.3254,-4.3315,-4.3378,-4.3378,-4.3194,-4.266,-4.1675,-4.2603,-4.2193,-3.9605,-4.0401,-4.0654,-3.9688,-3.9656,-3.9679,-3.9703,-3.9703,-3.9703,-3.9656,-3.9679,-3.9731,-3.9781,-3.9781,-3.9848,-3.9994,-3.9994,-4.0057,-4.0176,-4.0176,-4.0234,-4.031,-4.031,-4.031,-4.031,-4.0375,-4.0485,-4.0602,-4.0745,-4.0837,-4.0907,-4.0907,-4.0907,-4.0907,-4.0907,-4.0907,-4.082,-4.0357,-3.9855,-3.926,-3.8454,-3.8608,-3.8904,-3.8381,-3.9002,-3.9661,-3.9141,-3.9414,-3.9301,-3.7371,-3.7799,-3.8456,-3.7926,-3.8863,-3.9644,-3.9156,-3.9468,-3.9644,-3.9156,-3.9488,-3.9624,-3.9136,-3.9078,-3.9253,-3.9741,-3.8902,-3.8551,-3.9253,-3.9445,-3.9746,-4.0267,-4.0792,-4.1101,-4.1107,-4.1097,-4.1091,-4.1091,-4.1435,-4.1869,-4.2394,-4.2216,-4.2121,-4.2124,-4.1776,-4.1601,-4.1601,-4.1269,-4.1092,-4.1105,-4.1105,-4.1587,-4.2435,-4.2767,-4.3216,-4.3723,-4.4075,-4.4114,-4.3957,-4.3762,-4.3255,-4.265,-4.2957,-4.316,-4.3338,-4.3373,-4.3505,-4.3393,-4.2673,-4.2723,-4.2805,-4.2805,-4.2352,-4.1954,-4.1897,-4.1954,-4.136,-3.9727,-3.9602,-3.9631,-3.9717,-3.9717,-3.9762,-3.9889,-3.9911,-3.9848,-3.9739,-3.9826,-3.9911,-3.9911,-3.9911,-3.9994,-4.0117,-4.0117,-4.0176,-4.031,-4.031,-4.031,-4.031,-4.031,-4.0291,-4.031,-4.0392,-4.05,-4.0635,-4.0757,-4.0837,-4.0907,-4.0907,-4.0907,-4.0907,-4.0907,-4.0907,-4.0917,-4.0988,-4.0948,-4.0746,-4.0018,-3.9806,-3.98,-3.98,-3.9858,-3.9917,-3.9917,-3.9923,-3.9676,-3.8721,-3.8678,-3.8807,-3.8729,-3.9351,-3.9917,-3.9917,-3.9917,-3.9917,-3.9917,-3.9917,-3.9917,-3.9917,-3.9858,-3.9839,-3.9917,-3.9858,-3.9546,-3.8885,-4.0207,-4.1093,-4.1091,-4.1108,-4.1108,-4.109,-4.1168,-4.1226,-4.1226,-4.2067,-4.2558,-4.2635,-4.3415,-4.3789,-4.369,-4.291,-4.2478,-4.2379,-4.1587,-4.1166,-4.1108,-4.1108,-4.1596,-4.2454,-4.3255,-4.3626,-4.3762,-4.4484,-4.386,-4.2591,-4.3313,-4.2572,-4.1322,-4.3511,-4.3579,-4.3679,-4.3905,-4.3448,-4.3092,-4.3128,-4.2604,-4.22,-4.22,-4.2077,-4.1773,-4.1135,-4.1623,-4.136,-3.9727,-3.9637,-3.9735,-3.9867,-3.9867,-3.9867,-3.9889,-4.0015,-4.0036,-3.9996,-3.9933,-3.9954,-4.0057,-4.0057,-4.0137,-4.0253,-4.0253,-4.0272,-4.031,-4.031,-4.031,-4.031,-4.031,-4.0327,-4.0392,-4.05,-4.0635,-4.0776,-4.0848,-4.0888,-4.0907,-4.0907,-4.0907,-4.0907,-4.0907,-4.0907,-4.0906,-4.0979,-4.0539,-3.9953,-3.9841,-3.9797,-3.98,-3.98,-4.0307,-4.0815,-4.0815,-4.0812,-4.0421,-3.8918,-3.9605,-4.0366,-3.9683,-4.021,-4.0815,-4.0815,-4.0815,-4.0815,-4.0815,-4.0815,-4.0815,-4.0815,-4.0229,-4.0054,-4.0737,-4.0229,-3.9995,-4.0503,-4.089,-4.111,-4.1103,-4.1094,-4.1093,-4.1103,-4.1755,-4.2128,-4.2128,-4.2962,-4.3741,-4.4431,-4.4616,-4.4377,-4.3698,-4.3518,-4.3069,-4.2382,-4.2204,-4.1752,-4.1108,-4.1108,-4.1596,-4.2415,-4.2591,-4.3079,-4.3645,-4.3157,-4.3157,-4.3352,-4.2864,-4.2435,-4.2142,-4.3712,-4.3809,-4.3936,-4.4079,-4.3863,-4.3587,-4.3323,-4.2562,-4.1991,-4.1991,-4.168,-4.1292,-4.0929,-4.1274,-4.1054,-3.984,-3.9777,-3.9848,-3.9994,-3.9994,-4.0015,-4.0096,-4.0157,-4.0195,-4.0195,-4.0137,-4.0137,-4.0195,-4.0195,-4.0234,-4.031,-4.031,-4.031,-4.031,-4.031,-4.031,-4.031,-4.031,-4.0309,-4.036,-4.0515,-4.0648,-4.0732,-4.0839,-4.0907,-4.0907,-4.0907,-4.0907,-4.0907,-4.0907,-4.0907,-4.0906,-4.0986,-4.0701,-4.0324,-4.0395,-4.0424,-4.0424,-4.0424,-4.0756,-4.1108,-4.1108,-4.1108,-4.0873,-3.9995,-4.0464,-4.0971,-4.0503,-4.0776,-4.1108,-4.1108,-4.1108,-4.1108,-4.1108,-4.1108,-4.1108,-4.1108,-4.0717,-4.0581,-4.1049,-4.0698,-4.06,-4.1049,-4.1099,-4.1101,-4.1091,-4.1497,-4.1714,-4.1716,-4.2544,-4.3017,-4.3017,-4.3866,-4.4549,-4.5009,-4.5408,-4.5382,-4.4933,-4.4524,-4.4075,-4.3606,-4.2786,-4.2142,-4.1693,-4.1283,-4.1596,-4.2396,-4.2396,-4.2903,-4.3645,-4.3196,-4.3294,-4.3645,-4.3196,-4.2767,-4.2396,-4.386,-4.4017,-4.4114,-4.3994,-4.4027,-4.3801,-4.3028,-4.2183,-4.1612,-4.1637,-4.1055,-4.0691,-4.0811,-4.0811,-4.0575,-3.9987,-3.9933,-3.9994,-4.0137,-4.0137,-4.0176,-4.0291,-4.031,-4.031,-4.031,-4.031,-4.031,-4.031,-4.031,-4.031,-4.031,-4.031,-4.031,-4.031,-4.031,-4.031,-4.031,-4.031,-4.031,-4.0363,-4.0534,-4.0615,-4.0668,-4.0839,-4.0907,-4.0907,-4.0907,-4.0907,-4.0907,-4.0907,-4.0917,-4.0935,-4.0974,-4.0916,-4.0836,-4.1039,-4.0991,-4.0912,-4.1049,-4.1108,-4.1108,-4.1108,-4.1108,-4.1108,-4.1108,-4.1108,-4.1108,-4.1108,-4.1108,-4.1108,-4.1108,-4.1108,-4.1108,-4.1108,-4.1108,-4.1108,-4.1108,-4.1108,-4.1108,-4.1108,-4.1225,-4.1381,-4.1537,-4.14,-4.1322,-4.1322,-4.1849,-4.2181,-4.2181,-4.3001,-4.3489,-4.3489,-4.4465,-4.4992,-4.4992,-4.5714,-4.6144,-4.628,-4.5421,-4.4992,-4.4953,-4.3352,-4.2533,-4.2357,-4.1479,-4.1518,-4.2181,-4.2181,-4.2689,-4.3489,-4.3489,-4.3567,-4.3704,-4.3704,-4.3235,-4.265,-4.4383,-4.4411,-4.4224,-4.3608,-4.2859,-4.2133,-4.1487,-4.0608,-4.0056,-4.0185,-4.0091,-4.0037,-4.0037,-4.0037,-4.0065,-4.0076,-4.0057,-4.0137,-4.0253,-4.0272,-4.0291,-4.031,-4.031,-4.031,-4.031,-4.031,-4.031,-4.031,-4.031,-4.031,-4.031,-4.031,-4.031,-4.031,-4.031,-4.031,-4.031,-4.031,-4.0396,-4.0564,-4.0593,-4.0706,-4.0859,-4.0898,-4.0907,-4.0907,-4.0907,-4.0907,-4.0907,-4.0907,-4.0935,-4.0996,-4.1,-4.0524,-4.0101,-4.089,-4.0561,-4.0132,-4.0893,-4.1108,-4.1108,-4.1108,-4.1108,-4.1108,-4.1108,-4.1108,-4.1108,-4.1108,-4.1108,-4.1108,-4.1108,-4.1108,-4.1108,-4.1108,-4.1108,-4.1108,-4.1108,-4.1108,-4.1108,-4.1108,-4.1771,-4.2513,-4.3274,-4.2669,-4.222,-4.222,-4.1635,-4.1283,-4.1283,-4.2103,-4.2572,-4.2572,-4.4153,-4.4992,-4.4992,-4.5129,-4.5558,-4.628,-4.5421,-4.4992,-4.4972,-4.3977,-4.3118,-4.2357,-4.1479,-4.1166,-4.1283,-4.1283,-4.1791,-4.2572,-4.2572,-4.304,-4.3704,-4.3704,-4.3626,-4.3626,-4.4643,-4.4341,-4.3888,-4.3585,-4.3158,-4.2648,-4.193,-4.1079,-4.0488,-4.0552,-4.0173,-3.9933,-4.0015,-4.0077,-4.0137,-4.0215,-4.0215,-4.0234,-4.0291,-4.031,-4.031,-4.031,-4.031,-4.031,-4.031,-4.031,-4.031,-4.031,-4.031,-4.031,-4.031,-4.031,-4.031,-4.031,-4.031,-4.031,-4.031,-4.0344,-4.0408,-4.05,-4.0648,-4.0769,-4.0848,-4.0888,-4.0907,-4.0907,-4.0907,-4.0907,-4.0907,-4.0907,-4.0935,-4.1003,-4.1,-4.0778,-4.0593,-4.0987,-4.0834,-4.06,-4.0991,-4.1108,-4.1108,-4.1108,-4.1108,-4.1108,-4.1108,-4.1479,-4.1693,-4.1205,-4.1108,-4.1108,-4.1108,-4.1108,-4.1108,-4.1108,-4.1108,-4.1108,-4.1108,-4.1108,-4.1283,-4.1771,-4.2591,-4.3274,-4.3665,-4.2903,-4.2396,-4.2396,-4.2494,-4.2337,-4.1849,-4.3118,-4.3626,-4.3138,-4.4348,-4.4777,-4.4289,-4.4758,-4.4953,-4.4836,-4.4465,-4.4524,-4.4972,-4.4094,-4.3216,-4.2357,-4.1479,-4.1108,-4.1108,-4.1108,-4.1615,-4.2454,-4.2942,-4.3957,-4.509,-4.4602,-4.4426,-4.4484]}]]